<?xml version="1.0" encoding="UTF-8" ?>
<gpx xmlns="http://www.topografix.com/GPX/1/1" version="1.1" creator="RouteGadget GPS Tracking" xmlns:xsi="http://www.w3.org/2001/XMLSchema-instance" xmlns:tp1="http://www.garmin.com/xmlschemas/TrackPointExtension/v1" xsi:schemaLocation="http://www.topografix.com/GPX/1/1 http://www.topografix.com/GPX/1/1/gpx.xsd http://www.garmin.com/xmlschemas/TrackPointExtension/v1 http://www.garmin.com/xmlschemas/TrackPointExtensionv1.xsd">
<trk>
<trkseg><trkpt lat="60.232683" lon="24.909747">
<time>2021-05-21T09:30:07Z</time>
</trkpt>
<trkpt lat="60.232647" lon="24.909757">
<time>2021-05-21T09:30:08Z</time>
</trkpt>
<trkpt lat="60.232637" lon="24.909762">
<time>2021-05-21T09:30:09Z</time>
</trkpt>
<trkpt lat="60.232611" lon="24.909765">
<time>2021-05-21T09:30:10Z</time>
</trkpt>
<trkpt lat="60.232591" lon="24.909762">
<time>2021-05-21T09:30:11Z</time>
</trkpt>
<trkpt lat="60.232555" lon="24.909744">
<time>2021-05-21T09:30:12Z</time>
</trkpt>
<trkpt lat="60.232494" lon="24.90968">
<time>2021-05-21T09:30:14Z</time>
</trkpt>
<trkpt lat="60.232432" lon="24.909588">
<time>2021-05-21T09:30:16Z</time>
</trkpt>
<trkpt lat="60.232381" lon="24.909463">
<time>2021-05-21T09:30:18Z</time>
</trkpt>
<trkpt lat="60.23234" lon="24.909327">
<time>2021-05-21T09:30:20Z</time>
</trkpt>
<trkpt lat="60.232309" lon="24.909176">
<time>2021-05-21T09:30:22Z</time>
</trkpt>
<trkpt lat="60.232263" lon="24.90905">
<time>2021-05-21T09:30:24Z</time>
</trkpt>
<trkpt lat="60.232181" lon="24.908968">
<time>2021-05-21T09:30:26Z</time>
</trkpt>
<trkpt lat="60.232099" lon="24.908889">
<time>2021-05-21T09:30:28Z</time>
</trkpt>
<trkpt lat="60.231946" lon="24.908761">
<time>2021-05-21T09:30:31Z</time>
</trkpt>
<trkpt lat="60.231838" lon="24.908692">
<time>2021-05-21T09:30:33Z</time>
</trkpt>
<trkpt lat="60.231782" lon="24.908666">
<time>2021-05-21T09:30:34Z</time>
</trkpt>
<trkpt lat="60.231726" lon="24.908641">
<time>2021-05-21T09:30:35Z</time>
</trkpt>
<trkpt lat="60.231674" lon="24.908625">
<time>2021-05-21T09:30:36Z</time>
</trkpt>
<trkpt lat="60.231618" lon="24.90861">
<time>2021-05-21T09:30:37Z</time>
</trkpt>
<trkpt lat="60.231562" lon="24.908595">
<time>2021-05-21T09:30:38Z</time>
</trkpt>
<trkpt lat="60.231464" lon="24.908551">
<time>2021-05-21T09:30:40Z</time>
</trkpt>
<trkpt lat="60.231408" lon="24.908526">
<time>2021-05-21T09:30:41Z</time>
</trkpt>
<trkpt lat="60.231357" lon="24.9085">
<time>2021-05-21T09:30:42Z</time>
</trkpt>
<trkpt lat="60.231306" lon="24.908482">
<time>2021-05-21T09:30:43Z</time>
</trkpt>
<trkpt lat="60.231244" lon="24.908474">
<time>2021-05-21T09:30:44Z</time>
</trkpt>
<trkpt lat="60.231193" lon="24.908474">
<time>2021-05-21T09:30:45Z</time>
</trkpt>
<trkpt lat="60.231142" lon="24.908485">
<time>2021-05-21T09:30:46Z</time>
</trkpt>
<trkpt lat="60.231096" lon="24.908505">
<time>2021-05-21T09:30:47Z</time>
</trkpt>
<trkpt lat="60.230999" lon="24.908561">
<time>2021-05-21T09:30:49Z</time>
</trkpt>
<trkpt lat="60.230917" lon="24.908648">
<time>2021-05-21T09:30:51Z</time>
</trkpt>
<trkpt lat="60.23085" lon="24.908766">
<time>2021-05-21T09:30:53Z</time>
</trkpt>
<trkpt lat="60.230799" lon="24.90891">
<time>2021-05-21T09:30:55Z</time>
</trkpt>
<trkpt lat="60.230784" lon="24.909137">
<time>2021-05-21T09:30:58Z</time>
</trkpt>
<trkpt lat="60.230794" lon="24.909291">
<time>2021-05-21T09:31:00Z</time>
</trkpt>
<trkpt lat="60.230809" lon="24.909437">
<time>2021-05-21T09:31:02Z</time>
</trkpt>
<trkpt lat="60.230824" lon="24.909591">
<time>2021-05-21T09:31:04Z</time>
</trkpt>
<trkpt lat="60.23084" lon="24.909739">
<time>2021-05-21T09:31:06Z</time>
</trkpt>
<trkpt lat="60.230855" lon="24.90989">
<time>2021-05-21T09:31:08Z</time>
</trkpt>
<trkpt lat="60.230881" lon="24.910051">
<time>2021-05-21T09:31:10Z</time>
</trkpt>
<trkpt lat="60.230901" lon="24.910215">
<time>2021-05-21T09:31:12Z</time>
</trkpt>
<trkpt lat="60.230932" lon="24.910371">
<time>2021-05-21T09:31:14Z</time>
</trkpt>
<trkpt lat="60.230963" lon="24.910515">
<time>2021-05-21T09:31:16Z</time>
</trkpt>
<trkpt lat="60.230993" lon="24.910666">
<time>2021-05-21T09:31:18Z</time>
</trkpt>
<trkpt lat="60.231019" lon="24.910812">
<time>2021-05-21T09:31:20Z</time>
</trkpt>
<trkpt lat="60.23106" lon="24.91096">
<time>2021-05-21T09:31:22Z</time>
</trkpt>
<trkpt lat="60.231106" lon="24.911101">
<time>2021-05-21T09:31:24Z</time>
</trkpt>
<trkpt lat="60.231152" lon="24.911229">
<time>2021-05-21T09:31:26Z</time>
</trkpt>
<trkpt lat="60.231198" lon="24.911349">
<time>2021-05-21T09:31:28Z</time>
</trkpt>
<trkpt lat="60.231249" lon="24.911462">
<time>2021-05-21T09:31:30Z</time>
</trkpt>
<trkpt lat="60.231301" lon="24.911577">
<time>2021-05-21T09:31:32Z</time>
</trkpt>
<trkpt lat="60.231321" lon="24.911708">
<time>2021-05-21T09:31:34Z</time>
</trkpt>
<trkpt lat="60.231316" lon="24.911859">
<time>2021-05-21T09:31:36Z</time>
</trkpt>
<trkpt lat="60.231301" lon="24.912012">
<time>2021-05-21T09:31:38Z</time>
</trkpt>
<trkpt lat="60.23129" lon="24.912148">
<time>2021-05-21T09:31:40Z</time>
</trkpt>
<trkpt lat="60.231306" lon="24.91224">
<time>2021-05-21T09:31:42Z</time>
</trkpt>
<trkpt lat="60.231347" lon="24.912337">
<time>2021-05-21T09:31:45Z</time>
</trkpt>
<trkpt lat="60.231393" lon="24.912414">
<time>2021-05-21T09:31:48Z</time>
</trkpt>
<trkpt lat="60.231444" lon="24.912486">
<time>2021-05-21T09:31:51Z</time>
</trkpt>
<trkpt lat="60.231505" lon="24.91257">
<time>2021-05-21T09:31:54Z</time>
</trkpt>
<trkpt lat="60.231562" lon="24.912619">
<time>2021-05-21T09:31:56Z</time>
</trkpt>
<trkpt lat="60.231633" lon="24.912622">
<time>2021-05-21T09:31:58Z</time>
</trkpt>
<trkpt lat="60.231705" lon="24.912591">
<time>2021-05-21T09:32:00Z</time>
</trkpt>
<trkpt lat="60.231782" lon="24.912545">
<time>2021-05-21T09:32:02Z</time>
</trkpt>
<trkpt lat="60.231874" lon="24.912496">
<time>2021-05-21T09:32:04Z</time>
</trkpt>
<trkpt lat="60.23192" lon="24.912471">
<time>2021-05-21T09:32:05Z</time>
</trkpt>
<trkpt lat="60.232017" lon="24.912419">
<time>2021-05-21T09:32:07Z</time>
</trkpt>
<trkpt lat="60.232064" lon="24.912401">
<time>2021-05-21T09:32:08Z</time>
</trkpt>
<trkpt lat="60.232156" lon="24.912378">
<time>2021-05-21T09:32:10Z</time>
</trkpt>
<trkpt lat="60.232248" lon="24.912373">
<time>2021-05-21T09:32:12Z</time>
</trkpt>
<trkpt lat="60.23234" lon="24.91236">
<time>2021-05-21T09:32:14Z</time>
</trkpt>
<trkpt lat="60.232437" lon="24.912327">
<time>2021-05-21T09:32:16Z</time>
</trkpt>
<trkpt lat="60.232529" lon="24.912248">
<time>2021-05-21T09:32:18Z</time>
</trkpt>
<trkpt lat="60.23257" lon="24.912194">
<time>2021-05-21T09:32:19Z</time>
</trkpt>
<trkpt lat="60.232606" lon="24.912128">
<time>2021-05-21T09:32:20Z</time>
</trkpt>
<trkpt lat="60.232688" lon="24.911992">
<time>2021-05-21T09:32:22Z</time>
</trkpt>
<trkpt lat="60.232729" lon="24.91192">
<time>2021-05-21T09:32:23Z</time>
</trkpt>
<trkpt lat="60.232765" lon="24.911856">
<time>2021-05-21T09:32:24Z</time>
</trkpt>
<trkpt lat="60.232832" lon="24.911746">
<time>2021-05-21T09:32:26Z</time>
</trkpt>
<trkpt lat="60.232878" lon="24.911646">
<time>2021-05-21T09:32:28Z</time>
</trkpt>
<trkpt lat="60.232903" lon="24.911546">
<time>2021-05-21T09:32:30Z</time>
</trkpt>
<trkpt lat="60.232919" lon="24.911444">
<time>2021-05-21T09:32:32Z</time>
</trkpt>
<trkpt lat="60.23297" lon="24.911316">
<time>2021-05-21T09:32:35Z</time>
</trkpt>
<trkpt lat="60.233011" lon="24.911237">
<time>2021-05-21T09:32:37Z</time>
</trkpt>
<trkpt lat="60.233057" lon="24.91116">
<time>2021-05-21T09:32:39Z</time>
</trkpt>
<trkpt lat="60.233098" lon="24.911065">
<time>2021-05-21T09:32:41Z</time>
</trkpt>
<trkpt lat="60.233128" lon="24.910958">
<time>2021-05-21T09:32:43Z</time>
</trkpt>
<trkpt lat="60.233159" lon="24.910858">
<time>2021-05-21T09:32:45Z</time>
</trkpt>
<trkpt lat="60.2332" lon="24.910786">
<time>2021-05-21T09:32:47Z</time>
</trkpt>
<trkpt lat="60.233256" lon="24.910743">
<time>2021-05-21T09:32:49Z</time>
</trkpt>
<trkpt lat="60.233328" lon="24.910696">
<time>2021-05-21T09:32:51Z</time>
</trkpt>
<trkpt lat="60.23341" lon="24.910645">
<time>2021-05-21T09:32:53Z</time>
</trkpt>
<trkpt lat="60.233492" lon="24.910561">
<time>2021-05-21T09:32:56Z</time>
</trkpt>
<trkpt lat="60.233564" lon="24.910474">
<time>2021-05-21T09:32:57Z</time>
</trkpt>
<trkpt lat="60.23364" lon="24.910389">
<time>2021-05-21T09:32:59Z</time>
</trkpt>
<trkpt lat="60.233712" lon="24.910297">
<time>2021-05-21T09:33:01Z</time>
</trkpt>
<trkpt lat="60.233779" lon="24.91021">
<time>2021-05-21T09:33:03Z</time>
</trkpt>
<trkpt lat="60.233845" lon="24.910141">
<time>2021-05-21T09:33:05Z</time>
</trkpt>
<trkpt lat="60.233907" lon="24.910085">
<time>2021-05-21T09:33:07Z</time>
</trkpt>
<trkpt lat="60.233958" lon="24.910051">
<time>2021-05-21T09:33:09Z</time>
</trkpt>
<trkpt lat="60.233999" lon="24.910023">
<time>2021-05-21T09:33:11Z</time>
</trkpt>
<trkpt lat="60.23406" lon="24.910023">
<time>2021-05-21T09:33:14Z</time>
</trkpt>
<trkpt lat="60.234101" lon="24.910118">
<time>2021-05-21T09:33:17Z</time>
</trkpt>
<trkpt lat="60.234132" lon="24.910208">
<time>2021-05-21T09:33:19Z</time>
</trkpt>
<trkpt lat="60.234193" lon="24.910256">
<time>2021-05-21T09:33:22Z</time>
</trkpt>
<trkpt lat="60.234255" lon="24.91019">
<time>2021-05-21T09:33:25Z</time>
</trkpt>
<trkpt lat="60.234296" lon="24.910105">
<time>2021-05-21T09:33:27Z</time>
</trkpt>
<trkpt lat="60.234321" lon="24.909987">
<time>2021-05-21T09:33:29Z</time>
</trkpt>
<trkpt lat="60.234342" lon="24.909852">
<time>2021-05-21T09:33:31Z</time>
</trkpt>
<trkpt lat="60.234347" lon="24.909708">
<time>2021-05-21T09:33:33Z</time>
</trkpt>
<trkpt lat="60.234357" lon="24.90956">
<time>2021-05-21T09:33:35Z</time>
</trkpt>
<trkpt lat="60.234373" lon="24.909406">
<time>2021-05-21T09:33:37Z</time>
</trkpt>
<trkpt lat="60.234393" lon="24.909283">
<time>2021-05-21T09:33:39Z</time>
</trkpt>
<trkpt lat="60.234419" lon="24.909207">
<time>2021-05-21T09:33:41Z</time>
</trkpt>
<trkpt lat="60.23448" lon="24.909214">
<time>2021-05-21T09:33:45Z</time>
</trkpt>
<trkpt lat="60.234547" lon="24.909288">
<time>2021-05-21T09:33:48Z</time>
</trkpt>
<trkpt lat="60.234598" lon="24.909319">
<time>2021-05-21T09:33:50Z</time>
</trkpt>
<trkpt lat="60.234659" lon="24.909304">
<time>2021-05-21T09:33:52Z</time>
</trkpt>
<trkpt lat="60.2347" lon="24.90926">
<time>2021-05-21T09:33:54Z</time>
</trkpt>
<trkpt lat="60.234731" lon="24.909158">
<time>2021-05-21T09:33:57Z</time>
</trkpt>
<trkpt lat="60.234772" lon="24.909066">
<time>2021-05-21T09:34:00Z</time>
</trkpt>
<trkpt lat="60.234833" lon="24.908989">
<time>2021-05-21T09:34:03Z</time>
</trkpt>
<trkpt lat="60.23488" lon="24.908961">
<time>2021-05-21T09:34:05Z</time>
</trkpt>
<trkpt lat="60.234956" lon="24.908938">
<time>2021-05-21T09:34:08Z</time>
</trkpt>
<trkpt lat="60.235018" lon="24.908897">
<time>2021-05-21T09:34:10Z</time>
</trkpt>
<trkpt lat="60.235074" lon="24.908856">
<time>2021-05-21T09:34:12Z</time>
</trkpt>
<trkpt lat="60.235125" lon="24.908835">
<time>2021-05-21T09:34:14Z</time>
</trkpt>
<trkpt lat="60.235212" lon="24.908856">
<time>2021-05-21T09:34:17Z</time>
</trkpt>
<trkpt lat="60.235269" lon="24.908897">
<time>2021-05-21T09:34:20Z</time>
</trkpt>
<trkpt lat="60.235422" lon="24.908953">
<time>2021-05-21T09:34:46Z</time>
</trkpt>
<trkpt lat="60.235479" lon="24.908912">
<time>2021-05-21T09:34:49Z</time>
</trkpt>
<trkpt lat="60.235535" lon="24.908884">
<time>2021-05-21T09:34:51Z</time>
</trkpt>
<trkpt lat="60.235591" lon="24.908828">
<time>2021-05-21T09:34:53Z</time>
</trkpt>
<trkpt lat="60.235642" lon="24.908741">
<time>2021-05-21T09:34:55Z</time>
</trkpt>
<trkpt lat="60.235678" lon="24.908643">
<time>2021-05-21T09:34:57Z</time>
</trkpt>
<trkpt lat="60.235709" lon="24.908564">
<time>2021-05-21T09:34:59Z</time>
</trkpt>
<trkpt lat="60.23575" lon="24.908518">
<time>2021-05-21T09:35:02Z</time>
</trkpt>
<trkpt lat="60.235806" lon="24.908508">
<time>2021-05-21T09:35:05Z</time>
</trkpt>
<trkpt lat="60.235842" lon="24.908431">
<time>2021-05-21T09:35:09Z</time>
</trkpt>
<trkpt lat="60.235837" lon="24.908305">
<time>2021-05-21T09:35:12Z</time>
</trkpt>
<trkpt lat="60.235842" lon="24.90819">
<time>2021-05-21T09:35:14Z</time>
</trkpt>
<trkpt lat="60.235857" lon="24.908057">
<time>2021-05-21T09:35:16Z</time>
</trkpt>
<trkpt lat="60.235888" lon="24.907937">
<time>2021-05-21T09:35:18Z</time>
</trkpt>
<trkpt lat="60.235939" lon="24.907824">
<time>2021-05-21T09:35:20Z</time>
</trkpt>
<trkpt lat="60.236001" lon="24.907696">
<time>2021-05-21T09:35:22Z</time>
</trkpt>
<trkpt lat="60.236062" lon="24.907558">
<time>2021-05-21T09:35:24Z</time>
</trkpt>
<trkpt lat="60.236108" lon="24.907415">
<time>2021-05-21T09:35:26Z</time>
</trkpt>
<trkpt lat="60.236139" lon="24.907256">
<time>2021-05-21T09:35:28Z</time>
</trkpt>
<trkpt lat="60.236154" lon="24.907087">
<time>2021-05-21T09:35:30Z</time>
</trkpt>
<trkpt lat="60.236154" lon="24.906913">
<time>2021-05-21T09:35:32Z</time>
</trkpt>
<trkpt lat="60.236124" lon="24.906762">
<time>2021-05-21T09:35:34Z</time>
</trkpt>
<trkpt lat="60.236078" lon="24.906629">
<time>2021-05-21T09:35:36Z</time>
</trkpt>
<trkpt lat="60.236016" lon="24.906524">
<time>2021-05-21T09:35:38Z</time>
</trkpt>
<trkpt lat="60.235944" lon="24.906447">
<time>2021-05-21T09:35:40Z</time>
</trkpt>
<trkpt lat="60.235868" lon="24.906383">
<time>2021-05-21T09:35:42Z</time>
</trkpt>
<trkpt lat="60.235796" lon="24.906321">
<time>2021-05-21T09:35:44Z</time>
</trkpt>
<trkpt lat="60.235735" lon="24.906255">
<time>2021-05-21T09:35:46Z</time>
</trkpt>
<trkpt lat="60.235673" lon="24.906178">
<time>2021-05-21T09:35:48Z</time>
</trkpt>
<trkpt lat="60.235612" lon="24.906088">
<time>2021-05-21T09:35:50Z</time>
</trkpt>
<trkpt lat="60.235555" lon="24.905999">
<time>2021-05-21T09:35:52Z</time>
</trkpt>
<trkpt lat="60.235509" lon="24.905899">
<time>2021-05-21T09:35:54Z</time>
</trkpt>
<trkpt lat="60.235468" lon="24.905799">
<time>2021-05-21T09:35:56Z</time>
</trkpt>
<trkpt lat="60.235422" lon="24.90572">
<time>2021-05-21T09:35:58Z</time>
</trkpt>
<trkpt lat="60.235376" lon="24.905653">
<time>2021-05-21T09:36:00Z</time>
</trkpt>
<trkpt lat="60.235325" lon="24.905594">
<time>2021-05-21T09:36:02Z</time>
</trkpt>
<trkpt lat="60.235274" lon="24.905546">
<time>2021-05-21T09:36:04Z</time>
</trkpt>
<trkpt lat="60.235228" lon="24.905515">
<time>2021-05-21T09:36:06Z</time>
</trkpt>
<trkpt lat="60.235166" lon="24.905454">
<time>2021-05-21T09:36:09Z</time>
</trkpt>
<trkpt lat="60.235141" lon="24.905336">
<time>2021-05-21T09:36:12Z</time>
</trkpt>
<trkpt lat="60.235141" lon="24.905169">
<time>2021-05-21T09:36:15Z</time>
</trkpt>
<trkpt lat="60.235161" lon="24.904965">
<time>2021-05-21T09:36:18Z</time>
</trkpt>
<trkpt lat="60.235182" lon="24.904837">
<time>2021-05-21T09:36:20Z</time>
</trkpt>
<trkpt lat="60.235217" lon="24.904691">
<time>2021-05-21T09:36:22Z</time>
</trkpt>
<trkpt lat="60.235253" lon="24.904537">
<time>2021-05-21T09:36:24Z</time>
</trkpt>
<trkpt lat="60.235274" lon="24.904284">
<time>2021-05-21T09:36:27Z</time>
</trkpt>
<trkpt lat="60.235279" lon="24.90412">
<time>2021-05-21T09:36:29Z</time>
</trkpt>
<trkpt lat="60.235279" lon="24.903956">
<time>2021-05-21T09:36:31Z</time>
</trkpt>
<trkpt lat="60.235269" lon="24.903808">
<time>2021-05-21T09:36:33Z</time>
</trkpt>
<trkpt lat="60.235253" lon="24.90361">
<time>2021-05-21T09:36:36Z</time>
</trkpt>
<trkpt lat="60.235228" lon="24.903488">
<time>2021-05-21T09:36:38Z</time>
</trkpt>
<trkpt lat="60.235212" lon="24.903349">
<time>2021-05-21T09:36:40Z</time>
</trkpt>
<trkpt lat="60.235192" lon="24.903201">
<time>2021-05-21T09:36:42Z</time>
</trkpt>
<trkpt lat="60.235182" lon="24.903042">
<time>2021-05-21T09:36:44Z</time>
</trkpt>
<trkpt lat="60.235166" lon="24.902881">
<time>2021-05-21T09:36:46Z</time>
</trkpt>
<trkpt lat="60.235146" lon="24.902712">
<time>2021-05-21T09:36:48Z</time>
</trkpt>
<trkpt lat="60.23511" lon="24.902535">
<time>2021-05-21T09:36:50Z</time>
</trkpt>
<trkpt lat="60.235059" lon="24.902384">
<time>2021-05-21T09:36:52Z</time>
</trkpt>
<trkpt lat="60.234992" lon="24.902277">
<time>2021-05-21T09:36:54Z</time>
</trkpt>
<trkpt lat="60.23491" lon="24.902231">
<time>2021-05-21T09:36:56Z</time>
</trkpt>
<trkpt lat="60.234828" lon="24.902241">
<time>2021-05-21T09:36:58Z</time>
</trkpt>
<trkpt lat="60.234762" lon="24.902284">
<time>2021-05-21T09:37:00Z</time>
</trkpt>
<trkpt lat="60.234705" lon="24.902341">
<time>2021-05-21T09:37:02Z</time>
</trkpt>
<trkpt lat="60.234654" lon="24.902405">
<time>2021-05-21T09:37:04Z</time>
</trkpt>
<trkpt lat="60.234608" lon="24.902469">
<time>2021-05-21T09:37:06Z</time>
</trkpt>
<trkpt lat="60.234557" lon="24.90253">
<time>2021-05-21T09:37:08Z</time>
</trkpt>
<trkpt lat="60.234506" lon="24.902571">
<time>2021-05-21T09:37:10Z</time>
</trkpt>
<trkpt lat="60.234449" lon="24.902586">
<time>2021-05-21T09:37:12Z</time>
</trkpt>
<trkpt lat="60.234378" lon="24.902584">
<time>2021-05-21T09:37:14Z</time>
</trkpt>
<trkpt lat="60.234311" lon="24.902579">
<time>2021-05-21T09:37:16Z</time>
</trkpt>
<trkpt lat="60.234234" lon="24.902586">
<time>2021-05-21T09:37:18Z</time>
</trkpt>
<trkpt lat="60.234152" lon="24.902602">
<time>2021-05-21T09:37:20Z</time>
</trkpt>
<trkpt lat="60.234065" lon="24.90262">
<time>2021-05-21T09:37:22Z</time>
</trkpt>
<trkpt lat="60.233973" lon="24.902632">
<time>2021-05-21T09:37:24Z</time>
</trkpt>
<trkpt lat="60.233891" lon="24.902643">
<time>2021-05-21T09:37:26Z</time>
</trkpt>
<trkpt lat="60.233809" lon="24.902668">
<time>2021-05-21T09:37:28Z</time>
</trkpt>
<trkpt lat="60.233728" lon="24.902732">
<time>2021-05-21T09:37:30Z</time>
</trkpt>
<trkpt lat="60.233646" lon="24.902812">
<time>2021-05-21T09:37:32Z</time>
</trkpt>
<trkpt lat="60.233605" lon="24.902855">
<time>2021-05-21T09:37:33Z</time>
</trkpt>
<trkpt lat="60.233507" lon="24.90294">
<time>2021-05-21T09:37:35Z</time>
</trkpt>
<trkpt lat="60.233461" lon="24.902976">
<time>2021-05-21T09:37:36Z</time>
</trkpt>
<trkpt lat="60.233415" lon="24.903019">
<time>2021-05-21T09:37:37Z</time>
</trkpt>
<trkpt lat="60.233369" lon="24.903057">
<time>2021-05-21T09:37:38Z</time>
</trkpt>
<trkpt lat="60.233282" lon="24.903116">
<time>2021-05-21T09:37:40Z</time>
</trkpt>
<trkpt lat="60.233231" lon="24.903139">
<time>2021-05-21T09:37:41Z</time>
</trkpt>
<trkpt lat="60.233128" lon="24.903162">
<time>2021-05-21T09:37:43Z</time>
</trkpt>
<trkpt lat="60.233041" lon="24.903152">
<time>2021-05-21T09:37:45Z</time>
</trkpt>
<trkpt lat="60.232965" lon="24.903091">
<time>2021-05-21T09:37:47Z</time>
</trkpt>
<trkpt lat="60.232903" lon="24.902986">
<time>2021-05-21T09:37:49Z</time>
</trkpt>
<trkpt lat="60.232847" lon="24.902883">
<time>2021-05-21T09:37:51Z</time>
</trkpt>
<trkpt lat="60.232801" lon="24.90283">
<time>2021-05-21T09:37:53Z</time>
</trkpt>
<trkpt lat="60.23275" lon="24.902819">
<time>2021-05-21T09:37:55Z</time>
</trkpt>
<trkpt lat="60.232704" lon="24.902827">
<time>2021-05-21T09:37:57Z</time>
</trkpt>
<trkpt lat="60.232673" lon="24.90285">
<time>2021-05-21T09:38:01Z</time>
</trkpt>
<trkpt lat="60.232765" lon="24.902768">
<time>2021-05-21T09:38:06Z</time>
</trkpt>
<trkpt lat="60.232826" lon="24.902704">
<time>2021-05-21T09:38:08Z</time>
</trkpt>
<trkpt lat="60.232888" lon="24.90264">
<time>2021-05-21T09:38:10Z</time>
</trkpt>
<trkpt lat="60.232939" lon="24.90254">
<time>2021-05-21T09:38:12Z</time>
</trkpt>
<trkpt lat="60.232965" lon="24.902423">
<time>2021-05-21T09:38:14Z</time>
</trkpt>
<trkpt lat="60.232954" lon="24.902295">
<time>2021-05-21T09:38:16Z</time>
</trkpt>
<trkpt lat="60.232934" lon="24.902151">
<time>2021-05-21T09:38:18Z</time>
</trkpt>
<trkpt lat="60.232908" lon="24.901998">
<time>2021-05-21T09:38:20Z</time>
</trkpt>
<trkpt lat="60.232872" lon="24.901839">
<time>2021-05-21T09:38:22Z</time>
</trkpt>
<trkpt lat="60.232832" lon="24.901683">
<time>2021-05-21T09:38:24Z</time>
</trkpt>
<trkpt lat="60.232796" lon="24.901547">
<time>2021-05-21T09:38:26Z</time>
</trkpt>
<trkpt lat="60.23277" lon="24.901432">
<time>2021-05-21T09:38:28Z</time>
</trkpt>
<trkpt lat="60.232744" lon="24.901314">
<time>2021-05-21T09:38:30Z</time>
</trkpt>
<trkpt lat="60.232729" lon="24.901191">
<time>2021-05-21T09:38:32Z</time>
</trkpt>
<trkpt lat="60.232729" lon="24.901066">
<time>2021-05-21T09:38:34Z</time>
</trkpt>
<trkpt lat="60.23275" lon="24.900917">
<time>2021-05-21T09:38:36Z</time>
</trkpt>
<trkpt lat="60.232801" lon="24.900769">
<time>2021-05-21T09:38:38Z</time>
</trkpt>
<trkpt lat="60.232867" lon="24.900625">
<time>2021-05-21T09:38:40Z</time>
</trkpt>
<trkpt lat="60.232903" lon="24.900554">
<time>2021-05-21T09:38:41Z</time>
</trkpt>
<trkpt lat="60.232965" lon="24.900403">
<time>2021-05-21T09:38:43Z</time>
</trkpt>
<trkpt lat="60.233031" lon="24.900231">
<time>2021-05-21T09:38:45Z</time>
</trkpt>
<trkpt lat="60.233062" lon="24.900147">
<time>2021-05-21T09:38:46Z</time>
</trkpt>
<trkpt lat="60.233088" lon="24.90006">
<time>2021-05-21T09:38:47Z</time>
</trkpt>
<trkpt lat="60.233113" lon="24.89998">
<time>2021-05-21T09:38:48Z</time>
</trkpt>
<trkpt lat="60.233159" lon="24.899852">
<time>2021-05-21T09:38:50Z</time>
</trkpt>
<trkpt lat="60.233175" lon="24.89975">
<time>2021-05-21T09:38:52Z</time>
</trkpt>
<trkpt lat="60.233139" lon="24.899604">
<time>2021-05-21T09:38:55Z</time>
</trkpt>
<trkpt lat="60.233088" lon="24.899512">
<time>2021-05-21T09:38:57Z</time>
</trkpt>
<trkpt lat="60.233041" lon="24.899412">
<time>2021-05-21T09:38:59Z</time>
</trkpt>
<trkpt lat="60.232985" lon="24.899315">
<time>2021-05-21T09:39:01Z</time>
</trkpt>
<trkpt lat="60.232924" lon="24.899212">
<time>2021-05-21T09:39:03Z</time>
</trkpt>
<trkpt lat="60.232867" lon="24.899107">
<time>2021-05-21T09:39:05Z</time>
</trkpt>
<trkpt lat="60.232801" lon="24.898979">
<time>2021-05-21T09:39:07Z</time>
</trkpt>
<trkpt lat="60.23277" lon="24.8989">
<time>2021-05-21T09:39:08Z</time>
</trkpt>
<trkpt lat="60.232698" lon="24.898744">
<time>2021-05-21T09:39:10Z</time>
</trkpt>
<trkpt lat="60.232663" lon="24.898672">
<time>2021-05-21T09:39:11Z</time>
</trkpt>
<trkpt lat="60.232622" lon="24.898603">
<time>2021-05-21T09:39:12Z</time>
</trkpt>
<trkpt lat="60.23255" lon="24.898496">
<time>2021-05-21T09:39:14Z</time>
</trkpt>
<trkpt lat="60.232473" lon="24.898419">
<time>2021-05-21T09:39:16Z</time>
</trkpt>
<trkpt lat="60.232381" lon="24.898368">
<time>2021-05-21T09:39:18Z</time>
</trkpt>
<trkpt lat="60.232294" lon="24.898344">
<time>2021-05-21T09:39:20Z</time>
</trkpt>
<trkpt lat="60.232202" lon="24.898344">
<time>2021-05-21T09:39:22Z</time>
</trkpt>
<trkpt lat="60.232115" lon="24.898368">
<time>2021-05-21T09:39:24Z</time>
</trkpt>
<trkpt lat="60.232048" lon="24.898396">
<time>2021-05-21T09:39:26Z</time>
</trkpt>
<trkpt lat="60.231992" lon="24.898411">
<time>2021-05-21T09:39:28Z</time>
</trkpt>
<trkpt lat="60.231946" lon="24.898393">
<time>2021-05-21T09:39:31Z</time>
</trkpt>
<trkpt lat="60.231889" lon="24.898347">
<time>2021-05-21T09:39:34Z</time>
</trkpt>
<trkpt lat="60.231813" lon="24.898298">
<time>2021-05-21T09:39:38Z</time>
</trkpt>
<trkpt lat="60.231751" lon="24.898255">
<time>2021-05-21T09:39:39Z</time>
</trkpt>
<trkpt lat="60.23168" lon="24.898211">
<time>2021-05-21T09:39:41Z</time>
</trkpt>
<trkpt lat="60.231598" lon="24.898173">
<time>2021-05-21T09:39:43Z</time>
</trkpt>
<trkpt lat="60.231521" lon="24.89815">
<time>2021-05-21T09:39:45Z</time>
</trkpt>
<trkpt lat="60.231439" lon="24.898142">
<time>2021-05-21T09:39:47Z</time>
</trkpt>
<trkpt lat="60.231357" lon="24.898142">
<time>2021-05-21T09:39:49Z</time>
</trkpt>
<trkpt lat="60.231275" lon="24.898142">
<time>2021-05-21T09:39:52Z</time>
</trkpt>
<trkpt lat="60.231203" lon="24.89814">
<time>2021-05-21T09:39:53Z</time>
</trkpt>
<trkpt lat="60.231132" lon="24.89815">
<time>2021-05-21T09:39:55Z</time>
</trkpt>
<trkpt lat="60.23106" lon="24.898173">
<time>2021-05-21T09:39:57Z</time>
</trkpt>
<trkpt lat="60.230978" lon="24.898206">
<time>2021-05-21T09:39:59Z</time>
</trkpt>
<trkpt lat="60.230891" lon="24.898247">
<time>2021-05-21T09:40:01Z</time>
</trkpt>
<trkpt lat="60.230799" lon="24.898296">
<time>2021-05-21T09:40:03Z</time>
</trkpt>
<trkpt lat="60.230691" lon="24.89836">
<time>2021-05-21T09:40:05Z</time>
</trkpt>
<trkpt lat="60.230645" lon="24.898398">
<time>2021-05-21T09:40:06Z</time>
</trkpt>
<trkpt lat="60.230594" lon="24.898434">
<time>2021-05-21T09:40:07Z</time>
</trkpt>
<trkpt lat="60.230502" lon="24.898552">
<time>2021-05-21T09:40:09Z</time>
</trkpt>
<trkpt lat="60.23043" lon="24.898705">
<time>2021-05-21T09:40:11Z</time>
</trkpt>
<trkpt lat="60.2304" lon="24.898782">
<time>2021-05-21T09:40:12Z</time>
</trkpt>
<trkpt lat="60.230369" lon="24.898869">
<time>2021-05-21T09:40:13Z</time>
</trkpt>
<trkpt lat="60.230343" lon="24.898959">
<time>2021-05-21T09:40:14Z</time>
</trkpt>
<trkpt lat="60.230302" lon="24.899128">
<time>2021-05-21T09:40:16Z</time>
</trkpt>
<trkpt lat="60.230256" lon="24.899276">
<time>2021-05-21T09:40:18Z</time>
</trkpt>
<trkpt lat="60.2302" lon="24.899422">
<time>2021-05-21T09:40:20Z</time>
</trkpt>
<trkpt lat="60.230154" lon="24.899581">
<time>2021-05-21T09:40:22Z</time>
</trkpt>
<trkpt lat="60.230133" lon="24.899763">
<time>2021-05-21T09:40:24Z</time>
</trkpt>
<trkpt lat="60.230123" lon="24.899957">
<time>2021-05-21T09:40:26Z</time>
</trkpt>
<trkpt lat="60.230118" lon="24.900175">
<time>2021-05-21T09:40:28Z</time>
</trkpt>
<trkpt lat="60.230118" lon="24.900282">
<time>2021-05-21T09:40:29Z</time>
</trkpt>
<trkpt lat="60.230123" lon="24.900392">
<time>2021-05-21T09:40:30Z</time>
</trkpt>
<trkpt lat="60.230128" lon="24.900495">
<time>2021-05-21T09:40:31Z</time>
</trkpt>
<trkpt lat="60.230144" lon="24.900582">
<time>2021-05-21T09:40:32Z</time>
</trkpt>
<trkpt lat="60.2302" lon="24.900695">
<time>2021-05-21T09:40:34Z</time>
</trkpt>
<trkpt lat="60.230272" lon="24.900728">
<time>2021-05-21T09:40:36Z</time>
</trkpt>
<trkpt lat="60.230359" lon="24.90072">
<time>2021-05-21T09:40:38Z</time>
</trkpt>
<trkpt lat="60.230446" lon="24.90071">
<time>2021-05-21T09:40:40Z</time>
</trkpt>
<trkpt lat="60.230543" lon="24.900692">
<time>2021-05-21T09:40:42Z</time>
</trkpt>
<trkpt lat="60.23064" lon="24.900682">
<time>2021-05-21T09:40:44Z</time>
</trkpt>
<trkpt lat="60.230737" lon="24.900674">
<time>2021-05-21T09:40:46Z</time>
</trkpt>
<trkpt lat="60.230789" lon="24.900679">
<time>2021-05-21T09:40:47Z</time>
</trkpt>
<trkpt lat="60.23084" lon="24.900695">
<time>2021-05-21T09:40:48Z</time>
</trkpt>
<trkpt lat="60.230891" lon="24.900723">
<time>2021-05-21T09:40:49Z</time>
</trkpt>
<trkpt lat="60.230988" lon="24.90081">
<time>2021-05-21T09:40:51Z</time>
</trkpt>
<trkpt lat="60.231034" lon="24.900861">
<time>2021-05-21T09:40:52Z</time>
</trkpt>
<trkpt lat="60.231111" lon="24.901002">
<time>2021-05-21T09:40:54Z</time>
</trkpt>
<trkpt lat="60.231147" lon="24.901099">
<time>2021-05-21T09:40:55Z</time>
</trkpt>
<trkpt lat="60.231178" lon="24.901196">
<time>2021-05-21T09:40:56Z</time>
</trkpt>
<trkpt lat="60.231203" lon="24.901309">
<time>2021-05-21T09:40:57Z</time>
</trkpt>
<trkpt lat="60.231229" lon="24.901437">
<time>2021-05-21T09:40:58Z</time>
</trkpt>
<trkpt lat="60.231244" lon="24.901568">
<time>2021-05-21T09:40:59Z</time>
</trkpt>
<trkpt lat="60.231249" lon="24.901688">
<time>2021-05-21T09:41:00Z</time>
</trkpt>
<trkpt lat="60.231255" lon="24.9018">
<time>2021-05-21T09:41:01Z</time>
</trkpt>
<trkpt lat="60.231255" lon="24.901905">
<time>2021-05-21T09:41:02Z</time>
</trkpt>
<trkpt lat="60.23126" lon="24.901987">
<time>2021-05-21T09:41:03Z</time>
</trkpt>
<trkpt lat="60.23129" lon="24.902087">
<time>2021-05-21T09:41:05Z</time>
</trkpt>
<trkpt lat="60.231352" lon="24.902123">
<time>2021-05-21T09:41:07Z</time>
</trkpt>
<trkpt lat="60.231424" lon="24.902103">
<time>2021-05-21T09:41:09Z</time>
</trkpt>
<trkpt lat="60.231516" lon="24.902041">
<time>2021-05-21T09:41:11Z</time>
</trkpt>
<trkpt lat="60.231598" lon="24.901959">
<time>2021-05-21T09:41:13Z</time>
</trkpt>
<trkpt lat="60.231674" lon="24.901867">
<time>2021-05-21T09:41:15Z</time>
</trkpt>
<trkpt lat="60.231751" lon="24.901757">
<time>2021-05-21T09:41:17Z</time>
</trkpt>
<trkpt lat="60.231823" lon="24.901644">
<time>2021-05-21T09:41:19Z</time>
</trkpt>
<trkpt lat="60.231859" lon="24.901593">
<time>2021-05-21T09:41:20Z</time>
</trkpt>
<trkpt lat="60.23193" lon="24.901501">
<time>2021-05-21T09:41:22Z</time>
</trkpt>
<trkpt lat="60.231997" lon="24.901414">
<time>2021-05-21T09:41:24Z</time>
</trkpt>
<trkpt lat="60.232069" lon="24.901335">
<time>2021-05-21T09:41:26Z</time>
</trkpt>
<trkpt lat="60.23213" lon="24.901276">
<time>2021-05-21T09:41:28Z</time>
</trkpt>
<trkpt lat="60.232186" lon="24.901232">
<time>2021-05-21T09:41:30Z</time>
</trkpt>
<trkpt lat="60.232243" lon="24.901204">
<time>2021-05-21T09:41:32Z</time>
</trkpt>
<trkpt lat="60.232299" lon="24.901201">
<time>2021-05-21T09:41:34Z</time>
</trkpt>
<trkpt lat="60.23235" lon="24.901219">
<time>2021-05-21T09:41:36Z</time>
</trkpt>
<trkpt lat="60.232422" lon="24.901258">
<time>2021-05-21T09:41:39Z</time>
</trkpt>
<trkpt lat="60.232473" lon="24.901294">
<time>2021-05-21T09:41:41Z</time>
</trkpt>
<trkpt lat="60.232519" lon="24.90134">
<time>2021-05-21T09:41:43Z</time>
</trkpt>
<trkpt lat="60.232565" lon="24.901386">
<time>2021-05-21T09:41:45Z</time>
</trkpt>
<trkpt lat="60.232611" lon="24.901434">
<time>2021-05-21T09:41:47Z</time>
</trkpt>
<trkpt lat="60.232663" lon="24.90148">
<time>2021-05-21T09:41:49Z</time>
</trkpt>
<trkpt lat="60.232714" lon="24.90147">
<time>2021-05-21T09:41:52Z</time>
</trkpt>
<trkpt lat="60.232719" lon="24.901312">
<time>2021-05-21T09:41:56Z</time>
</trkpt>
<trkpt lat="60.232698" lon="24.901181">
<time>2021-05-21T09:41:58Z</time>
</trkpt>
<trkpt lat="60.232657" lon="24.901015">
<time>2021-05-21T09:42:00Z</time>
</trkpt>
<trkpt lat="60.232637" lon="24.900922">
<time>2021-05-21T09:42:01Z</time>
</trkpt>
<trkpt lat="60.232576" lon="24.900733">
<time>2021-05-21T09:42:03Z</time>
</trkpt>
<trkpt lat="60.232545" lon="24.900633">
<time>2021-05-21T09:42:04Z</time>
</trkpt>
<trkpt lat="60.232504" lon="24.900531">
<time>2021-05-21T09:42:05Z</time>
</trkpt>
<trkpt lat="60.232453" lon="24.900433">
<time>2021-05-21T09:42:06Z</time>
</trkpt>
<trkpt lat="60.232401" lon="24.900341">
<time>2021-05-21T09:42:07Z</time>
</trkpt>
<trkpt lat="60.23235" lon="24.900241">
<time>2021-05-21T09:42:08Z</time>
</trkpt>
<trkpt lat="60.232299" lon="24.900129">
<time>2021-05-21T09:42:09Z</time>
</trkpt>
<trkpt lat="60.232253" lon="24.900014">
<time>2021-05-21T09:42:10Z</time>
</trkpt>
<trkpt lat="60.232207" lon="24.899896">
<time>2021-05-21T09:42:11Z</time>
</trkpt>
<trkpt lat="60.232171" lon="24.899778">
<time>2021-05-21T09:42:12Z</time>
</trkpt>
<trkpt lat="60.23214" lon="24.899663">
<time>2021-05-21T09:42:13Z</time>
</trkpt>
<trkpt lat="60.232115" lon="24.89955">
<time>2021-05-21T09:42:14Z</time>
</trkpt>
<trkpt lat="60.232089" lon="24.899445">
<time>2021-05-21T09:42:15Z</time>
</trkpt>
<trkpt lat="60.232069" lon="24.899335">
<time>2021-05-21T09:42:16Z</time>
</trkpt>
<trkpt lat="60.232053" lon="24.899228">
<time>2021-05-21T09:42:17Z</time>
</trkpt>
<trkpt lat="60.232038" lon="24.89913">
<time>2021-05-21T09:42:18Z</time>
</trkpt>
<trkpt lat="60.232012" lon="24.898928">
<time>2021-05-21T09:42:20Z</time>
</trkpt>
<trkpt lat="60.231997" lon="24.898831">
<time>2021-05-21T09:42:21Z</time>
</trkpt>
<trkpt lat="60.231982" lon="24.898739">
<time>2021-05-21T09:42:22Z</time>
</trkpt>
<trkpt lat="60.231946" lon="24.898588">
<time>2021-05-21T09:42:24Z</time>
</trkpt>
<trkpt lat="60.231889" lon="24.898465">
<time>2021-05-21T09:42:26Z</time>
</trkpt>
<trkpt lat="60.231813" lon="24.898378">
<time>2021-05-21T09:42:28Z</time>
</trkpt>
<trkpt lat="60.23168" lon="24.898275">
<time>2021-05-21T09:42:31Z</time>
</trkpt>
<trkpt lat="60.231546" lon="24.898191">
<time>2021-05-21T09:42:34Z</time>
</trkpt>
<trkpt lat="60.231444" lon="24.898152">
<time>2021-05-21T09:42:36Z</time>
</trkpt>
<trkpt lat="60.231347" lon="24.898129">
<time>2021-05-21T09:42:38Z</time>
</trkpt>
<trkpt lat="60.231244" lon="24.898122">
<time>2021-05-21T09:42:40Z</time>
</trkpt>
<trkpt lat="60.231111" lon="24.898119">
<time>2021-05-21T09:42:43Z</time>
</trkpt>
<trkpt lat="60.231019" lon="24.898135">
<time>2021-05-21T09:42:45Z</time>
</trkpt>
<trkpt lat="60.230917" lon="24.898165">
<time>2021-05-21T09:42:47Z</time>
</trkpt>
<trkpt lat="60.230871" lon="24.898188">
<time>2021-05-21T09:42:48Z</time>
</trkpt>
<trkpt lat="60.230824" lon="24.898216">
<time>2021-05-21T09:42:49Z</time>
</trkpt>
<trkpt lat="60.230661" lon="24.898314">
<time>2021-05-21T09:42:52Z</time>
</trkpt>
<trkpt lat="60.230604" lon="24.898355">
<time>2021-05-21T09:42:53Z</time>
</trkpt>
<trkpt lat="60.230543" lon="24.898398">
<time>2021-05-21T09:42:54Z</time>
</trkpt>
<trkpt lat="60.230492" lon="24.898439">
<time>2021-05-21T09:42:55Z</time>
</trkpt>
<trkpt lat="60.230435" lon="24.898483">
<time>2021-05-21T09:42:56Z</time>
</trkpt>
<trkpt lat="60.230379" lon="24.898519">
<time>2021-05-21T09:42:57Z</time>
</trkpt>
<trkpt lat="60.230323" lon="24.898542">
<time>2021-05-21T09:42:58Z</time>
</trkpt>
<trkpt lat="60.230272" lon="24.898549">
<time>2021-05-21T09:42:59Z</time>
</trkpt>
<trkpt lat="60.230215" lon="24.898539">
<time>2021-05-21T09:43:00Z</time>
</trkpt>
<trkpt lat="60.230169" lon="24.898521">
<time>2021-05-21T09:43:01Z</time>
</trkpt>
<trkpt lat="60.230092" lon="24.898511">
<time>2021-05-21T09:43:03Z</time>
</trkpt>
<trkpt lat="60.230046" lon="24.898565">
<time>2021-05-21T09:43:05Z</time>
</trkpt>
<trkpt lat="60.230026" lon="24.898708">
<time>2021-05-21T09:43:08Z</time>
</trkpt>
<trkpt lat="60.22999" lon="24.898803">
<time>2021-05-21T09:43:10Z</time>
</trkpt>
<trkpt lat="60.229928" lon="24.898882">
<time>2021-05-21T09:43:12Z</time>
</trkpt>
<trkpt lat="60.229847" lon="24.898933">
<time>2021-05-21T09:43:14Z</time>
</trkpt>
<trkpt lat="60.229754" lon="24.898959">
<time>2021-05-21T09:43:16Z</time>
</trkpt>
<trkpt lat="60.229652" lon="24.898961">
<time>2021-05-21T09:43:18Z</time>
</trkpt>
<trkpt lat="60.229606" lon="24.898959">
<time>2021-05-21T09:43:19Z</time>
</trkpt>
<trkpt lat="60.229519" lon="24.898944">
<time>2021-05-21T09:43:21Z</time>
</trkpt>
<trkpt lat="60.229452" lon="24.898928">
<time>2021-05-21T09:43:23Z</time>
</trkpt>
<trkpt lat="60.229401" lon="24.89892">
<time>2021-05-21T09:43:25Z</time>
</trkpt>
<trkpt lat="60.22934" lon="24.898913">
<time>2021-05-21T09:43:27Z</time>
</trkpt>
<trkpt lat="60.229263" lon="24.898905">
<time>2021-05-21T09:43:29Z</time>
</trkpt>
<trkpt lat="60.229186" lon="24.898885">
<time>2021-05-21T09:43:31Z</time>
</trkpt>
<trkpt lat="60.229125" lon="24.898869">
<time>2021-05-21T09:43:33Z</time>
</trkpt>
<trkpt lat="60.229084" lon="24.898885">
<time>2021-05-21T09:43:35Z</time>
</trkpt>
<trkpt lat="60.229053" lon="24.898982">
<time>2021-05-21T09:43:38Z</time>
</trkpt>
<trkpt lat="60.229032" lon="24.899074">
<time>2021-05-21T09:43:40Z</time>
</trkpt>
<trkpt lat="60.229002" lon="24.899171">
<time>2021-05-21T09:43:42Z</time>
</trkpt>
<trkpt lat="60.228956" lon="24.899289">
<time>2021-05-21T09:43:44Z</time>
</trkpt>
<trkpt lat="60.22891" lon="24.899417">
<time>2021-05-21T09:43:46Z</time>
</trkpt>
<trkpt lat="60.228879" lon="24.899563">
<time>2021-05-21T09:43:48Z</time>
</trkpt>
<trkpt lat="60.228864" lon="24.899735">
<time>2021-05-21T09:43:50Z</time>
</trkpt>
<trkpt lat="60.228869" lon="24.899932">
<time>2021-05-21T09:43:52Z</time>
</trkpt>
<trkpt lat="60.228899" lon="24.900139">
<time>2021-05-21T09:43:54Z</time>
</trkpt>
<trkpt lat="60.228925" lon="24.900247">
<time>2021-05-21T09:43:55Z</time>
</trkpt>
<trkpt lat="60.228951" lon="24.900357">
<time>2021-05-21T09:43:56Z</time>
</trkpt>
<trkpt lat="60.228976" lon="24.900467">
<time>2021-05-21T09:43:57Z</time>
</trkpt>
<trkpt lat="60.229002" lon="24.900579">
<time>2021-05-21T09:43:58Z</time>
</trkpt>
<trkpt lat="60.229027" lon="24.900684">
<time>2021-05-21T09:43:59Z</time>
</trkpt>
<trkpt lat="60.229053" lon="24.900787">
<time>2021-05-21T09:44:00Z</time>
</trkpt>
<trkpt lat="60.229079" lon="24.900899">
<time>2021-05-21T09:44:01Z</time>
</trkpt>
<trkpt lat="60.229099" lon="24.901009">
<time>2021-05-21T09:44:02Z</time>
</trkpt>
<trkpt lat="60.229104" lon="24.901122">
<time>2021-05-21T09:44:03Z</time>
</trkpt>
<trkpt lat="60.229104" lon="24.901227">
<time>2021-05-21T09:44:04Z</time>
</trkpt>
<trkpt lat="60.229089" lon="24.901319">
<time>2021-05-21T09:44:05Z</time>
</trkpt>
<trkpt lat="60.229032" lon="24.901483">
<time>2021-05-21T09:44:07Z</time>
</trkpt>
<trkpt lat="60.22894" lon="24.901621">
<time>2021-05-21T09:44:09Z</time>
</trkpt>
<trkpt lat="60.228884" lon="24.901685">
<time>2021-05-21T09:44:10Z</time>
</trkpt>
<trkpt lat="60.228828" lon="24.901744">
<time>2021-05-21T09:44:11Z</time>
</trkpt>
<trkpt lat="60.228766" lon="24.901803">
<time>2021-05-21T09:44:12Z</time>
</trkpt>
<trkpt lat="60.228705" lon="24.901862">
<time>2021-05-21T09:44:13Z</time>
</trkpt>
<trkpt lat="60.228643" lon="24.901916">
<time>2021-05-21T09:44:14Z</time>
</trkpt>
<trkpt lat="60.228582" lon="24.901972">
<time>2021-05-21T09:44:15Z</time>
</trkpt>
<trkpt lat="60.22851" lon="24.902026">
<time>2021-05-21T09:44:16Z</time>
</trkpt>
<trkpt lat="60.228449" lon="24.902077">
<time>2021-05-21T09:44:17Z</time>
</trkpt>
<trkpt lat="60.228382" lon="24.902131">
<time>2021-05-21T09:44:18Z</time>
</trkpt>
<trkpt lat="60.228316" lon="24.902182">
<time>2021-05-21T09:44:19Z</time>
</trkpt>
<trkpt lat="60.228249" lon="24.902236">
<time>2021-05-21T09:44:20Z</time>
</trkpt>
<trkpt lat="60.228188" lon="24.902284">
<time>2021-05-21T09:44:21Z</time>
</trkpt>
<trkpt lat="60.228116" lon="24.902336">
<time>2021-05-21T09:44:22Z</time>
</trkpt>
<trkpt lat="60.228044" lon="24.902384">
<time>2021-05-21T09:44:23Z</time>
</trkpt>
<trkpt lat="60.227983" lon="24.902438">
<time>2021-05-21T09:44:24Z</time>
</trkpt>
<trkpt lat="60.227921" lon="24.902489">
<time>2021-05-21T09:44:25Z</time>
</trkpt>
<trkpt lat="60.22785" lon="24.902548">
<time>2021-05-21T09:44:26Z</time>
</trkpt>
<trkpt lat="60.227783" lon="24.902607">
<time>2021-05-21T09:44:27Z</time>
</trkpt>
<trkpt lat="60.227712" lon="24.902663">
<time>2021-05-21T09:44:28Z</time>
</trkpt>
<trkpt lat="60.22765" lon="24.90272">
<time>2021-05-21T09:44:29Z</time>
</trkpt>
<trkpt lat="60.227584" lon="24.902773">
<time>2021-05-21T09:44:30Z</time>
</trkpt>
<trkpt lat="60.227522" lon="24.902817">
<time>2021-05-21T09:44:31Z</time>
</trkpt>
<trkpt lat="60.227466" lon="24.90284">
<time>2021-05-21T09:44:32Z</time>
</trkpt>
<trkpt lat="60.227415" lon="24.90284">
<time>2021-05-21T09:44:33Z</time>
</trkpt>
<trkpt lat="60.227363" lon="24.902819">
<time>2021-05-21T09:44:34Z</time>
</trkpt>
<trkpt lat="60.227287" lon="24.902709">
<time>2021-05-21T09:44:36Z</time>
</trkpt>
<trkpt lat="60.227256" lon="24.902632">
<time>2021-05-21T09:44:37Z</time>
</trkpt>
<trkpt lat="60.2272" lon="24.902451">
<time>2021-05-21T09:44:39Z</time>
</trkpt>
<trkpt lat="60.227174" lon="24.902356">
<time>2021-05-21T09:44:40Z</time>
</trkpt>
<trkpt lat="60.227159" lon="24.902261">
<time>2021-05-21T09:44:41Z</time>
</trkpt>
<trkpt lat="60.227138" lon="24.902164">
<time>2021-05-21T09:44:42Z</time>
</trkpt>
<trkpt lat="60.227102" lon="24.901967">
<time>2021-05-21T09:44:44Z</time>
</trkpt>
<trkpt lat="60.227082" lon="24.901867">
<time>2021-05-21T09:44:45Z</time>
</trkpt>
<trkpt lat="60.227061" lon="24.901765">
<time>2021-05-21T09:44:46Z</time>
</trkpt>
<trkpt lat="60.227041" lon="24.901667">
<time>2021-05-21T09:44:47Z</time>
</trkpt>
<trkpt lat="60.22702" lon="24.90157">
<time>2021-05-21T09:44:48Z</time>
</trkpt>
<trkpt lat="60.227" lon="24.90147">
<time>2021-05-21T09:44:49Z</time>
</trkpt>
<trkpt lat="60.226979" lon="24.901378">
<time>2021-05-21T09:44:51Z</time>
</trkpt>
<trkpt lat="60.226938" lon="24.901178">
<time>2021-05-21T09:44:52Z</time>
</trkpt>
<trkpt lat="60.226923" lon="24.901079">
<time>2021-05-21T09:44:53Z</time>
</trkpt>
<trkpt lat="60.226903" lon="24.900979">
<time>2021-05-21T09:44:54Z</time>
</trkpt>
<trkpt lat="60.226882" lon="24.900876">
<time>2021-05-21T09:44:55Z</time>
</trkpt>
<trkpt lat="60.226862" lon="24.900776">
<time>2021-05-21T09:44:56Z</time>
</trkpt>
<trkpt lat="60.226836" lon="24.900684">
<time>2021-05-21T09:44:57Z</time>
</trkpt>
<trkpt lat="60.226805" lon="24.900595">
<time>2021-05-21T09:44:58Z</time>
</trkpt>
<trkpt lat="60.22678" lon="24.900515">
<time>2021-05-21T09:44:59Z</time>
</trkpt>
<trkpt lat="60.226723" lon="24.900341">
<time>2021-05-21T09:45:01Z</time>
</trkpt>
<trkpt lat="60.226698" lon="24.900254">
<time>2021-05-21T09:45:02Z</time>
</trkpt>
<trkpt lat="60.226641" lon="24.900057">
<time>2021-05-21T09:45:04Z</time>
</trkpt>
<trkpt lat="60.226611" lon="24.899952">
<time>2021-05-21T09:45:05Z</time>
</trkpt>
<trkpt lat="60.226585" lon="24.89984">
<time>2021-05-21T09:45:06Z</time>
</trkpt>
<trkpt lat="60.22656" lon="24.899729">
<time>2021-05-21T09:45:07Z</time>
</trkpt>
<trkpt lat="60.226539" lon="24.899617">
<time>2021-05-21T09:45:08Z</time>
</trkpt>
<trkpt lat="60.226519" lon="24.899491">
<time>2021-05-21T09:45:09Z</time>
</trkpt>
<trkpt lat="60.226503" lon="24.899366">
<time>2021-05-21T09:45:10Z</time>
</trkpt>
<trkpt lat="60.226493" lon="24.899243">
<time>2021-05-21T09:45:11Z</time>
</trkpt>
<trkpt lat="60.226503" lon="24.89913">
<time>2021-05-21T09:45:12Z</time>
</trkpt>
<trkpt lat="60.226519" lon="24.899023">
<time>2021-05-21T09:45:13Z</time>
</trkpt>
<trkpt lat="60.226534" lon="24.89892">
<time>2021-05-21T09:45:14Z</time>
</trkpt>
<trkpt lat="60.22656" lon="24.898821">
<time>2021-05-21T09:45:15Z</time>
</trkpt>
<trkpt lat="60.22659" lon="24.898721">
<time>2021-05-21T09:45:16Z</time>
</trkpt>
<trkpt lat="60.226611" lon="24.898616">
<time>2021-05-21T09:45:17Z</time>
</trkpt>
<trkpt lat="60.226631" lon="24.898506">
<time>2021-05-21T09:45:18Z</time>
</trkpt>
<trkpt lat="60.226641" lon="24.898393">
<time>2021-05-21T09:45:19Z</time>
</trkpt>
<trkpt lat="60.226647" lon="24.898286">
<time>2021-05-21T09:45:20Z</time>
</trkpt>
<trkpt lat="60.226641" lon="24.898181">
<time>2021-05-21T09:45:21Z</time>
</trkpt>
<trkpt lat="60.226626" lon="24.898083">
<time>2021-05-21T09:45:22Z</time>
</trkpt>
<trkpt lat="60.226565" lon="24.897896">
<time>2021-05-21T09:45:24Z</time>
</trkpt>
<trkpt lat="60.226524" lon="24.897812">
<time>2021-05-21T09:45:25Z</time>
</trkpt>
<trkpt lat="60.226488" lon="24.897738">
<time>2021-05-21T09:45:26Z</time>
</trkpt>
<trkpt lat="60.226442" lon="24.897664">
<time>2021-05-21T09:45:27Z</time>
</trkpt>
<trkpt lat="60.226406" lon="24.897582">
<time>2021-05-21T09:45:28Z</time>
</trkpt>
<trkpt lat="60.22638" lon="24.8975">
<time>2021-05-21T09:45:29Z</time>
</trkpt>
<trkpt lat="60.226344" lon="24.89731">
<time>2021-05-21T09:45:31Z</time>
</trkpt>
<trkpt lat="60.226334" lon="24.897095">
<time>2021-05-21T09:45:33Z</time>
</trkpt>
<trkpt lat="60.226324" lon="24.89698">
<time>2021-05-21T09:45:34Z</time>
</trkpt>
<trkpt lat="60.226324" lon="24.896862">
<time>2021-05-21T09:45:35Z</time>
</trkpt>
<trkpt lat="60.226324" lon="24.896744">
<time>2021-05-21T09:45:36Z</time>
</trkpt>
<trkpt lat="60.226319" lon="24.896624">
<time>2021-05-21T09:45:37Z</time>
</trkpt>
<trkpt lat="60.226319" lon="24.896499">
<time>2021-05-21T09:45:38Z</time>
</trkpt>
<trkpt lat="60.226319" lon="24.896371">
<time>2021-05-21T09:45:39Z</time>
</trkpt>
<trkpt lat="60.226324" lon="24.896238">
<time>2021-05-21T09:45:40Z</time>
</trkpt>
<trkpt lat="60.226324" lon="24.89611">
<time>2021-05-21T09:45:41Z</time>
</trkpt>
<trkpt lat="60.226329" lon="24.896">
<time>2021-05-21T09:45:42Z</time>
</trkpt>
<trkpt lat="60.226334" lon="24.895897">
<time>2021-05-21T09:45:43Z</time>
</trkpt>
<trkpt lat="60.226334" lon="24.89581">
<time>2021-05-21T09:45:44Z</time>
</trkpt>
<trkpt lat="60.226334" lon="24.895669">
<time>2021-05-21T09:45:46Z</time>
</trkpt>
<trkpt lat="60.226309" lon="24.895541">
<time>2021-05-21T09:45:48Z</time>
</trkpt>
<trkpt lat="60.226288" lon="24.895411">
<time>2021-05-21T09:45:50Z</time>
</trkpt>
<trkpt lat="60.226273" lon="24.895252">
<time>2021-05-21T09:45:52Z</time>
</trkpt>
<trkpt lat="60.226263" lon="24.89506">
<time>2021-05-21T09:45:54Z</time>
</trkpt>
<trkpt lat="60.226237" lon="24.894848">
<time>2021-05-21T09:45:56Z</time>
</trkpt>
<trkpt lat="60.226222" lon="24.89474">
<time>2021-05-21T09:45:57Z</time>
</trkpt>
<trkpt lat="60.226201" lon="24.894635">
<time>2021-05-21T09:45:58Z</time>
</trkpt>
<trkpt lat="60.226176" lon="24.894525">
<time>2021-05-21T09:45:59Z</time>
</trkpt>
<trkpt lat="60.22615" lon="24.894417">
<time>2021-05-21T09:46:00Z</time>
</trkpt>
<trkpt lat="60.226124" lon="24.89431">
<time>2021-05-21T09:46:01Z</time>
</trkpt>
<trkpt lat="60.226094" lon="24.8942">
<time>2021-05-21T09:46:02Z</time>
</trkpt>
<trkpt lat="60.226063" lon="24.894095">
<time>2021-05-21T09:46:03Z</time>
</trkpt>
<trkpt lat="60.226037" lon="24.89399">
<time>2021-05-21T09:46:04Z</time>
</trkpt>
<trkpt lat="60.226012" lon="24.893882">
<time>2021-05-21T09:46:05Z</time>
</trkpt>
<trkpt lat="60.225991" lon="24.893772">
<time>2021-05-21T09:46:06Z</time>
</trkpt>
<trkpt lat="60.225976" lon="24.893662">
<time>2021-05-21T09:46:07Z</time>
</trkpt>
<trkpt lat="60.225966" lon="24.893555">
<time>2021-05-21T09:46:08Z</time>
</trkpt>
<trkpt lat="60.225955" lon="24.893447">
<time>2021-05-21T09:46:09Z</time>
</trkpt>
<trkpt lat="60.22595" lon="24.893347">
<time>2021-05-21T09:46:10Z</time>
</trkpt>
<trkpt lat="60.225945" lon="24.89325">
<time>2021-05-21T09:46:11Z</time>
</trkpt>
<trkpt lat="60.225935" lon="24.89316">
<time>2021-05-21T09:46:12Z</time>
</trkpt>
<trkpt lat="60.22592" lon="24.892989">
<time>2021-05-21T09:46:14Z</time>
</trkpt>
<trkpt lat="60.225904" lon="24.892815">
<time>2021-05-21T09:46:16Z</time>
</trkpt>
<trkpt lat="60.225894" lon="24.892651">
<time>2021-05-21T09:46:18Z</time>
</trkpt>
<trkpt lat="60.225873" lon="24.892487">
<time>2021-05-21T09:46:20Z</time>
</trkpt>
<trkpt lat="60.225853" lon="24.892316">
<time>2021-05-21T09:46:22Z</time>
</trkpt>
<trkpt lat="60.225812" lon="24.892124">
<time>2021-05-21T09:46:24Z</time>
</trkpt>
<trkpt lat="60.225792" lon="24.892024">
<time>2021-05-21T09:46:25Z</time>
</trkpt>
<trkpt lat="60.225771" lon="24.891919">
<time>2021-05-21T09:46:26Z</time>
</trkpt>
<trkpt lat="60.22574" lon="24.891819">
<time>2021-05-21T09:46:27Z</time>
</trkpt>
<trkpt lat="60.22571" lon="24.891719">
<time>2021-05-21T09:46:28Z</time>
</trkpt>
<trkpt lat="60.225674" lon="24.891622">
<time>2021-05-21T09:46:29Z</time>
</trkpt>
<trkpt lat="60.225633" lon="24.891522">
<time>2021-05-21T09:46:30Z</time>
</trkpt>
<trkpt lat="60.225602" lon="24.891409">
<time>2021-05-21T09:46:31Z</time>
</trkpt>
<trkpt lat="60.225582" lon="24.891297">
<time>2021-05-21T09:46:32Z</time>
</trkpt>
<trkpt lat="60.225571" lon="24.891184">
<time>2021-05-21T09:46:33Z</time>
</trkpt>
<trkpt lat="60.225571" lon="24.891072">
<time>2021-05-21T09:46:34Z</time>
</trkpt>
<trkpt lat="60.225576" lon="24.890956">
<time>2021-05-21T09:46:35Z</time>
</trkpt>
<trkpt lat="60.225587" lon="24.890844">
<time>2021-05-21T09:46:36Z</time>
</trkpt>
<trkpt lat="60.225602" lon="24.890731">
<time>2021-05-21T09:46:38Z</time>
</trkpt>
<trkpt lat="60.225648" lon="24.890508">
<time>2021-05-21T09:46:39Z</time>
</trkpt>
<trkpt lat="60.225669" lon="24.890401">
<time>2021-05-21T09:46:40Z</time>
</trkpt>
<trkpt lat="60.225684" lon="24.890293">
<time>2021-05-21T09:46:41Z</time>
</trkpt>
<trkpt lat="60.225694" lon="24.890193">
<time>2021-05-21T09:46:42Z</time>
</trkpt>
<trkpt lat="60.225674" lon="24.89003">
<time>2021-05-21T09:46:44Z</time>
</trkpt>
<trkpt lat="60.225617" lon="24.889884">
<time>2021-05-21T09:46:46Z</time>
</trkpt>
<trkpt lat="60.225576" lon="24.889774">
<time>2021-05-21T09:46:48Z</time>
</trkpt>
<trkpt lat="60.225556" lon="24.889674">
<time>2021-05-21T09:46:50Z</time>
</trkpt>
<trkpt lat="60.225576" lon="24.88953">
<time>2021-05-21T09:46:53Z</time>
</trkpt>
<trkpt lat="60.225602" lon="24.88942">
<time>2021-05-21T09:46:55Z</time>
</trkpt>
<trkpt lat="60.225638" lon="24.8893">
<time>2021-05-21T09:46:57Z</time>
</trkpt>
<trkpt lat="60.225679" lon="24.889185">
<time>2021-05-21T09:46:59Z</time>
</trkpt>
<trkpt lat="60.22571" lon="24.889088">
<time>2021-05-21T09:47:01Z</time>
</trkpt>
<trkpt lat="60.225699" lon="24.888898">
<time>2021-05-21T09:47:13Z</time>
</trkpt>
<trkpt lat="60.225648" lon="24.888826">
<time>2021-05-21T09:47:15Z</time>
</trkpt>
<trkpt lat="60.225582" lon="24.888788">
<time>2021-05-21T09:47:17Z</time>
</trkpt>
<trkpt lat="60.2255" lon="24.888814">
<time>2021-05-21T09:47:19Z</time>
</trkpt>
<trkpt lat="60.225413" lon="24.888896">
<time>2021-05-21T09:47:21Z</time>
</trkpt>
<trkpt lat="60.225367" lon="24.888934">
<time>2021-05-21T09:47:22Z</time>
</trkpt>
<trkpt lat="60.225274" lon="24.888985">
<time>2021-05-21T09:47:24Z</time>
</trkpt>
<trkpt lat="60.225172" lon="24.889024">
<time>2021-05-21T09:47:26Z</time>
</trkpt>
<trkpt lat="60.225121" lon="24.889047">
<time>2021-05-21T09:47:27Z</time>
</trkpt>
<trkpt lat="60.225064" lon="24.889082">
<time>2021-05-21T09:47:28Z</time>
</trkpt>
<trkpt lat="60.225013" lon="24.889121">
<time>2021-05-21T09:47:29Z</time>
</trkpt>
<trkpt lat="60.224962" lon="24.889167">
<time>2021-05-21T09:47:30Z</time>
</trkpt>
<trkpt lat="60.224911" lon="24.889223">
<time>2021-05-21T09:47:31Z</time>
</trkpt>
<trkpt lat="60.224865" lon="24.889285">
<time>2021-05-21T09:47:32Z</time>
</trkpt>
<trkpt lat="60.224819" lon="24.889351">
<time>2021-05-21T09:47:33Z</time>
</trkpt>
<trkpt lat="60.224773" lon="24.889425">
<time>2021-05-21T09:47:35Z</time>
</trkpt>
<trkpt lat="60.224691" lon="24.889579">
<time>2021-05-21T09:47:36Z</time>
</trkpt>
<trkpt lat="60.224645" lon="24.889658">
<time>2021-05-21T09:47:37Z</time>
</trkpt>
<trkpt lat="60.224604" lon="24.889733">
<time>2021-05-21T09:47:38Z</time>
</trkpt>
<trkpt lat="60.224558" lon="24.889794">
<time>2021-05-21T09:47:39Z</time>
</trkpt>
<trkpt lat="60.224512" lon="24.889835">
<time>2021-05-21T09:47:40Z</time>
</trkpt>
<trkpt lat="60.22446" lon="24.889853">
<time>2021-05-21T09:47:41Z</time>
</trkpt>
<trkpt lat="60.224358" lon="24.889845">
<time>2021-05-21T09:47:43Z</time>
</trkpt>
<trkpt lat="60.224302" lon="24.88983">
<time>2021-05-21T09:47:44Z</time>
</trkpt>
<trkpt lat="60.224245" lon="24.889809">
<time>2021-05-21T09:47:45Z</time>
</trkpt>
<trkpt lat="60.224184" lon="24.889784">
<time>2021-05-21T09:47:46Z</time>
</trkpt>
<trkpt lat="60.224128" lon="24.889756">
<time>2021-05-21T09:47:47Z</time>
</trkpt>
<trkpt lat="60.224071" lon="24.88973">
<time>2021-05-21T09:47:48Z</time>
</trkpt>
<trkpt lat="60.224015" lon="24.889704">
<time>2021-05-21T09:47:50Z</time>
</trkpt>
<trkpt lat="60.223897" lon="24.889643">
<time>2021-05-21T09:47:51Z</time>
</trkpt>
<trkpt lat="60.223841" lon="24.889615">
<time>2021-05-21T09:47:52Z</time>
</trkpt>
<trkpt lat="60.223779" lon="24.889587">
<time>2021-05-21T09:47:53Z</time>
</trkpt>
<trkpt lat="60.223718" lon="24.889556">
<time>2021-05-21T09:47:54Z</time>
</trkpt>
<trkpt lat="60.223656" lon="24.889525">
<time>2021-05-21T09:47:55Z</time>
</trkpt>
<trkpt lat="60.2236" lon="24.889497">
<time>2021-05-21T09:47:56Z</time>
</trkpt>
<trkpt lat="60.223544" lon="24.889469">
<time>2021-05-21T09:47:57Z</time>
</trkpt>
<trkpt lat="60.223493" lon="24.889441">
<time>2021-05-21T09:47:58Z</time>
</trkpt>
<trkpt lat="60.223441" lon="24.889418">
<time>2021-05-21T09:47:59Z</time>
</trkpt>
<trkpt lat="60.22336" lon="24.889387">
<time>2021-05-21T09:48:01Z</time>
</trkpt>
<trkpt lat="60.223298" lon="24.889379">
<time>2021-05-21T09:48:03Z</time>
</trkpt>
<trkpt lat="60.223298" lon="24.889344">
<time>2021-05-21T09:51:36Z</time>
</trkpt>
<trkpt lat="60.223365" lon="24.889328">
<time>2021-05-21T09:51:48Z</time>
</trkpt>
<trkpt lat="60.223441" lon="24.889187">
<time>2021-05-21T09:51:52Z</time>
</trkpt>
<trkpt lat="60.223503" lon="24.889016">
<time>2021-05-21T09:51:54Z</time>
</trkpt>
<trkpt lat="60.223544" lon="24.888903">
<time>2021-05-21T09:51:55Z</time>
</trkpt>
<trkpt lat="60.22359" lon="24.888796">
<time>2021-05-21T09:51:56Z</time>
</trkpt>
<trkpt lat="60.223641" lon="24.88868">
<time>2021-05-21T09:51:57Z</time>
</trkpt>
<trkpt lat="60.223687" lon="24.888573">
<time>2021-05-21T09:51:58Z</time>
</trkpt>
<trkpt lat="60.223738" lon="24.888468">
<time>2021-05-21T09:51:59Z</time>
</trkpt>
<trkpt lat="60.223795" lon="24.888368">
<time>2021-05-21T09:52:00Z</time>
</trkpt>
<trkpt lat="60.223851" lon="24.888273">
<time>2021-05-21T09:52:01Z</time>
</trkpt>
<trkpt lat="60.223912" lon="24.888192">
<time>2021-05-21T09:52:02Z</time>
</trkpt>
<trkpt lat="60.223974" lon="24.88811">
<time>2021-05-21T09:52:03Z</time>
</trkpt>
<trkpt lat="60.22404" lon="24.888028">
<time>2021-05-21T09:52:04Z</time>
</trkpt>
<trkpt lat="60.224107" lon="24.887953">
<time>2021-05-21T09:52:05Z</time>
</trkpt>
<trkpt lat="60.224174" lon="24.887879">
<time>2021-05-21T09:52:06Z</time>
</trkpt>
<trkpt lat="60.224245" lon="24.88781">
<time>2021-05-21T09:52:07Z</time>
</trkpt>
<trkpt lat="60.224317" lon="24.887736">
<time>2021-05-21T09:52:08Z</time>
</trkpt>
<trkpt lat="60.224389" lon="24.887659">
<time>2021-05-21T09:52:09Z</time>
</trkpt>
<trkpt lat="60.22446" lon="24.887585">
<time>2021-05-21T09:52:10Z</time>
</trkpt>
<trkpt lat="60.224532" lon="24.887511">
<time>2021-05-21T09:52:11Z</time>
</trkpt>
<trkpt lat="60.224624" lon="24.887426">
<time>2021-05-21T09:52:12Z</time>
</trkpt>
<trkpt lat="60.224711" lon="24.887352">
<time>2021-05-21T09:52:13Z</time>
</trkpt>
<trkpt lat="60.224793" lon="24.887272">
<time>2021-05-21T09:52:14Z</time>
</trkpt>
<trkpt lat="60.22486" lon="24.887203">
<time>2021-05-21T09:52:15Z</time>
</trkpt>
<trkpt lat="60.224931" lon="24.887127">
<time>2021-05-21T09:52:16Z</time>
</trkpt>
<trkpt lat="60.225003" lon="24.887055">
<time>2021-05-21T09:52:17Z</time>
</trkpt>
<trkpt lat="60.22507" lon="24.886983">
<time>2021-05-21T09:52:18Z</time>
</trkpt>
<trkpt lat="60.225136" lon="24.886906">
<time>2021-05-21T09:52:19Z</time>
</trkpt>
<trkpt lat="60.225203" lon="24.886835">
<time>2021-05-21T09:52:20Z</time>
</trkpt>
<trkpt lat="60.225264" lon="24.886763">
<time>2021-05-21T09:52:21Z</time>
</trkpt>
<trkpt lat="60.225336" lon="24.886704">
<time>2021-05-21T09:52:22Z</time>
</trkpt>
<trkpt lat="60.225397" lon="24.886671">
<time>2021-05-21T09:52:23Z</time>
</trkpt>
<trkpt lat="60.225469" lon="24.886661">
<time>2021-05-21T09:52:24Z</time>
</trkpt>
<trkpt lat="60.225536" lon="24.886712">
<time>2021-05-21T09:52:25Z</time>
</trkpt>
<trkpt lat="60.225602" lon="24.886778">
<time>2021-05-21T09:52:26Z</time>
</trkpt>
<trkpt lat="60.225669" lon="24.886845">
<time>2021-05-21T09:52:27Z</time>
</trkpt>
<trkpt lat="60.22573" lon="24.886896">
<time>2021-05-21T09:52:28Z</time>
</trkpt>
<trkpt lat="60.225776" lon="24.886924">
<time>2021-05-21T09:52:29Z</time>
</trkpt>
<trkpt lat="60.225853" lon="24.886958">
<time>2021-05-21T09:52:31Z</time>
</trkpt>
<trkpt lat="60.22593" lon="24.886968">
<time>2021-05-21T09:52:33Z</time>
</trkpt>
<trkpt lat="60.226007" lon="24.886952">
<time>2021-05-21T09:52:35Z</time>
</trkpt>
<trkpt lat="60.226083" lon="24.886929">
<time>2021-05-21T09:52:37Z</time>
</trkpt>
<trkpt lat="60.22616" lon="24.886922">
<time>2021-05-21T09:52:39Z</time>
</trkpt>
<trkpt lat="60.226216" lon="24.886919">
<time>2021-05-21T09:52:42Z</time>
</trkpt>
<trkpt lat="60.226288" lon="24.886917">
<time>2021-05-21T09:52:43Z</time>
</trkpt>
<trkpt lat="60.226355" lon="24.886899">
<time>2021-05-21T09:52:45Z</time>
</trkpt>
<trkpt lat="60.226426" lon="24.886848">
<time>2021-05-21T09:52:47Z</time>
</trkpt>
<trkpt lat="60.226513" lon="24.886755">
<time>2021-05-21T09:52:50Z</time>
</trkpt>
<trkpt lat="60.226616" lon="24.886627">
<time>2021-05-21T09:52:52Z</time>
</trkpt>
<trkpt lat="60.226713" lon="24.886469">
<time>2021-05-21T09:52:53Z</time>
</trkpt>
<trkpt lat="60.226764" lon="24.886382">
<time>2021-05-21T09:52:54Z</time>
</trkpt>
<trkpt lat="60.22681" lon="24.8863">
<time>2021-05-21T09:52:55Z</time>
</trkpt>
<trkpt lat="60.226862" lon="24.886208">
<time>2021-05-21T09:52:56Z</time>
</trkpt>
<trkpt lat="60.226908" lon="24.886115">
<time>2021-05-21T09:52:57Z</time>
</trkpt>
<trkpt lat="60.226949" lon="24.886031">
<time>2021-05-21T09:52:58Z</time>
</trkpt>
<trkpt lat="60.226995" lon="24.885944">
<time>2021-05-21T09:52:59Z</time>
</trkpt>
<trkpt lat="60.227031" lon="24.885857">
<time>2021-05-21T09:53:00Z</time>
</trkpt>
<trkpt lat="60.227056" lon="24.885775">
<time>2021-05-21T09:53:01Z</time>
</trkpt>
<trkpt lat="60.227061" lon="24.885693">
<time>2021-05-21T09:53:02Z</time>
</trkpt>
<trkpt lat="60.227046" lon="24.885524">
<time>2021-05-21T09:53:04Z</time>
</trkpt>
<trkpt lat="60.227005" lon="24.885314">
<time>2021-05-21T09:53:06Z</time>
</trkpt>
<trkpt lat="60.226979" lon="24.885194">
<time>2021-05-21T09:53:07Z</time>
</trkpt>
<trkpt lat="60.226969" lon="24.885068">
<time>2021-05-21T09:53:08Z</time>
</trkpt>
<trkpt lat="60.226964" lon="24.884935">
<time>2021-05-21T09:53:09Z</time>
</trkpt>
<trkpt lat="60.226964" lon="24.88481">
<time>2021-05-21T09:53:10Z</time>
</trkpt>
<trkpt lat="60.226979" lon="24.884672">
<time>2021-05-21T09:53:11Z</time>
</trkpt>
<trkpt lat="60.226995" lon="24.884541">
<time>2021-05-21T09:53:12Z</time>
</trkpt>
<trkpt lat="60.227015" lon="24.884403">
<time>2021-05-21T09:53:13Z</time>
</trkpt>
<trkpt lat="60.227025" lon="24.884272">
<time>2021-05-21T09:53:14Z</time>
</trkpt>
<trkpt lat="60.227036" lon="24.884154">
<time>2021-05-21T09:53:15Z</time>
</trkpt>
<trkpt lat="60.227031" lon="24.88406">
<time>2021-05-21T09:53:16Z</time>
</trkpt>
<trkpt lat="60.227005" lon="24.883901">
<time>2021-05-21T09:53:19Z</time>
</trkpt>
<trkpt lat="60.226964" lon="24.883799">
<time>2021-05-21T09:53:20Z</time>
</trkpt>
<trkpt lat="60.226923" lon="24.883729">
<time>2021-05-21T09:53:22Z</time>
</trkpt>
<trkpt lat="60.226887" lon="24.883637">
<time>2021-05-21T09:53:25Z</time>
</trkpt>
<trkpt lat="60.226856" lon="24.883509">
<time>2021-05-21T09:53:28Z</time>
</trkpt>
<trkpt lat="60.226831" lon="24.883397">
<time>2021-05-21T09:53:30Z</time>
</trkpt>
<trkpt lat="60.2268" lon="24.883289">
<time>2021-05-21T09:53:32Z</time>
</trkpt>
<trkpt lat="60.226769" lon="24.883187">
<time>2021-05-21T09:53:35Z</time>
</trkpt>
<trkpt lat="60.226744" lon="24.883092">
<time>2021-05-21T09:53:36Z</time>
</trkpt>
<trkpt lat="60.226713" lon="24.882967">
<time>2021-05-21T09:53:39Z</time>
</trkpt>
<trkpt lat="60.226688" lon="24.882833">
<time>2021-05-21T09:53:42Z</time>
</trkpt>
<trkpt lat="60.226667" lon="24.882693">
<time>2021-05-21T09:53:45Z</time>
</trkpt>
<trkpt lat="60.226626" lon="24.882552">
<time>2021-05-21T09:53:48Z</time>
</trkpt>
<trkpt lat="60.22658" lon="24.882465">
<time>2021-05-21T09:53:50Z</time>
</trkpt>
<trkpt lat="60.226529" lon="24.882401">
<time>2021-05-21T09:53:52Z</time>
</trkpt>
<trkpt lat="60.226472" lon="24.882334">
<time>2021-05-21T09:53:54Z</time>
</trkpt>
<trkpt lat="60.226432" lon="24.88225">
<time>2021-05-21T09:53:57Z</time>
</trkpt>
<trkpt lat="60.226411" lon="24.882178">
<time>2021-05-21T09:53:58Z</time>
</trkpt>
<trkpt lat="60.226421" lon="24.882065">
<time>2021-05-21T09:54:03Z</time>
</trkpt>
<trkpt lat="60.226483" lon="24.881917">
<time>2021-05-21T09:54:06Z</time>
</trkpt>
<trkpt lat="60.226529" lon="24.881753">
<time>2021-05-21T09:54:08Z</time>
</trkpt>
<trkpt lat="60.226549" lon="24.881594">
<time>2021-05-21T09:54:10Z</time>
</trkpt>
<trkpt lat="60.226539" lon="24.881474">
<time>2021-05-21T09:54:12Z</time>
</trkpt>
<trkpt lat="60.226488" lon="24.881377">
<time>2021-05-21T09:54:14Z</time>
</trkpt>
<trkpt lat="60.226426" lon="24.881303">
<time>2021-05-21T09:54:16Z</time>
</trkpt>
<trkpt lat="60.226365" lon="24.881241">
<time>2021-05-21T09:54:18Z</time>
</trkpt>
<trkpt lat="60.226309" lon="24.881213">
<time>2021-05-21T09:54:20Z</time>
</trkpt>
<trkpt lat="60.226298" lon="24.881216">
<time>2021-05-21T09:54:25Z</time>
</trkpt>
<trkpt lat="60.226355" lon="24.881256">
<time>2021-05-21T09:54:28Z</time>
</trkpt>
<trkpt lat="60.226334" lon="24.881303">
<time>2021-05-21T09:54:34Z</time>
</trkpt>
<trkpt lat="60.226273" lon="24.881323">
<time>2021-05-21T09:54:37Z</time>
</trkpt>
<trkpt lat="60.226211" lon="24.881333">
<time>2021-05-21T09:54:40Z</time>
</trkpt>
<trkpt lat="60.226135" lon="24.881341">
<time>2021-05-21T09:54:43Z</time>
</trkpt>
<trkpt lat="60.226058" lon="24.881346">
<time>2021-05-21T09:54:45Z</time>
</trkpt>
<trkpt lat="60.225976" lon="24.881367">
<time>2021-05-21T09:54:47Z</time>
</trkpt>
<trkpt lat="60.225889" lon="24.881382">
<time>2021-05-21T09:54:49Z</time>
</trkpt>
<trkpt lat="60.225807" lon="24.881372">
<time>2021-05-21T09:54:51Z</time>
</trkpt>
<trkpt lat="60.22574" lon="24.881369">
<time>2021-05-21T09:54:53Z</time>
</trkpt>
<trkpt lat="60.225679" lon="24.881392">
<time>2021-05-21T09:54:55Z</time>
</trkpt>
<trkpt lat="60.225628" lon="24.881413">
<time>2021-05-21T09:54:57Z</time>
</trkpt>
<trkpt lat="60.225576" lon="24.881423">
<time>2021-05-21T09:54:59Z</time>
</trkpt>
<trkpt lat="60.22552" lon="24.881443">
<time>2021-05-21T09:55:01Z</time>
</trkpt>
<trkpt lat="60.225464" lon="24.881477">
<time>2021-05-21T09:55:03Z</time>
</trkpt>
<trkpt lat="60.225408" lon="24.88153">
<time>2021-05-21T09:55:05Z</time>
</trkpt>
<trkpt lat="60.225336" lon="24.881587">
<time>2021-05-21T09:55:07Z</time>
</trkpt>
<trkpt lat="60.225269" lon="24.881633">
<time>2021-05-21T09:55:09Z</time>
</trkpt>
<trkpt lat="60.225213" lon="24.881648">
<time>2021-05-21T09:55:11Z</time>
</trkpt>
<trkpt lat="60.225157" lon="24.88163">
<time>2021-05-21T09:55:13Z</time>
</trkpt>
<trkpt lat="60.225085" lon="24.881592">
<time>2021-05-21T09:55:16Z</time>
</trkpt>
<trkpt lat="60.225018" lon="24.881571">
<time>2021-05-21T09:55:18Z</time>
</trkpt>
<trkpt lat="60.224942" lon="24.881569">
<time>2021-05-21T09:55:20Z</time>
</trkpt>
<trkpt lat="60.224865" lon="24.881594">
<time>2021-05-21T09:55:22Z</time>
</trkpt>
<trkpt lat="60.224798" lon="24.881615">
<time>2021-05-21T09:55:24Z</time>
</trkpt>
<trkpt lat="60.224727" lon="24.881623">
<time>2021-05-21T09:55:26Z</time>
</trkpt>
<trkpt lat="60.22467" lon="24.881602">
<time>2021-05-21T09:55:28Z</time>
</trkpt>
<trkpt lat="60.224614" lon="24.881571">
<time>2021-05-21T09:55:30Z</time>
</trkpt>
<trkpt lat="60.224537" lon="24.881564">
<time>2021-05-21T09:55:32Z</time>
</trkpt>
<trkpt lat="60.22445" lon="24.881597">
<time>2021-05-21T09:55:34Z</time>
</trkpt>
<trkpt lat="60.224363" lon="24.881651">
<time>2021-05-21T09:55:36Z</time>
</trkpt>
<trkpt lat="60.224312" lon="24.881679">
<time>2021-05-21T09:55:37Z</time>
</trkpt>
<trkpt lat="60.224261" lon="24.881712">
<time>2021-05-21T09:55:38Z</time>
</trkpt>
<trkpt lat="60.224209" lon="24.881751">
<time>2021-05-21T09:55:39Z</time>
</trkpt>
<trkpt lat="60.224153" lon="24.881789">
<time>2021-05-21T09:55:40Z</time>
</trkpt>
<trkpt lat="60.224097" lon="24.88183">
<time>2021-05-21T09:55:41Z</time>
</trkpt>
<trkpt lat="60.224035" lon="24.881871">
<time>2021-05-21T09:55:42Z</time>
</trkpt>
<trkpt lat="60.223974" lon="24.881914">
<time>2021-05-21T09:55:44Z</time>
</trkpt>
<trkpt lat="60.223851" lon="24.882001">
<time>2021-05-21T09:55:45Z</time>
</trkpt>
<trkpt lat="60.223795" lon="24.882045">
<time>2021-05-21T09:55:46Z</time>
</trkpt>
<trkpt lat="60.223728" lon="24.882094">
<time>2021-05-21T09:55:47Z</time>
</trkpt>
<trkpt lat="60.223667" lon="24.882137">
<time>2021-05-21T09:55:48Z</time>
</trkpt>
<trkpt lat="60.223605" lon="24.882186">
<time>2021-05-21T09:55:49Z</time>
</trkpt>
<trkpt lat="60.223544" lon="24.882237">
<time>2021-05-21T09:55:50Z</time>
</trkpt>
<trkpt lat="60.223477" lon="24.882304">
<time>2021-05-21T09:55:51Z</time>
</trkpt>
<trkpt lat="60.223411" lon="24.882368">
<time>2021-05-21T09:55:52Z</time>
</trkpt>
<trkpt lat="60.223344" lon="24.882439">
<time>2021-05-21T09:55:53Z</time>
</trkpt>
<trkpt lat="60.223283" lon="24.882503">
<time>2021-05-21T09:55:54Z</time>
</trkpt>
<trkpt lat="60.223221" lon="24.882567">
<time>2021-05-21T09:55:56Z</time>
</trkpt>
<trkpt lat="60.223098" lon="24.88269">
<time>2021-05-21T09:55:57Z</time>
</trkpt>
<trkpt lat="60.223032" lon="24.882759">
<time>2021-05-21T09:55:58Z</time>
</trkpt>
<trkpt lat="60.22297" lon="24.882826">
<time>2021-05-21T09:55:59Z</time>
</trkpt>
<trkpt lat="60.222909" lon="24.882892">
<time>2021-05-21T09:56:00Z</time>
</trkpt>
<trkpt lat="60.222848" lon="24.882961">
<time>2021-05-21T09:56:01Z</time>
</trkpt>
<trkpt lat="60.222791" lon="24.883028">
<time>2021-05-21T09:56:02Z</time>
</trkpt>
<trkpt lat="60.22273" lon="24.8831">
<time>2021-05-21T09:56:04Z</time>
</trkpt>
<trkpt lat="60.222627" lon="24.883246">
<time>2021-05-21T09:56:05Z</time>
</trkpt>
<trkpt lat="60.222571" lon="24.883317">
<time>2021-05-21T09:56:06Z</time>
</trkpt>
<trkpt lat="60.22252" lon="24.883392">
<time>2021-05-21T09:56:07Z</time>
</trkpt>
<trkpt lat="60.222464" lon="24.883471">
<time>2021-05-21T09:56:08Z</time>
</trkpt>
<trkpt lat="60.222417" lon="24.883553">
<time>2021-05-21T09:56:09Z</time>
</trkpt>
<trkpt lat="60.222366" lon="24.883635">
<time>2021-05-21T09:56:10Z</time>
</trkpt>
<trkpt lat="60.22232" lon="24.883719">
<time>2021-05-21T09:56:11Z</time>
</trkpt>
<trkpt lat="60.222284" lon="24.883809">
<time>2021-05-21T09:56:12Z</time>
</trkpt>
<trkpt lat="60.222248" lon="24.883898">
<time>2021-05-21T09:56:13Z</time>
</trkpt>
<trkpt lat="60.222223" lon="24.883996">
<time>2021-05-21T09:56:14Z</time>
</trkpt>
<trkpt lat="60.222197" lon="24.884093">
<time>2021-05-21T09:56:15Z</time>
</trkpt>
<trkpt lat="60.222177" lon="24.884188">
<time>2021-05-21T09:56:16Z</time>
</trkpt>
<trkpt lat="60.222161" lon="24.884277">
<time>2021-05-21T09:56:17Z</time>
</trkpt>
<trkpt lat="60.222131" lon="24.884446">
<time>2021-05-21T09:56:19Z</time>
</trkpt>
<trkpt lat="60.22211" lon="24.8846">
<time>2021-05-21T09:56:21Z</time>
</trkpt>
<trkpt lat="60.222074" lon="24.884759">
<time>2021-05-21T09:56:23Z</time>
</trkpt>
<trkpt lat="60.222028" lon="24.884925">
<time>2021-05-21T09:56:25Z</time>
</trkpt>
<trkpt lat="60.221977" lon="24.885096">
<time>2021-05-21T09:56:27Z</time>
</trkpt>
<trkpt lat="60.221921" lon="24.885276">
<time>2021-05-21T09:56:29Z</time>
</trkpt>
<trkpt lat="60.221895" lon="24.885365">
<time>2021-05-21T09:56:30Z</time>
</trkpt>
<trkpt lat="60.221839" lon="24.88555">
<time>2021-05-21T09:56:32Z</time>
</trkpt>
<trkpt lat="60.221818" lon="24.885647">
<time>2021-05-21T09:56:33Z</time>
</trkpt>
<trkpt lat="60.221788" lon="24.885747">
<time>2021-05-21T09:56:34Z</time>
</trkpt>
<trkpt lat="60.221762" lon="24.885844">
<time>2021-05-21T09:56:35Z</time>
</trkpt>
<trkpt lat="60.221736" lon="24.885941">
<time>2021-05-21T09:56:36Z</time>
</trkpt>
<trkpt lat="60.221711" lon="24.886039">
<time>2021-05-21T09:56:37Z</time>
</trkpt>
<trkpt lat="60.221685" lon="24.886138">
<time>2021-05-21T09:56:38Z</time>
</trkpt>
<trkpt lat="60.221655" lon="24.886238">
<time>2021-05-21T09:56:39Z</time>
</trkpt>
<trkpt lat="60.221634" lon="24.886338">
<time>2021-05-21T09:56:41Z</time>
</trkpt>
<trkpt lat="60.221608" lon="24.886627">
<time>2021-05-21T09:56:43Z</time>
</trkpt>
<trkpt lat="60.221624" lon="24.88676">
<time>2021-05-21T09:56:45Z</time>
</trkpt>
<trkpt lat="60.221655" lon="24.886814">
<time>2021-05-21T09:56:47Z</time>
</trkpt>
<trkpt lat="60.221742" lon="24.886758">
<time>2021-05-21T09:56:50Z</time>
</trkpt>
<trkpt lat="60.221808" lon="24.886643">
<time>2021-05-21T09:56:52Z</time>
</trkpt>
<trkpt lat="60.22188" lon="24.886494">
<time>2021-05-21T09:56:54Z</time>
</trkpt>
<trkpt lat="60.221936" lon="24.886315">
<time>2021-05-21T09:56:56Z</time>
</trkpt>
<trkpt lat="60.221972" lon="24.886218">
<time>2021-05-21T09:56:57Z</time>
</trkpt>
<trkpt lat="60.222003" lon="24.88612">
<time>2021-05-21T09:56:58Z</time>
</trkpt>
<trkpt lat="60.222039" lon="24.886018">
<time>2021-05-21T09:56:59Z</time>
</trkpt>
<trkpt lat="60.222074" lon="24.885916">
<time>2021-05-21T09:57:00Z</time>
</trkpt>
<trkpt lat="60.22211" lon="24.885813">
<time>2021-05-21T09:57:01Z</time>
</trkpt>
<trkpt lat="60.222151" lon="24.885716">
<time>2021-05-21T09:57:02Z</time>
</trkpt>
<trkpt lat="60.222192" lon="24.885626">
<time>2021-05-21T09:57:03Z</time>
</trkpt>
<trkpt lat="60.222238" lon="24.885539">
<time>2021-05-21T09:57:04Z</time>
</trkpt>
<trkpt lat="60.222284" lon="24.885463">
<time>2021-05-21T09:57:05Z</time>
</trkpt>
<trkpt lat="60.222325" lon="24.885396">
<time>2021-05-21T09:57:06Z</time>
</trkpt>
<trkpt lat="60.222371" lon="24.885332">
<time>2021-05-21T09:57:08Z</time>
</trkpt>
<trkpt lat="60.222448" lon="24.885158">
<time>2021-05-21T09:57:10Z</time>
</trkpt>
<trkpt lat="60.222458" lon="24.885048">
<time>2021-05-21T09:57:12Z</time>
</trkpt>
<trkpt lat="60.222443" lon="24.884922">
<time>2021-05-21T09:57:14Z</time>
</trkpt>
<trkpt lat="60.222392" lon="24.884789">
<time>2021-05-21T09:57:16Z</time>
</trkpt>
<trkpt lat="60.222361" lon="24.884672">
<time>2021-05-21T09:57:18Z</time>
</trkpt>
<trkpt lat="60.222346" lon="24.884561">
<time>2021-05-21T09:57:20Z</time>
</trkpt>
<trkpt lat="60.222341" lon="24.884444">
<time>2021-05-21T09:57:22Z</time>
</trkpt>
<trkpt lat="60.222325" lon="24.884316">
<time>2021-05-21T09:57:24Z</time>
</trkpt>
<trkpt lat="60.22231" lon="24.884224">
<time>2021-05-21T09:57:26Z</time>
</trkpt>
<trkpt lat="60.222254" lon="24.884131">
<time>2021-05-21T09:57:29Z</time>
</trkpt>
<trkpt lat="60.222192" lon="24.884029">
<time>2021-05-21T09:57:32Z</time>
</trkpt>
<trkpt lat="60.222151" lon="24.883957">
<time>2021-05-21T09:57:34Z</time>
</trkpt>
<trkpt lat="60.222131" lon="24.883865">
<time>2021-05-21T09:57:36Z</time>
</trkpt>
<trkpt lat="60.222131" lon="24.883655">
<time>2021-05-21T09:57:39Z</time>
</trkpt>
<trkpt lat="60.222146" lon="24.883532">
<time>2021-05-21T09:57:41Z</time>
</trkpt>
<trkpt lat="60.222146" lon="24.883463">
<time>2021-05-21T09:57:43Z</time>
</trkpt>
<trkpt lat="60.222105" lon="24.883584">
<time>2021-05-21T09:57:47Z</time>
</trkpt>
<trkpt lat="60.222049" lon="24.883829">
<time>2021-05-21T09:57:50Z</time>
</trkpt>
<trkpt lat="60.222023" lon="24.883921">
<time>2021-05-21T09:57:51Z</time>
</trkpt>
<trkpt lat="60.221992" lon="24.884006">
<time>2021-05-21T09:57:52Z</time>
</trkpt>
<trkpt lat="60.221921" lon="24.88416">
<time>2021-05-21T09:57:54Z</time>
</trkpt>
<trkpt lat="60.22189" lon="24.884213">
<time>2021-05-21T09:57:55Z</time>
</trkpt>
<trkpt lat="60.221829" lon="24.884241">
<time>2021-05-21T09:57:57Z</time>
</trkpt>
<trkpt lat="60.221793" lon="24.884119">
<time>2021-05-21T09:58:00Z</time>
</trkpt>
<trkpt lat="60.221803" lon="24.883973">
<time>2021-05-21T09:58:02Z</time>
</trkpt>
<trkpt lat="60.221818" lon="24.883801">
<time>2021-05-21T09:58:04Z</time>
</trkpt>
<trkpt lat="60.221844" lon="24.883614">
<time>2021-05-21T09:58:06Z</time>
</trkpt>
<trkpt lat="60.221875" lon="24.883412">
<time>2021-05-21T09:58:08Z</time>
</trkpt>
<trkpt lat="60.221895" lon="24.883307">
<time>2021-05-21T09:58:10Z</time>
</trkpt>
<trkpt lat="60.221931" lon="24.883084">
<time>2021-05-21T09:58:11Z</time>
</trkpt>
<trkpt lat="60.221957" lon="24.882964">
<time>2021-05-21T09:58:12Z</time>
</trkpt>
<trkpt lat="60.221987" lon="24.882808">
<time>2021-05-21T09:58:13Z</time>
</trkpt>
<trkpt lat="60.222069" lon="24.882496">
<time>2021-05-21T09:58:15Z</time>
</trkpt>
<trkpt lat="60.222105" lon="24.882339">
<time>2021-05-21T09:58:16Z</time>
</trkpt>
<trkpt lat="60.222146" lon="24.882186">
<time>2021-05-21T09:58:17Z</time>
</trkpt>
<trkpt lat="60.222187" lon="24.88203">
<time>2021-05-21T09:58:18Z</time>
</trkpt>
<trkpt lat="60.222223" lon="24.881876">
<time>2021-05-21T09:58:19Z</time>
</trkpt>
<trkpt lat="60.222248" lon="24.88172">
<time>2021-05-21T09:58:20Z</time>
</trkpt>
<trkpt lat="60.222269" lon="24.881574">
<time>2021-05-21T09:58:21Z</time>
</trkpt>
<trkpt lat="60.222279" lon="24.881438">
<time>2021-05-21T09:58:22Z</time>
</trkpt>
<trkpt lat="60.222274" lon="24.881328">
<time>2021-05-21T09:58:23Z</time>
</trkpt>
<trkpt lat="60.222259" lon="24.881233">
<time>2021-05-21T09:58:24Z</time>
</trkpt>
<trkpt lat="60.222208" lon="24.881085">
<time>2021-05-21T09:58:26Z</time>
</trkpt>
<trkpt lat="60.222156" lon="24.880972">
<time>2021-05-21T09:58:28Z</time>
</trkpt>
<trkpt lat="60.222105" lon="24.88089">
<time>2021-05-21T09:58:30Z</time>
</trkpt>
<trkpt lat="60.222013" lon="24.880875">
<time>2021-05-21T09:58:32Z</time>
</trkpt>
<trkpt lat="60.22189" lon="24.880898">
<time>2021-05-21T09:58:34Z</time>
</trkpt>
<trkpt lat="60.221824" lon="24.880911">
<time>2021-05-21T09:58:35Z</time>
</trkpt>
<trkpt lat="60.221757" lon="24.880926">
<time>2021-05-21T09:58:36Z</time>
</trkpt>
<trkpt lat="60.221685" lon="24.880942">
<time>2021-05-21T09:58:37Z</time>
</trkpt>
<trkpt lat="60.221624" lon="24.880967">
<time>2021-05-21T09:58:38Z</time>
</trkpt>
<trkpt lat="60.221557" lon="24.881008">
<time>2021-05-21T09:58:39Z</time>
</trkpt>
<trkpt lat="60.221496" lon="24.881067">
<time>2021-05-21T09:58:40Z</time>
</trkpt>
<trkpt lat="60.221445" lon="24.881144">
<time>2021-05-21T09:58:41Z</time>
</trkpt>
<trkpt lat="60.221393" lon="24.881226">
<time>2021-05-21T09:58:42Z</time>
</trkpt>
<trkpt lat="60.221342" lon="24.881331">
<time>2021-05-21T09:58:43Z</time>
</trkpt>
<trkpt lat="60.221296" lon="24.881441">
<time>2021-05-21T09:58:44Z</time>
</trkpt>
<trkpt lat="60.22125" lon="24.881551">
<time>2021-05-21T09:58:45Z</time>
</trkpt>
<trkpt lat="60.221199" lon="24.881664">
<time>2021-05-21T09:58:46Z</time>
</trkpt>
<trkpt lat="60.221148" lon="24.881776">
<time>2021-05-21T09:58:47Z</time>
</trkpt>
<trkpt lat="60.221102" lon="24.881894">
<time>2021-05-21T09:58:48Z</time>
</trkpt>
<trkpt lat="60.221056" lon="24.882019">
<time>2021-05-21T09:58:49Z</time>
</trkpt>
<trkpt lat="60.221009" lon="24.882147">
<time>2021-05-21T09:58:50Z</time>
</trkpt>
<trkpt lat="60.220963" lon="24.882278">
<time>2021-05-21T09:58:51Z</time>
</trkpt>
<trkpt lat="60.220912" lon="24.882408">
<time>2021-05-21T09:58:52Z</time>
</trkpt>
<trkpt lat="60.220861" lon="24.882534">
<time>2021-05-21T09:58:53Z</time>
</trkpt>
<trkpt lat="60.220815" lon="24.882657">
<time>2021-05-21T09:58:54Z</time>
</trkpt>
<trkpt lat="60.220759" lon="24.882769">
<time>2021-05-21T09:58:55Z</time>
</trkpt>
<trkpt lat="60.220707" lon="24.882872">
<time>2021-05-21T09:58:56Z</time>
</trkpt>
<trkpt lat="60.220646" lon="24.882961">
<time>2021-05-21T09:58:57Z</time>
</trkpt>
<trkpt lat="60.220584" lon="24.883041">
<time>2021-05-21T09:58:58Z</time>
</trkpt>
<trkpt lat="60.220528" lon="24.883105">
<time>2021-05-21T09:58:59Z</time>
</trkpt>
<trkpt lat="60.220467" lon="24.883161">
<time>2021-05-21T09:59:00Z</time>
</trkpt>
<trkpt lat="60.22041" lon="24.883194">
<time>2021-05-21T09:59:01Z</time>
</trkpt>
<trkpt lat="60.220364" lon="24.883212">
<time>2021-05-21T09:59:02Z</time>
</trkpt>
<trkpt lat="60.220323" lon="24.883212">
<time>2021-05-21T09:59:03Z</time>
</trkpt>
<trkpt lat="60.220262" lon="24.883164">
<time>2021-05-21T09:59:05Z</time>
</trkpt>
<trkpt lat="60.220216" lon="24.883082">
<time>2021-05-21T09:59:07Z</time>
</trkpt>
<trkpt lat="60.220175" lon="24.883">
<time>2021-05-21T09:59:09Z</time>
</trkpt>
<trkpt lat="60.220144" lon="24.882961">
<time>2021-05-21T09:59:12Z</time>
</trkpt>
<trkpt lat="60.220154" lon="24.883138">
<time>2021-05-21T09:59:18Z</time>
</trkpt>
<trkpt lat="60.220144" lon="24.883217">
<time>2021-05-21T09:59:20Z</time>
</trkpt>
<trkpt lat="60.220072" lon="24.883279">
<time>2021-05-21T09:59:23Z</time>
</trkpt>
<trkpt lat="60.219996" lon="24.883312">
<time>2021-05-21T09:59:25Z</time>
</trkpt>
<trkpt lat="60.219904" lon="24.88334">
<time>2021-05-21T09:59:27Z</time>
</trkpt>
<trkpt lat="60.219806" lon="24.883361">
<time>2021-05-21T09:59:29Z</time>
</trkpt>
<trkpt lat="60.219699" lon="24.883348">
<time>2021-05-21T09:59:31Z</time>
</trkpt>
<trkpt lat="60.219648" lon="24.883322">
<time>2021-05-21T09:59:32Z</time>
</trkpt>
<trkpt lat="60.219591" lon="24.883279">
<time>2021-05-21T09:59:33Z</time>
</trkpt>
<trkpt lat="60.21954" lon="24.883225">
<time>2021-05-21T09:59:34Z</time>
</trkpt>
<trkpt lat="60.219484" lon="24.883161">
<time>2021-05-21T09:59:35Z</time>
</trkpt>
<trkpt lat="60.219422" lon="24.883097">
<time>2021-05-21T09:59:36Z</time>
</trkpt>
<trkpt lat="60.219361" lon="24.883038">
<time>2021-05-21T09:59:37Z</time>
</trkpt>
<trkpt lat="60.219299" lon="24.882995">
<time>2021-05-21T09:59:38Z</time>
</trkpt>
<trkpt lat="60.219238" lon="24.882972">
<time>2021-05-21T09:59:39Z</time>
</trkpt>
<trkpt lat="60.219176" lon="24.882967">
<time>2021-05-21T09:59:40Z</time>
</trkpt>
<trkpt lat="60.219115" lon="24.882974">
<time>2021-05-21T09:59:41Z</time>
</trkpt>
<trkpt lat="60.219048" lon="24.88299">
<time>2021-05-21T09:59:42Z</time>
</trkpt>
<trkpt lat="60.218992" lon="24.883008">
<time>2021-05-21T09:59:43Z</time>
</trkpt>
<trkpt lat="60.218915" lon="24.883036">
<time>2021-05-21T09:59:44Z</time>
</trkpt>
<trkpt lat="60.218849" lon="24.883066">
<time>2021-05-21T09:59:45Z</time>
</trkpt>
<trkpt lat="60.218782" lon="24.883112">
<time>2021-05-21T09:59:46Z</time>
</trkpt>
<trkpt lat="60.218721" lon="24.883169">
<time>2021-05-21T09:59:47Z</time>
</trkpt>
<trkpt lat="60.218664" lon="24.883235">
<time>2021-05-21T09:59:48Z</time>
</trkpt>
<trkpt lat="60.218608" lon="24.88331">
<time>2021-05-21T09:59:49Z</time>
</trkpt>
<trkpt lat="60.218557" lon="24.883392">
<time>2021-05-21T09:59:50Z</time>
</trkpt>
<trkpt lat="60.218501" lon="24.883479">
<time>2021-05-21T09:59:51Z</time>
</trkpt>
<trkpt lat="60.218449" lon="24.883558">
<time>2021-05-21T09:59:52Z</time>
</trkpt>
<trkpt lat="60.218393" lon="24.883627">
<time>2021-05-21T09:59:53Z</time>
</trkpt>
<trkpt lat="60.218342" lon="24.883686">
<time>2021-05-21T09:59:54Z</time>
</trkpt>
<trkpt lat="60.218291" lon="24.883735">
<time>2021-05-21T09:59:55Z</time>
</trkpt>
<trkpt lat="60.218245" lon="24.883776">
<time>2021-05-21T09:59:56Z</time>
</trkpt>
<trkpt lat="60.218193" lon="24.883809">
<time>2021-05-21T09:59:57Z</time>
</trkpt>
<trkpt lat="60.218096" lon="24.883868">
<time>2021-05-21T09:59:59Z</time>
</trkpt>
<trkpt lat="60.218009" lon="24.883921">
<time>2021-05-21T10:00:01Z</time>
</trkpt>
<trkpt lat="60.217948" lon="24.883965">
<time>2021-05-21T10:00:03Z</time>
</trkpt>
<trkpt lat="60.217902" lon="24.884003">
<time>2021-05-21T10:00:05Z</time>
</trkpt>
<trkpt lat="60.217845" lon="24.884062">
<time>2021-05-21T10:00:08Z</time>
</trkpt>
<trkpt lat="60.217774" lon="24.884144">
<time>2021-05-21T10:00:11Z</time>
</trkpt>
<trkpt lat="60.217697" lon="24.884206">
<time>2021-05-21T10:00:13Z</time>
</trkpt>
<trkpt lat="60.21761" lon="24.884264">
<time>2021-05-21T10:00:15Z</time>
</trkpt>
<trkpt lat="60.217512" lon="24.884341">
<time>2021-05-21T10:00:17Z</time>
</trkpt>
<trkpt lat="60.217466" lon="24.8844">
<time>2021-05-21T10:00:18Z</time>
</trkpt>
<trkpt lat="60.21742" lon="24.884464">
<time>2021-05-21T10:00:19Z</time>
</trkpt>
<trkpt lat="60.217374" lon="24.884531">
<time>2021-05-21T10:00:20Z</time>
</trkpt>
<trkpt lat="60.217338" lon="24.884595">
<time>2021-05-21T10:00:21Z</time>
</trkpt>
<trkpt lat="60.217297" lon="24.884651">
<time>2021-05-21T10:00:22Z</time>
</trkpt>
<trkpt lat="60.217231" lon="24.884733">
<time>2021-05-21T10:00:24Z</time>
</trkpt>
<trkpt lat="60.217164" lon="24.884787">
<time>2021-05-21T10:00:26Z</time>
</trkpt>
<trkpt lat="60.217103" lon="24.884851">
<time>2021-05-21T10:00:28Z</time>
</trkpt>
<trkpt lat="60.217036" lon="24.88493">
<time>2021-05-21T10:00:31Z</time>
</trkpt>
<trkpt lat="60.216985" lon="24.88505">
<time>2021-05-21T10:00:33Z</time>
</trkpt>
<trkpt lat="60.216944" lon="24.885181">
<time>2021-05-21T10:00:35Z</time>
</trkpt>
<trkpt lat="60.216919" lon="24.885296">
<time>2021-05-21T10:00:37Z</time>
</trkpt>
<trkpt lat="60.216898" lon="24.885399">
<time>2021-05-21T10:00:39Z</time>
</trkpt>
<trkpt lat="60.216867" lon="24.885506">
<time>2021-05-21T10:00:41Z</time>
</trkpt>
<trkpt lat="60.216852" lon="24.885593">
<time>2021-05-21T10:00:43Z</time>
</trkpt>
<trkpt lat="60.216821" lon="24.885731">
<time>2021-05-21T10:00:50Z</time>
</trkpt>
<trkpt lat="60.216765" lon="24.885785">
<time>2021-05-21T10:00:54Z</time>
</trkpt>
<trkpt lat="60.216734" lon="24.8859">
<time>2021-05-21T10:01:02Z</time>
</trkpt>
<trkpt lat="60.216709" lon="24.885995">
<time>2021-05-21T10:01:06Z</time>
</trkpt>
<trkpt lat="60.216693" lon="24.886131">
<time>2021-05-21T10:01:11Z</time>
</trkpt>
<trkpt lat="60.216657" lon="24.886282">
<time>2021-05-21T10:01:14Z</time>
</trkpt>
<trkpt lat="60.216627" lon="24.886382">
<time>2021-05-21T10:01:16Z</time>
</trkpt>
<trkpt lat="60.216591" lon="24.886487">
<time>2021-05-21T10:01:18Z</time>
</trkpt>
<trkpt lat="60.216565" lon="24.886607">
<time>2021-05-21T10:01:20Z</time>
</trkpt>
<trkpt lat="60.216535" lon="24.886722">
<time>2021-05-21T10:01:22Z</time>
</trkpt>
<trkpt lat="60.216524" lon="24.886814">
<time>2021-05-21T10:01:24Z</time>
</trkpt>
<trkpt lat="60.216565" lon="24.886914">
<time>2021-05-21T10:01:39Z</time>
</trkpt>
<trkpt lat="60.216622" lon="24.886937">
<time>2021-05-21T10:01:43Z</time>
</trkpt>
<trkpt lat="60.216642" lon="24.887032">
<time>2021-05-21T10:01:54Z</time>
</trkpt>
<trkpt lat="60.216657" lon="24.88716">
<time>2021-05-21T10:01:59Z</time>
</trkpt>
<trkpt lat="60.216673" lon="24.887272">
<time>2021-05-21T10:02:02Z</time>
</trkpt>
<trkpt lat="60.216657" lon="24.887393">
<time>2021-05-21T10:02:05Z</time>
</trkpt>
<trkpt lat="60.216647" lon="24.887503">
<time>2021-05-21T10:02:08Z</time>
</trkpt>
<trkpt lat="60.216627" lon="24.887697">
<time>2021-05-21T10:02:11Z</time>
</trkpt>
<trkpt lat="60.216642" lon="24.887838">
<time>2021-05-21T10:02:13Z</time>
</trkpt>
<trkpt lat="60.216698" lon="24.887933">
<time>2021-05-21T10:02:15Z</time>
</trkpt>
<trkpt lat="60.216775" lon="24.887997">
<time>2021-05-21T10:02:17Z</time>
</trkpt>
<trkpt lat="60.216867" lon="24.888066">
<time>2021-05-21T10:02:19Z</time>
</trkpt>
<trkpt lat="60.216908" lon="24.888112">
<time>2021-05-21T10:02:20Z</time>
</trkpt>
<trkpt lat="60.21697" lon="24.888235">
<time>2021-05-21T10:02:22Z</time>
</trkpt>
<trkpt lat="60.216985" lon="24.888371">
<time>2021-05-21T10:02:24Z</time>
</trkpt>
<trkpt lat="60.216965" lon="24.888555">
<time>2021-05-21T10:02:26Z</time>
</trkpt>
<trkpt lat="60.216939" lon="24.888657">
<time>2021-05-21T10:02:27Z</time>
</trkpt>
<trkpt lat="60.216908" lon="24.88876">
<time>2021-05-21T10:02:28Z</time>
</trkpt>
<trkpt lat="60.216867" lon="24.888865">
<time>2021-05-21T10:02:29Z</time>
</trkpt>
<trkpt lat="60.216826" lon="24.888957">
<time>2021-05-21T10:02:30Z</time>
</trkpt>
<trkpt lat="60.216775" lon="24.889031">
<time>2021-05-21T10:02:31Z</time>
</trkpt>
<trkpt lat="60.216729" lon="24.88909">
<time>2021-05-21T10:02:32Z</time>
</trkpt>
<trkpt lat="60.216683" lon="24.889121">
<time>2021-05-21T10:02:33Z</time>
</trkpt>
<trkpt lat="60.216632" lon="24.889128">
<time>2021-05-21T10:02:34Z</time>
</trkpt>
<trkpt lat="60.216524" lon="24.88908">
<time>2021-05-21T10:02:36Z</time>
</trkpt>
<trkpt lat="60.216468" lon="24.889029">
<time>2021-05-21T10:02:37Z</time>
</trkpt>
<trkpt lat="60.216407" lon="24.888967">
<time>2021-05-21T10:02:38Z</time>
</trkpt>
<trkpt lat="60.21635" lon="24.888903">
<time>2021-05-21T10:02:39Z</time>
</trkpt>
<trkpt lat="60.216289" lon="24.888829">
<time>2021-05-21T10:02:40Z</time>
</trkpt>
<trkpt lat="60.216227" lon="24.888752">
<time>2021-05-21T10:02:41Z</time>
</trkpt>
<trkpt lat="60.216161" lon="24.88867">
<time>2021-05-21T10:02:42Z</time>
</trkpt>
<trkpt lat="60.216099" lon="24.888588">
<time>2021-05-21T10:02:43Z</time>
</trkpt>
<trkpt lat="60.216043" lon="24.888509">
<time>2021-05-21T10:02:44Z</time>
</trkpt>
<trkpt lat="60.215982" lon="24.888424">
<time>2021-05-21T10:02:45Z</time>
</trkpt>
<trkpt lat="60.21593" lon="24.888335">
<time>2021-05-21T10:02:46Z</time>
</trkpt>
<trkpt lat="60.215889" lon="24.888235">
<time>2021-05-21T10:02:47Z</time>
</trkpt>
<trkpt lat="60.215848" lon="24.888122">
<time>2021-05-21T10:02:48Z</time>
</trkpt>
<trkpt lat="60.215818" lon="24.888002">
<time>2021-05-21T10:02:49Z</time>
</trkpt>
<trkpt lat="60.215797" lon="24.887887">
<time>2021-05-21T10:02:50Z</time>
</trkpt>
<trkpt lat="60.215772" lon="24.887769">
<time>2021-05-21T10:02:51Z</time>
</trkpt>
<trkpt lat="60.215756" lon="24.887646">
<time>2021-05-21T10:02:52Z</time>
</trkpt>
<trkpt lat="60.215746" lon="24.887528">
<time>2021-05-21T10:02:53Z</time>
</trkpt>
<trkpt lat="60.215731" lon="24.887421">
<time>2021-05-21T10:02:54Z</time>
</trkpt>
<trkpt lat="60.215715" lon="24.887306">
<time>2021-05-21T10:02:55Z</time>
</trkpt>
<trkpt lat="60.215695" lon="24.887193">
<time>2021-05-21T10:02:56Z</time>
</trkpt>
<trkpt lat="60.215674" lon="24.887078">
<time>2021-05-21T10:02:57Z</time>
</trkpt>
<trkpt lat="60.215654" lon="24.88696">
<time>2021-05-21T10:02:58Z</time>
</trkpt>
<trkpt lat="60.215639" lon="24.886853">
<time>2021-05-21T10:02:59Z</time>
</trkpt>
<trkpt lat="60.215623" lon="24.886732">
<time>2021-05-21T10:03:00Z</time>
</trkpt>
<trkpt lat="60.215603" lon="24.886609">
<time>2021-05-21T10:03:01Z</time>
</trkpt>
<trkpt lat="60.215587" lon="24.886489">
<time>2021-05-21T10:03:02Z</time>
</trkpt>
<trkpt lat="60.215577" lon="24.886376">
<time>2021-05-21T10:03:03Z</time>
</trkpt>
<trkpt lat="60.215562" lon="24.886256">
<time>2021-05-21T10:03:04Z</time>
</trkpt>
<trkpt lat="60.215546" lon="24.886138">
<time>2021-05-21T10:03:05Z</time>
</trkpt>
<trkpt lat="60.215531" lon="24.886023">
<time>2021-05-21T10:03:06Z</time>
</trkpt>
<trkpt lat="60.215516" lon="24.885913">
<time>2021-05-21T10:03:07Z</time>
</trkpt>
<trkpt lat="60.2155" lon="24.885806">
<time>2021-05-21T10:03:08Z</time>
</trkpt>
<trkpt lat="60.21548" lon="24.885703">
<time>2021-05-21T10:03:09Z</time>
</trkpt>
<trkpt lat="60.215459" lon="24.885614">
<time>2021-05-21T10:03:10Z</time>
</trkpt>
<trkpt lat="60.215434" lon="24.885519">
<time>2021-05-21T10:03:11Z</time>
</trkpt>
<trkpt lat="60.215413" lon="24.885432">
<time>2021-05-21T10:03:12Z</time>
</trkpt>
<trkpt lat="60.215383" lon="24.885271">
<time>2021-05-21T10:03:15Z</time>
</trkpt>
<trkpt lat="60.215357" lon="24.885153">
<time>2021-05-21T10:03:16Z</time>
</trkpt>
<trkpt lat="60.215352" lon="24.88514">
<time>2021-05-21T10:03:20Z</time>
</trkpt>
<trkpt lat="60.215316" lon="24.88526">
<time>2021-05-21T10:03:24Z</time>
</trkpt>
<trkpt lat="60.215265" lon="24.885363">
<time>2021-05-21T10:03:27Z</time>
</trkpt>
<trkpt lat="60.215193" lon="24.885424">
<time>2021-05-21T10:03:30Z</time>
</trkpt>
<trkpt lat="60.215086" lon="24.88548">
<time>2021-05-21T10:03:41Z</time>
</trkpt>
<trkpt lat="60.215024" lon="24.885516">
<time>2021-05-21T10:03:45Z</time>
</trkpt>
<trkpt lat="60.214952" lon="24.88557">
<time>2021-05-21T10:03:53Z</time>
</trkpt>
<trkpt lat="60.214922" lon="24.885688">
<time>2021-05-21T10:03:57Z</time>
</trkpt>
<trkpt lat="60.214932" lon="24.885798">
<time>2021-05-21T10:04:00Z</time>
</trkpt>
<trkpt lat="60.214937" lon="24.885864">
<time>2021-05-21T10:04:16Z</time>
</trkpt>
<trkpt lat="60.214932" lon="24.88576">
<time>2021-05-21T10:04:20Z</time>
</trkpt>
<trkpt lat="60.214978" lon="24.885696">
<time>2021-05-21T10:04:25Z</time>
</trkpt>
<trkpt lat="60.215019" lon="24.885598">
<time>2021-05-21T10:04:28Z</time>
</trkpt>
<trkpt lat="60.215055" lon="24.885491">
<time>2021-05-21T10:04:31Z</time>
</trkpt>
<trkpt lat="60.215065" lon="24.885391">
<time>2021-05-21T10:04:34Z</time>
</trkpt>
<trkpt lat="60.215111" lon="24.885312">
<time>2021-05-21T10:04:40Z</time>
</trkpt>
<trkpt lat="60.215188" lon="24.885278">
<time>2021-05-21T10:04:44Z</time>
</trkpt>
<trkpt lat="60.215244" lon="24.885248">
<time>2021-05-21T10:04:47Z</time>
</trkpt>
<trkpt lat="60.215306" lon="24.885201">
<time>2021-05-21T10:04:50Z</time>
</trkpt>
<trkpt lat="60.215352" lon="24.885145">
<time>2021-05-21T10:04:52Z</time>
</trkpt>
<trkpt lat="60.215398" lon="24.885073">
<time>2021-05-21T10:04:54Z</time>
</trkpt>
<trkpt lat="60.21547" lon="24.884961">
<time>2021-05-21T10:04:57Z</time>
</trkpt>
<trkpt lat="60.215511" lon="24.884897">
<time>2021-05-21T10:04:59Z</time>
</trkpt>
<trkpt lat="60.215552" lon="24.884825">
<time>2021-05-21T10:05:01Z</time>
</trkpt>
<trkpt lat="60.215592" lon="24.884733">
<time>2021-05-21T10:05:03Z</time>
</trkpt>
<trkpt lat="60.215659" lon="24.884608">
<time>2021-05-21T10:05:06Z</time>
</trkpt>
<trkpt lat="60.21571" lon="24.884546">
<time>2021-05-21T10:05:08Z</time>
</trkpt>
<trkpt lat="60.215756" lon="24.884485">
<time>2021-05-21T10:05:10Z</time>
</trkpt>
<trkpt lat="60.215797" lon="24.884431">
<time>2021-05-21T10:05:12Z</time>
</trkpt>
<trkpt lat="60.215823" lon="24.884385">
<time>2021-05-21T10:05:15Z</time>
</trkpt>
<trkpt lat="60.215792" lon="24.884439">
<time>2021-05-21T10:05:23Z</time>
</trkpt>
<trkpt lat="60.215797" lon="24.884551">
<time>2021-05-21T10:05:27Z</time>
</trkpt>
<trkpt lat="60.215838" lon="24.884577">
<time>2021-05-21T10:05:33Z</time>
</trkpt>
<trkpt lat="60.21591" lon="24.884554">
<time>2021-05-21T10:05:37Z</time>
</trkpt>
<trkpt lat="60.215951" lon="24.884613">
<time>2021-05-21T10:05:40Z</time>
</trkpt>
<trkpt lat="60.215997" lon="24.884705">
<time>2021-05-21T10:05:43Z</time>
</trkpt>
<trkpt lat="60.216043" lon="24.884833">
<time>2021-05-21T10:05:46Z</time>
</trkpt>
<trkpt lat="60.216079" lon="24.884917">
<time>2021-05-21T10:05:48Z</time>
</trkpt>
<trkpt lat="60.216115" lon="24.884966">
<time>2021-05-21T10:05:50Z</time>
</trkpt>
<trkpt lat="60.216186" lon="24.884945">
<time>2021-05-21T10:05:56Z</time>
</trkpt>
<trkpt lat="60.216258" lon="24.884861">
<time>2021-05-21T10:05:59Z</time>
</trkpt>
<trkpt lat="60.216325" lon="24.884774">
<time>2021-05-21T10:06:01Z</time>
</trkpt>
<trkpt lat="60.216407" lon="24.884666">
<time>2021-05-21T10:06:03Z</time>
</trkpt>
<trkpt lat="60.216448" lon="24.88461">
<time>2021-05-21T10:06:04Z</time>
</trkpt>
<trkpt lat="60.216519" lon="24.884518">
<time>2021-05-21T10:06:06Z</time>
</trkpt>
<trkpt lat="60.216596" lon="24.884459">
<time>2021-05-21T10:06:08Z</time>
</trkpt>
<trkpt lat="60.216678" lon="24.884441">
<time>2021-05-21T10:06:10Z</time>
</trkpt>
<trkpt lat="60.216755" lon="24.884451">
<time>2021-05-21T10:06:12Z</time>
</trkpt>
<trkpt lat="60.216821" lon="24.884477">
<time>2021-05-21T10:06:14Z</time>
</trkpt>
<trkpt lat="60.216888" lon="24.884508">
<time>2021-05-21T10:06:17Z</time>
</trkpt>
<trkpt lat="60.21697" lon="24.884503">
<time>2021-05-21T10:06:18Z</time>
</trkpt>
<trkpt lat="60.217047" lon="24.884431">
<time>2021-05-21T10:06:20Z</time>
</trkpt>
<trkpt lat="60.217113" lon="24.884341">
<time>2021-05-21T10:06:22Z</time>
</trkpt>
<trkpt lat="60.21719" lon="24.884295">
<time>2021-05-21T10:06:24Z</time>
</trkpt>
<trkpt lat="60.217272" lon="24.884288">
<time>2021-05-21T10:06:26Z</time>
</trkpt>
<trkpt lat="60.217359" lon="24.884298">
<time>2021-05-21T10:06:28Z</time>
</trkpt>
<trkpt lat="60.217456" lon="24.884288">
<time>2021-05-21T10:06:30Z</time>
</trkpt>
<trkpt lat="60.217548" lon="24.884244">
<time>2021-05-21T10:06:32Z</time>
</trkpt>
<trkpt lat="60.217594" lon="24.884218">
<time>2021-05-21T10:06:33Z</time>
</trkpt>
<trkpt lat="60.217687" lon="24.884152">
<time>2021-05-21T10:06:35Z</time>
</trkpt>
<trkpt lat="60.217779" lon="24.884078">
<time>2021-05-21T10:06:37Z</time>
</trkpt>
<trkpt lat="60.217861" lon="24.883998">
<time>2021-05-21T10:06:39Z</time>
</trkpt>
<trkpt lat="60.217943" lon="24.883934">
<time>2021-05-21T10:06:41Z</time>
</trkpt>
<trkpt lat="60.218035" lon="24.883891">
<time>2021-05-21T10:06:43Z</time>
</trkpt>
<trkpt lat="60.218127" lon="24.88385">
<time>2021-05-21T10:06:45Z</time>
</trkpt>
<trkpt lat="60.218178" lon="24.883827">
<time>2021-05-21T10:06:46Z</time>
</trkpt>
<trkpt lat="60.218234" lon="24.883793">
<time>2021-05-21T10:06:47Z</time>
</trkpt>
<trkpt lat="60.218291" lon="24.883747">
<time>2021-05-21T10:06:48Z</time>
</trkpt>
<trkpt lat="60.218347" lon="24.883683">
<time>2021-05-21T10:06:49Z</time>
</trkpt>
<trkpt lat="60.218393" lon="24.883607">
<time>2021-05-21T10:06:50Z</time>
</trkpt>
<trkpt lat="60.218444" lon="24.883527">
<time>2021-05-21T10:06:51Z</time>
</trkpt>
<trkpt lat="60.218496" lon="24.88344">
<time>2021-05-21T10:06:52Z</time>
</trkpt>
<trkpt lat="60.218547" lon="24.883358">
<time>2021-05-21T10:06:53Z</time>
</trkpt>
<trkpt lat="60.218603" lon="24.883284">
<time>2021-05-21T10:06:54Z</time>
</trkpt>
<trkpt lat="60.218664" lon="24.88322">
<time>2021-05-21T10:06:55Z</time>
</trkpt>
<trkpt lat="60.218731" lon="24.883161">
<time>2021-05-21T10:06:56Z</time>
</trkpt>
<trkpt lat="60.218798" lon="24.88311">
<time>2021-05-21T10:06:57Z</time>
</trkpt>
<trkpt lat="60.218859" lon="24.883069">
<time>2021-05-21T10:06:58Z</time>
</trkpt>
<trkpt lat="60.218915" lon="24.883048">
<time>2021-05-21T10:06:59Z</time>
</trkpt>
<trkpt lat="60.218961" lon="24.883054">
<time>2021-05-21T10:07:00Z</time>
</trkpt>
<trkpt lat="60.219043" lon="24.883141">
<time>2021-05-21T10:07:02Z</time>
</trkpt>
<trkpt lat="60.219084" lon="24.883299">
<time>2021-05-21T10:07:04Z</time>
</trkpt>
<trkpt lat="60.2191" lon="24.883507">
<time>2021-05-21T10:07:06Z</time>
</trkpt>
<trkpt lat="60.219095" lon="24.883619">
<time>2021-05-21T10:07:07Z</time>
</trkpt>
<trkpt lat="60.219095" lon="24.883729">
<time>2021-05-21T10:07:08Z</time>
</trkpt>
<trkpt lat="60.219089" lon="24.883852">
<time>2021-05-21T10:07:09Z</time>
</trkpt>
<trkpt lat="60.219084" lon="24.883975">
<time>2021-05-21T10:07:10Z</time>
</trkpt>
<trkpt lat="60.219079" lon="24.884098">
<time>2021-05-21T10:07:11Z</time>
</trkpt>
<trkpt lat="60.219069" lon="24.884211">
<time>2021-05-21T10:07:12Z</time>
</trkpt>
<trkpt lat="60.219064" lon="24.884305">
<time>2021-05-21T10:07:13Z</time>
</trkpt>
<trkpt lat="60.219059" lon="24.884392">
<time>2021-05-21T10:07:14Z</time>
</trkpt>
<trkpt lat="60.219038" lon="24.88451">
<time>2021-05-21T10:07:16Z</time>
</trkpt>
<trkpt lat="60.218992" lon="24.884528">
<time>2021-05-21T10:07:19Z</time>
</trkpt>
<trkpt lat="60.218936" lon="24.884446">
<time>2021-05-21T10:07:22Z</time>
</trkpt>
<trkpt lat="60.218885" lon="24.884354">
<time>2021-05-21T10:07:25Z</time>
</trkpt>
<trkpt lat="60.218839" lon="24.884282">
<time>2021-05-21T10:07:28Z</time>
</trkpt>
<trkpt lat="60.218859" lon="24.884328">
<time>2021-05-21T10:07:35Z</time>
</trkpt>
<trkpt lat="60.218915" lon="24.884459">
<time>2021-05-21T10:07:38Z</time>
</trkpt>
<trkpt lat="60.218961" lon="24.884536">
<time>2021-05-21T10:07:40Z</time>
</trkpt>
<trkpt lat="60.219008" lon="24.884595">
<time>2021-05-21T10:07:42Z</time>
</trkpt>
<trkpt lat="60.219048" lon="24.884661">
<time>2021-05-21T10:07:45Z</time>
</trkpt>
<trkpt lat="60.219115" lon="24.884697">
<time>2021-05-21T10:07:49Z</time>
</trkpt>
<trkpt lat="60.219187" lon="24.88472">
<time>2021-05-21T10:07:52Z</time>
</trkpt>
<trkpt lat="60.219233" lon="24.884715">
<time>2021-05-21T10:07:55Z</time>
</trkpt>
<trkpt lat="60.219289" lon="24.884631">
<time>2021-05-21T10:07:58Z</time>
</trkpt>
<trkpt lat="60.219335" lon="24.884541">
<time>2021-05-21T10:08:00Z</time>
</trkpt>
<trkpt lat="60.219386" lon="24.884459">
<time>2021-05-21T10:08:02Z</time>
</trkpt>
<trkpt lat="60.219443" lon="24.884403">
<time>2021-05-21T10:08:04Z</time>
</trkpt>
<trkpt lat="60.219499" lon="24.884367">
<time>2021-05-21T10:08:06Z</time>
</trkpt>
<trkpt lat="60.219535" lon="24.884316">
<time>2021-05-21T10:08:08Z</time>
</trkpt>
<trkpt lat="60.219545" lon="24.884183">
<time>2021-05-21T10:08:11Z</time>
</trkpt>
<trkpt lat="60.219545" lon="24.884075">
<time>2021-05-21T10:08:13Z</time>
</trkpt>
<trkpt lat="60.21956" lon="24.88395">
<time>2021-05-21T10:08:15Z</time>
</trkpt>
<trkpt lat="60.219591" lon="24.883819">
<time>2021-05-21T10:08:17Z</time>
</trkpt>
<trkpt lat="60.219622" lon="24.883699">
<time>2021-05-21T10:08:19Z</time>
</trkpt>
<trkpt lat="60.219648" lon="24.883599">
<time>2021-05-21T10:08:21Z</time>
</trkpt>
<trkpt lat="60.219688" lon="24.883532">
<time>2021-05-21T10:08:23Z</time>
</trkpt>
<trkpt lat="60.21974" lon="24.883486">
<time>2021-05-21T10:08:25Z</time>
</trkpt>
<trkpt lat="60.219811" lon="24.883445">
<time>2021-05-21T10:08:27Z</time>
</trkpt>
<trkpt lat="60.219904" lon="24.883415">
<time>2021-05-21T10:08:29Z</time>
</trkpt>
<trkpt lat="60.220001" lon="24.883389">
<time>2021-05-21T10:08:31Z</time>
</trkpt>
<trkpt lat="60.220052" lon="24.883381">
<time>2021-05-21T10:08:32Z</time>
</trkpt>
<trkpt lat="60.22016" lon="24.883358">
<time>2021-05-21T10:08:34Z</time>
</trkpt>
<trkpt lat="60.220216" lon="24.883338">
<time>2021-05-21T10:08:35Z</time>
</trkpt>
<trkpt lat="60.220277" lon="24.883315">
<time>2021-05-21T10:08:36Z</time>
</trkpt>
<trkpt lat="60.220339" lon="24.883284">
<time>2021-05-21T10:08:37Z</time>
</trkpt>
<trkpt lat="60.2204" lon="24.883261">
<time>2021-05-21T10:08:38Z</time>
</trkpt>
<trkpt lat="60.220451" lon="24.883258">
<time>2021-05-21T10:08:39Z</time>
</trkpt>
<trkpt lat="60.220497" lon="24.883276">
<time>2021-05-21T10:08:40Z</time>
</trkpt>
<trkpt lat="60.220569" lon="24.883376">
<time>2021-05-21T10:08:42Z</time>
</trkpt>
<trkpt lat="60.22062" lon="24.883525">
<time>2021-05-21T10:08:44Z</time>
</trkpt>
<trkpt lat="60.220677" lon="24.883699">
<time>2021-05-21T10:08:46Z</time>
</trkpt>
<trkpt lat="60.220697" lon="24.883783">
<time>2021-05-21T10:08:47Z</time>
</trkpt>
<trkpt lat="60.220748" lon="24.883978">
<time>2021-05-21T10:08:49Z</time>
</trkpt>
<trkpt lat="60.220769" lon="24.884083">
<time>2021-05-21T10:08:50Z</time>
</trkpt>
<trkpt lat="60.220779" lon="24.884183">
<time>2021-05-21T10:08:51Z</time>
</trkpt>
<trkpt lat="60.220789" lon="24.884375">
<time>2021-05-21T10:08:53Z</time>
</trkpt>
<trkpt lat="60.220774" lon="24.884554">
<time>2021-05-21T10:08:55Z</time>
</trkpt>
<trkpt lat="60.220748" lon="24.88472">
<time>2021-05-21T10:08:57Z</time>
</trkpt>
<trkpt lat="60.220718" lon="24.884869">
<time>2021-05-21T10:08:59Z</time>
</trkpt>
<trkpt lat="60.220682" lon="24.885004">
<time>2021-05-21T10:09:01Z</time>
</trkpt>
<trkpt lat="60.220636" lon="24.885112">
<time>2021-05-21T10:09:03Z</time>
</trkpt>
<trkpt lat="60.22059" lon="24.885178">
<time>2021-05-21T10:09:05Z</time>
</trkpt>
<trkpt lat="60.220518" lon="24.885184">
<time>2021-05-21T10:09:08Z</time>
</trkpt>
<trkpt lat="60.220462" lon="24.885153">
<time>2021-05-21T10:09:11Z</time>
</trkpt>
<trkpt lat="60.22038" lon="24.885073">
<time>2021-05-21T10:09:25Z</time>
</trkpt>
<trkpt lat="60.220349" lon="24.884948">
<time>2021-05-21T10:09:28Z</time>
</trkpt>
<trkpt lat="60.220303" lon="24.884848">
<time>2021-05-21T10:09:31Z</time>
</trkpt>
<trkpt lat="60.220262" lon="24.884828">
<time>2021-05-21T10:09:35Z</time>
</trkpt>
<trkpt lat="60.220236" lon="24.88494">
<time>2021-05-21T10:09:43Z</time>
</trkpt>
<trkpt lat="60.220241" lon="24.885073">
<time>2021-05-21T10:09:46Z</time>
</trkpt>
<trkpt lat="60.220241" lon="24.885178">
<time>2021-05-21T10:09:48Z</time>
</trkpt>
<trkpt lat="60.220247" lon="24.885304">
<time>2021-05-21T10:09:50Z</time>
</trkpt>
<trkpt lat="60.220262" lon="24.885447">
<time>2021-05-21T10:09:52Z</time>
</trkpt>
<trkpt lat="60.220288" lon="24.885588">
<time>2021-05-21T10:09:54Z</time>
</trkpt>
<trkpt lat="60.220323" lon="24.885726">
<time>2021-05-21T10:09:56Z</time>
</trkpt>
<trkpt lat="60.220359" lon="24.885849">
<time>2021-05-21T10:09:58Z</time>
</trkpt>
<trkpt lat="60.22039" lon="24.885926">
<time>2021-05-21T10:10:01Z</time>
</trkpt>
<trkpt lat="60.220441" lon="24.885872">
<time>2021-05-21T10:10:04Z</time>
</trkpt>
<trkpt lat="60.220472" lon="24.88576">
<time>2021-05-21T10:10:06Z</time>
</trkpt>
<trkpt lat="60.220513" lon="24.885603">
<time>2021-05-21T10:10:08Z</time>
</trkpt>
<trkpt lat="60.220538" lon="24.885511">
<time>2021-05-21T10:10:09Z</time>
</trkpt>
<trkpt lat="60.2206" lon="24.885317">
<time>2021-05-21T10:10:11Z</time>
</trkpt>
<trkpt lat="60.220636" lon="24.885207">
<time>2021-05-21T10:10:12Z</time>
</trkpt>
<trkpt lat="60.220666" lon="24.885096">
<time>2021-05-21T10:10:13Z</time>
</trkpt>
<trkpt lat="60.220707" lon="24.884984">
<time>2021-05-21T10:10:14Z</time>
</trkpt>
<trkpt lat="60.220743" lon="24.884866">
<time>2021-05-21T10:10:15Z</time>
</trkpt>
<trkpt lat="60.220769" lon="24.884743">
<time>2021-05-21T10:10:16Z</time>
</trkpt>
<trkpt lat="60.220794" lon="24.88461">
<time>2021-05-21T10:10:17Z</time>
</trkpt>
<trkpt lat="60.220805" lon="24.884469">
<time>2021-05-21T10:10:18Z</time>
</trkpt>
<trkpt lat="60.220805" lon="24.884326">
<time>2021-05-21T10:10:19Z</time>
</trkpt>
<trkpt lat="60.2208" lon="24.884183">
<time>2021-05-21T10:10:20Z</time>
</trkpt>
<trkpt lat="60.220779" lon="24.884039">
<time>2021-05-21T10:10:21Z</time>
</trkpt>
<trkpt lat="60.220759" lon="24.883898">
<time>2021-05-21T10:10:22Z</time>
</trkpt>
<trkpt lat="60.220728" lon="24.883755">
<time>2021-05-21T10:10:23Z</time>
</trkpt>
<trkpt lat="60.220702" lon="24.883614">
<time>2021-05-21T10:10:24Z</time>
</trkpt>
<trkpt lat="60.220682" lon="24.883476">
<time>2021-05-21T10:10:25Z</time>
</trkpt>
<trkpt lat="60.220672" lon="24.883343">
<time>2021-05-21T10:10:26Z</time>
</trkpt>
<trkpt lat="60.220672" lon="24.883212">
<time>2021-05-21T10:10:27Z</time>
</trkpt>
<trkpt lat="60.220682" lon="24.883089">
<time>2021-05-21T10:10:28Z</time>
</trkpt>
<trkpt lat="60.220702" lon="24.882967">
<time>2021-05-21T10:10:29Z</time>
</trkpt>
<trkpt lat="60.220728" lon="24.882844">
<time>2021-05-21T10:10:30Z</time>
</trkpt>
<trkpt lat="60.220753" lon="24.882726">
<time>2021-05-21T10:10:31Z</time>
</trkpt>
<trkpt lat="60.220784" lon="24.882595">
<time>2021-05-21T10:10:32Z</time>
</trkpt>
<trkpt lat="60.22081" lon="24.88247">
<time>2021-05-21T10:10:33Z</time>
</trkpt>
<trkpt lat="60.22084" lon="24.882342">
<time>2021-05-21T10:10:34Z</time>
</trkpt>
<trkpt lat="60.220876" lon="24.882222">
<time>2021-05-21T10:10:35Z</time>
</trkpt>
<trkpt lat="60.220917" lon="24.882101">
<time>2021-05-21T10:10:36Z</time>
</trkpt>
<trkpt lat="60.220958" lon="24.881984">
<time>2021-05-21T10:10:37Z</time>
</trkpt>
<trkpt lat="60.220994" lon="24.881858">
<time>2021-05-21T10:10:38Z</time>
</trkpt>
<trkpt lat="60.221035" lon="24.881733">
<time>2021-05-21T10:10:39Z</time>
</trkpt>
<trkpt lat="60.221086" lon="24.881582">
<time>2021-05-21T10:10:40Z</time>
</trkpt>
<trkpt lat="60.221137" lon="24.881448">
<time>2021-05-21T10:10:41Z</time>
</trkpt>
<trkpt lat="60.221194" lon="24.881346">
<time>2021-05-21T10:10:42Z</time>
</trkpt>
<trkpt lat="60.22125" lon="24.881272">
<time>2021-05-21T10:10:43Z</time>
</trkpt>
<trkpt lat="60.221322" lon="24.881213">
<time>2021-05-21T10:10:44Z</time>
</trkpt>
<trkpt lat="60.221414" lon="24.881162">
<time>2021-05-21T10:10:45Z</time>
</trkpt>
<trkpt lat="60.221506" lon="24.881113">
<time>2021-05-21T10:10:46Z</time>
</trkpt>
<trkpt lat="60.221593" lon="24.88107">
<time>2021-05-21T10:10:47Z</time>
</trkpt>
<trkpt lat="60.221685" lon="24.881041">
<time>2021-05-21T10:10:48Z</time>
</trkpt>
<trkpt lat="60.221762" lon="24.881013">
<time>2021-05-21T10:10:49Z</time>
</trkpt>
<trkpt lat="60.221849" lon="24.88099">
<time>2021-05-21T10:10:50Z</time>
</trkpt>
<trkpt lat="60.221921" lon="24.880967">
<time>2021-05-21T10:10:51Z</time>
</trkpt>
<trkpt lat="60.221987" lon="24.880949">
<time>2021-05-21T10:10:52Z</time>
</trkpt>
<trkpt lat="60.222049" lon="24.880939">
<time>2021-05-21T10:10:53Z</time>
</trkpt>
<trkpt lat="60.22212" lon="24.880949">
<time>2021-05-21T10:10:54Z</time>
</trkpt>
<trkpt lat="60.222182" lon="24.880983">
<time>2021-05-21T10:10:55Z</time>
</trkpt>
<trkpt lat="60.222233" lon="24.881039">
<time>2021-05-21T10:10:56Z</time>
</trkpt>
<trkpt lat="60.222269" lon="24.881116">
<time>2021-05-21T10:10:57Z</time>
</trkpt>
<trkpt lat="60.222284" lon="24.881213">
<time>2021-05-21T10:10:58Z</time>
</trkpt>
<trkpt lat="60.222295" lon="24.88131">
<time>2021-05-21T10:10:59Z</time>
</trkpt>
<trkpt lat="60.222274" lon="24.881548">
<time>2021-05-21T10:11:01Z</time>
</trkpt>
<trkpt lat="60.222254" lon="24.881684">
<time>2021-05-21T10:11:02Z</time>
</trkpt>
<trkpt lat="60.222223" lon="24.881817">
<time>2021-05-21T10:11:03Z</time>
</trkpt>
<trkpt lat="60.222192" lon="24.881953">
<time>2021-05-21T10:11:04Z</time>
</trkpt>
<trkpt lat="60.222161" lon="24.882086">
<time>2021-05-21T10:11:05Z</time>
</trkpt>
<trkpt lat="60.222131" lon="24.882214">
<time>2021-05-21T10:11:06Z</time>
</trkpt>
<trkpt lat="60.222105" lon="24.882339">
<time>2021-05-21T10:11:07Z</time>
</trkpt>
<trkpt lat="60.222074" lon="24.882452">
<time>2021-05-21T10:11:08Z</time>
</trkpt>
<trkpt lat="60.222049" lon="24.882567">
<time>2021-05-21T10:11:09Z</time>
</trkpt>
<trkpt lat="60.222023" lon="24.882677">
<time>2021-05-21T10:11:10Z</time>
</trkpt>
<trkpt lat="60.221998" lon="24.882785">
<time>2021-05-21T10:11:11Z</time>
</trkpt>
<trkpt lat="60.221972" lon="24.882892">
<time>2021-05-21T10:11:12Z</time>
</trkpt>
<trkpt lat="60.221952" lon="24.883002">
<time>2021-05-21T10:11:13Z</time>
</trkpt>
<trkpt lat="60.221931" lon="24.883115">
<time>2021-05-21T10:11:15Z</time>
</trkpt>
<trkpt lat="60.221895" lon="24.883338">
<time>2021-05-21T10:11:16Z</time>
</trkpt>
<trkpt lat="60.221875" lon="24.883456">
<time>2021-05-21T10:11:17Z</time>
</trkpt>
<trkpt lat="60.221849" lon="24.88365">
<time>2021-05-21T10:11:18Z</time>
</trkpt>
<trkpt lat="60.221824" lon="24.883824">
<time>2021-05-21T10:11:19Z</time>
</trkpt>
<trkpt lat="60.221803" lon="24.883985">
<time>2021-05-21T10:11:20Z</time>
</trkpt>
<trkpt lat="60.221798" lon="24.884136">
<time>2021-05-21T10:11:21Z</time>
</trkpt>
<trkpt lat="60.221803" lon="24.884249">
<time>2021-05-21T10:11:22Z</time>
</trkpt>
<trkpt lat="60.221824" lon="24.884328">
<time>2021-05-21T10:11:23Z</time>
</trkpt>
<trkpt lat="60.221911" lon="24.884344">
<time>2021-05-21T10:11:25Z</time>
</trkpt>
<trkpt lat="60.222008" lon="24.8844">
<time>2021-05-21T10:11:27Z</time>
</trkpt>
<trkpt lat="60.222059" lon="24.884439">
<time>2021-05-21T10:11:28Z</time>
</trkpt>
<trkpt lat="60.222115" lon="24.884485">
<time>2021-05-21T10:11:29Z</time>
</trkpt>
<trkpt lat="60.222172" lon="24.884541">
<time>2021-05-21T10:11:30Z</time>
</trkpt>
<trkpt lat="60.222223" lon="24.884608">
<time>2021-05-21T10:11:31Z</time>
</trkpt>
<trkpt lat="60.222269" lon="24.884682">
<time>2021-05-21T10:11:32Z</time>
</trkpt>
<trkpt lat="60.22231" lon="24.884759">
<time>2021-05-21T10:11:33Z</time>
</trkpt>
<trkpt lat="60.222351" lon="24.884828">
<time>2021-05-21T10:11:34Z</time>
</trkpt>
<trkpt lat="60.222382" lon="24.884897">
<time>2021-05-21T10:11:35Z</time>
</trkpt>
<trkpt lat="60.222443" lon="24.885027">
<time>2021-05-21T10:11:37Z</time>
</trkpt>
<trkpt lat="60.222504" lon="24.88513">
<time>2021-05-21T10:11:39Z</time>
</trkpt>
<trkpt lat="60.222581" lon="24.885199">
<time>2021-05-21T10:11:41Z</time>
</trkpt>
<trkpt lat="60.222673" lon="24.885263">
<time>2021-05-21T10:11:43Z</time>
</trkpt>
<trkpt lat="60.222771" lon="24.885342">
<time>2021-05-21T10:11:45Z</time>
</trkpt>
<trkpt lat="60.222822" lon="24.885393">
<time>2021-05-21T10:11:46Z</time>
</trkpt>
<trkpt lat="60.222878" lon="24.885447">
<time>2021-05-21T10:11:47Z</time>
</trkpt>
<trkpt lat="60.222924" lon="24.885509">
<time>2021-05-21T10:11:48Z</time>
</trkpt>
<trkpt lat="60.222976" lon="24.885573">
<time>2021-05-21T10:11:50Z</time>
</trkpt>
<trkpt lat="60.223083" lon="24.885716">
<time>2021-05-21T10:11:52Z</time>
</trkpt>
<trkpt lat="60.223185" lon="24.885862">
<time>2021-05-21T10:11:53Z</time>
</trkpt>
<trkpt lat="60.223232" lon="24.885928">
<time>2021-05-21T10:11:54Z</time>
</trkpt>
<trkpt lat="60.223329" lon="24.886072">
<time>2021-05-21T10:11:56Z</time>
</trkpt>
<trkpt lat="60.223375" lon="24.886144">
<time>2021-05-21T10:11:57Z</time>
</trkpt>
<trkpt lat="60.223421" lon="24.886208">
<time>2021-05-21T10:11:58Z</time>
</trkpt>
<trkpt lat="60.223472" lon="24.886264">
<time>2021-05-21T10:11:59Z</time>
</trkpt>
<trkpt lat="60.223528" lon="24.886307">
<time>2021-05-21T10:12:00Z</time>
</trkpt>
<trkpt lat="60.223585" lon="24.886336">
<time>2021-05-21T10:12:01Z</time>
</trkpt>
<trkpt lat="60.223646" lon="24.886346">
<time>2021-05-21T10:12:02Z</time>
</trkpt>
<trkpt lat="60.223703" lon="24.886343">
<time>2021-05-21T10:12:03Z</time>
</trkpt>
<trkpt lat="60.223805" lon="24.886264">
<time>2021-05-21T10:12:05Z</time>
</trkpt>
<trkpt lat="60.223851" lon="24.886195">
<time>2021-05-21T10:12:06Z</time>
</trkpt>
<trkpt lat="60.223887" lon="24.886113">
<time>2021-05-21T10:12:07Z</time>
</trkpt>
<trkpt lat="60.223923" lon="24.886018">
<time>2021-05-21T10:12:08Z</time>
</trkpt>
<trkpt lat="60.223953" lon="24.885918">
<time>2021-05-21T10:12:09Z</time>
</trkpt>
<trkpt lat="60.223984" lon="24.885806">
<time>2021-05-21T10:12:10Z</time>
</trkpt>
<trkpt lat="60.224015" lon="24.885685">
<time>2021-05-21T10:12:11Z</time>
</trkpt>
<trkpt lat="60.224046" lon="24.885565">
<time>2021-05-21T10:12:12Z</time>
</trkpt>
<trkpt lat="60.224081" lon="24.885452">
<time>2021-05-21T10:12:13Z</time>
</trkpt>
<trkpt lat="60.224122" lon="24.885345">
<time>2021-05-21T10:12:14Z</time>
</trkpt>
<trkpt lat="60.224168" lon="24.885253">
<time>2021-05-21T10:12:15Z</time>
</trkpt>
<trkpt lat="60.22422" lon="24.885176">
<time>2021-05-21T10:12:16Z</time>
</trkpt>
<trkpt lat="60.224271" lon="24.885109">
<time>2021-05-21T10:12:17Z</time>
</trkpt>
<trkpt lat="60.224348" lon="24.885027">
<time>2021-05-21T10:12:18Z</time>
</trkpt>
<trkpt lat="60.224424" lon="24.884953">
<time>2021-05-21T10:12:19Z</time>
</trkpt>
<trkpt lat="60.224501" lon="24.884887">
<time>2021-05-21T10:12:20Z</time>
</trkpt>
<trkpt lat="60.224573" lon="24.884825">
<time>2021-05-21T10:12:21Z</time>
</trkpt>
<trkpt lat="60.224645" lon="24.884769">
<time>2021-05-21T10:12:22Z</time>
</trkpt>
<trkpt lat="60.224711" lon="24.884718">
<time>2021-05-21T10:12:23Z</time>
</trkpt>
<trkpt lat="60.224773" lon="24.884669">
<time>2021-05-21T10:12:24Z</time>
</trkpt>
<trkpt lat="60.224829" lon="24.884579">
<time>2021-05-21T10:12:25Z</time>
</trkpt>
<trkpt lat="60.224885" lon="24.88449">
<time>2021-05-21T10:12:26Z</time>
</trkpt>
<trkpt lat="60.224942" lon="24.884403">
<time>2021-05-21T10:12:27Z</time>
</trkpt>
<trkpt lat="60.224993" lon="24.884308">
<time>2021-05-21T10:12:28Z</time>
</trkpt>
<trkpt lat="60.225039" lon="24.884211">
<time>2021-05-21T10:12:29Z</time>
</trkpt>
<trkpt lat="60.225095" lon="24.884108">
<time>2021-05-21T10:12:30Z</time>
</trkpt>
<trkpt lat="60.225141" lon="24.883996">
<time>2021-05-21T10:12:31Z</time>
</trkpt>
<trkpt lat="60.225187" lon="24.883873">
<time>2021-05-21T10:12:32Z</time>
</trkpt>
<trkpt lat="60.225228" lon="24.883747">
<time>2021-05-21T10:12:33Z</time>
</trkpt>
<trkpt lat="60.22528" lon="24.883622">
<time>2021-05-21T10:12:34Z</time>
</trkpt>
<trkpt lat="60.225326" lon="24.883509">
<time>2021-05-21T10:12:35Z</time>
</trkpt>
<trkpt lat="60.225367" lon="24.883412">
<time>2021-05-21T10:12:36Z</time>
</trkpt>
<trkpt lat="60.225397" lon="24.883338">
<time>2021-05-21T10:12:37Z</time>
</trkpt>
<trkpt lat="60.225423" lon="24.883248">
<time>2021-05-21T10:12:39Z</time>
</trkpt>
<trkpt lat="60.225367" lon="24.883187">
<time>2021-05-21T10:12:43Z</time>
</trkpt>
<trkpt lat="60.225295" lon="24.883112">
<time>2021-05-21T10:12:46Z</time>
</trkpt>
<trkpt lat="60.225244" lon="24.883072">
<time>2021-05-21T10:12:48Z</time>
</trkpt>
<trkpt lat="60.225192" lon="24.883031">
<time>2021-05-21T10:12:50Z</time>
</trkpt>
<trkpt lat="60.225126" lon="24.882995">
<time>2021-05-21T10:12:53Z</time>
</trkpt>
<trkpt lat="60.225085" lon="24.882977">
<time>2021-05-21T10:12:56Z</time>
</trkpt>
<trkpt lat="60.225034" lon="24.882933">
<time>2021-05-21T10:13:03Z</time>
</trkpt>
<trkpt lat="60.224983" lon="24.88291">
<time>2021-05-21T10:13:07Z</time>
</trkpt>
<trkpt lat="60.224921" lon="24.882892">
<time>2021-05-21T10:13:11Z</time>
</trkpt>
<trkpt lat="60.22487" lon="24.8829">
<time>2021-05-21T10:13:14Z</time>
</trkpt>
<trkpt lat="60.224808" lon="24.882913">
<time>2021-05-21T10:13:17Z</time>
</trkpt>
<trkpt lat="60.224752" lon="24.882938">
<time>2021-05-21T10:13:20Z</time>
</trkpt>
<trkpt lat="60.224675" lon="24.882967">
<time>2021-05-21T10:13:23Z</time>
</trkpt>
<trkpt lat="60.224619" lon="24.882984">
<time>2021-05-21T10:13:26Z</time>
</trkpt>
<trkpt lat="60.224558" lon="24.882984">
<time>2021-05-21T10:13:29Z</time>
</trkpt>
<trkpt lat="60.224496" lon="24.882992">
<time>2021-05-21T10:13:32Z</time>
</trkpt>
<trkpt lat="60.224424" lon="24.882995">
<time>2021-05-21T10:13:35Z</time>
</trkpt>
<trkpt lat="60.224368" lon="24.883008">
<time>2021-05-21T10:13:37Z</time>
</trkpt>
<trkpt lat="60.224317" lon="24.883028">
<time>2021-05-21T10:13:40Z</time>
</trkpt>
<trkpt lat="60.224291" lon="24.882956">
<time>2021-05-21T10:13:45Z</time>
</trkpt>
<trkpt lat="60.224286" lon="24.882813">
<time>2021-05-21T10:13:48Z</time>
</trkpt>
<trkpt lat="60.224286" lon="24.882685">
<time>2021-05-21T10:13:50Z</time>
</trkpt>
<trkpt lat="60.224271" lon="24.882549">
<time>2021-05-21T10:13:52Z</time>
</trkpt>
<trkpt lat="60.224245" lon="24.882408">
<time>2021-05-21T10:13:54Z</time>
</trkpt>
<trkpt lat="60.224215" lon="24.882278">
<time>2021-05-21T10:13:56Z</time>
</trkpt>
<trkpt lat="60.224194" lon="24.88216">
<time>2021-05-21T10:13:58Z</time>
</trkpt>
<trkpt lat="60.224163" lon="24.882058">
<time>2021-05-21T10:14:00Z</time>
</trkpt>
<trkpt lat="60.224128" lon="24.881971">
<time>2021-05-21T10:14:02Z</time>
</trkpt>
<trkpt lat="60.224087" lon="24.881902">
<time>2021-05-21T10:14:04Z</time>
</trkpt>
<trkpt lat="60.224025" lon="24.881879">
<time>2021-05-21T10:14:06Z</time>
</trkpt>
<trkpt lat="60.223953" lon="24.881894">
<time>2021-05-21T10:14:08Z</time>
</trkpt>
<trkpt lat="60.223866" lon="24.881943">
<time>2021-05-21T10:14:10Z</time>
</trkpt>
<trkpt lat="60.223815" lon="24.881996">
<time>2021-05-21T10:14:12Z</time>
</trkpt>
<trkpt lat="60.22382" lon="24.882012">
<time>2021-05-21T10:14:16Z</time>
</trkpt>
<trkpt lat="60.223897" lon="24.881945">
<time>2021-05-21T10:14:19Z</time>
</trkpt>
<trkpt lat="60.223969" lon="24.881886">
<time>2021-05-21T10:14:21Z</time>
</trkpt>
<trkpt lat="60.224051" lon="24.881815">
<time>2021-05-21T10:14:23Z</time>
</trkpt>
<trkpt lat="60.224143" lon="24.881743">
<time>2021-05-21T10:14:25Z</time>
</trkpt>
<trkpt lat="60.224199" lon="24.881707">
<time>2021-05-21T10:14:26Z</time>
</trkpt>
<trkpt lat="60.22424" lon="24.881674">
<time>2021-05-21T10:14:27Z</time>
</trkpt>
<trkpt lat="60.224353" lon="24.881594">
<time>2021-05-21T10:14:29Z</time>
</trkpt>
<trkpt lat="60.224409" lon="24.881556">
<time>2021-05-21T10:14:30Z</time>
</trkpt>
<trkpt lat="60.224465" lon="24.881525">
<time>2021-05-21T10:14:31Z</time>
</trkpt>
<trkpt lat="60.224527" lon="24.881492">
<time>2021-05-21T10:14:32Z</time>
</trkpt>
<trkpt lat="60.224583" lon="24.881459">
<time>2021-05-21T10:14:33Z</time>
</trkpt>
<trkpt lat="60.224634" lon="24.881425">
<time>2021-05-21T10:14:34Z</time>
</trkpt>
<trkpt lat="60.224691" lon="24.881392">
<time>2021-05-21T10:14:35Z</time>
</trkpt>
<trkpt lat="60.224747" lon="24.881359">
<time>2021-05-21T10:14:36Z</time>
</trkpt>
<trkpt lat="60.224808" lon="24.881331">
<time>2021-05-21T10:14:37Z</time>
</trkpt>
<trkpt lat="60.224865" lon="24.881303">
<time>2021-05-21T10:14:38Z</time>
</trkpt>
<trkpt lat="60.224926" lon="24.881277">
<time>2021-05-21T10:14:39Z</time>
</trkpt>
<trkpt lat="60.224983" lon="24.881251">
<time>2021-05-21T10:14:40Z</time>
</trkpt>
<trkpt lat="60.225044" lon="24.881226">
<time>2021-05-21T10:14:41Z</time>
</trkpt>
<trkpt lat="60.225111" lon="24.881205">
<time>2021-05-21T10:14:42Z</time>
</trkpt>
<trkpt lat="60.225172" lon="24.881185">
<time>2021-05-21T10:14:43Z</time>
</trkpt>
<trkpt lat="60.225244" lon="24.881167">
<time>2021-05-21T10:14:44Z</time>
</trkpt>
<trkpt lat="60.225305" lon="24.881152">
<time>2021-05-21T10:14:45Z</time>
</trkpt>
<trkpt lat="60.225377" lon="24.881139">
<time>2021-05-21T10:14:46Z</time>
</trkpt>
<trkpt lat="60.225438" lon="24.881128">
<time>2021-05-21T10:14:47Z</time>
</trkpt>
<trkpt lat="60.22551" lon="24.881116">
<time>2021-05-21T10:14:48Z</time>
</trkpt>
<trkpt lat="60.225576" lon="24.8811">
<time>2021-05-21T10:14:49Z</time>
</trkpt>
<trkpt lat="60.225648" lon="24.881088">
<time>2021-05-21T10:14:50Z</time>
</trkpt>
<trkpt lat="60.22571" lon="24.881075">
<time>2021-05-21T10:14:51Z</time>
</trkpt>
<trkpt lat="60.225781" lon="24.881062">
<time>2021-05-21T10:14:52Z</time>
</trkpt>
<trkpt lat="60.225843" lon="24.881054">
<time>2021-05-21T10:14:53Z</time>
</trkpt>
<trkpt lat="60.225909" lon="24.881044">
<time>2021-05-21T10:14:54Z</time>
</trkpt>
<trkpt lat="60.225976" lon="24.881044">
<time>2021-05-21T10:14:55Z</time>
</trkpt>
<trkpt lat="60.226048" lon="24.881052">
<time>2021-05-21T10:14:57Z</time>
</trkpt>
<trkpt lat="60.226181" lon="24.88109">
<time>2021-05-21T10:14:58Z</time>
</trkpt>
<trkpt lat="60.226247" lon="24.881113">
<time>2021-05-21T10:14:59Z</time>
</trkpt>
<trkpt lat="60.226309" lon="24.881126">
<time>2021-05-21T10:15:00Z</time>
</trkpt>
<trkpt lat="60.22636" lon="24.881116">
<time>2021-05-21T10:15:01Z</time>
</trkpt>
<trkpt lat="60.226396" lon="24.88109">
<time>2021-05-21T10:15:02Z</time>
</trkpt>
<trkpt lat="60.226457" lon="24.880998">
<time>2021-05-21T10:15:04Z</time>
</trkpt>
<trkpt lat="60.226478" lon="24.880842">
<time>2021-05-21T10:15:06Z</time>
</trkpt>
<trkpt lat="60.226447" lon="24.880678">
<time>2021-05-21T10:15:08Z</time>
</trkpt>
<trkpt lat="60.226421" lon="24.880596">
<time>2021-05-21T10:15:09Z</time>
</trkpt>
<trkpt lat="60.226365" lon="24.880427">
<time>2021-05-21T10:15:11Z</time>
</trkpt>
<trkpt lat="60.226324" lon="24.88023">
<time>2021-05-21T10:15:13Z</time>
</trkpt>
<trkpt lat="60.226309" lon="24.880122">
<time>2021-05-21T10:15:14Z</time>
</trkpt>
<trkpt lat="60.226298" lon="24.880002">
<time>2021-05-21T10:15:15Z</time>
</trkpt>
<trkpt lat="60.226288" lon="24.879877">
<time>2021-05-21T10:15:16Z</time>
</trkpt>
<trkpt lat="60.226278" lon="24.879754">
<time>2021-05-21T10:15:17Z</time>
</trkpt>
<trkpt lat="60.226273" lon="24.879626">
<time>2021-05-21T10:15:18Z</time>
</trkpt>
<trkpt lat="60.226263" lon="24.879511">
<time>2021-05-21T10:15:19Z</time>
</trkpt>
<trkpt lat="60.226247" lon="24.879385">
<time>2021-05-21T10:15:20Z</time>
</trkpt>
<trkpt lat="60.226227" lon="24.879265">
<time>2021-05-21T10:15:21Z</time>
</trkpt>
<trkpt lat="60.226201" lon="24.879155">
<time>2021-05-21T10:15:22Z</time>
</trkpt>
<trkpt lat="60.22616" lon="24.879057">
<time>2021-05-21T10:15:23Z</time>
</trkpt>
<trkpt lat="60.226114" lon="24.878968">
<time>2021-05-21T10:15:24Z</time>
</trkpt>
<trkpt lat="60.226053" lon="24.878894">
<time>2021-05-21T10:15:25Z</time>
</trkpt>
<trkpt lat="60.225996" lon="24.878835">
<time>2021-05-21T10:15:26Z</time>
</trkpt>
<trkpt lat="60.22593" lon="24.878791">
<time>2021-05-21T10:15:27Z</time>
</trkpt>
<trkpt lat="60.225863" lon="24.878755">
<time>2021-05-21T10:15:28Z</time>
</trkpt>
<trkpt lat="60.225797" lon="24.87872">
<time>2021-05-21T10:15:29Z</time>
</trkpt>
<trkpt lat="60.225725" lon="24.878679">
<time>2021-05-21T10:15:30Z</time>
</trkpt>
<trkpt lat="60.225664" lon="24.87863">
<time>2021-05-21T10:15:31Z</time>
</trkpt>
<trkpt lat="60.225612" lon="24.878576">
<time>2021-05-21T10:15:32Z</time>
</trkpt>
<trkpt lat="60.225571" lon="24.878507">
<time>2021-05-21T10:15:33Z</time>
</trkpt>
<trkpt lat="60.225541" lon="24.878435">
<time>2021-05-21T10:15:34Z</time>
</trkpt>
<trkpt lat="60.225515" lon="24.878264">
<time>2021-05-21T10:15:36Z</time>
</trkpt>
<trkpt lat="60.22553" lon="24.878105">
<time>2021-05-21T10:15:38Z</time>
</trkpt>
<trkpt lat="60.225536" lon="24.877964">
<time>2021-05-21T10:15:40Z</time>
</trkpt>
<trkpt lat="60.22553" lon="24.877824">
<time>2021-05-21T10:15:42Z</time>
</trkpt>
<trkpt lat="60.22553" lon="24.877665">
<time>2021-05-21T10:15:44Z</time>
</trkpt>
<trkpt lat="60.225536" lon="24.877501">
<time>2021-05-21T10:15:46Z</time>
</trkpt>
<trkpt lat="60.225571" lon="24.877337">
<time>2021-05-21T10:15:48Z</time>
</trkpt>
<trkpt lat="60.225617" lon="24.877181">
<time>2021-05-21T10:15:50Z</time>
</trkpt>
<trkpt lat="60.225679" lon="24.877022">
<time>2021-05-21T10:15:52Z</time>
</trkpt>
<trkpt lat="60.225715" lon="24.87694">
<time>2021-05-21T10:15:53Z</time>
</trkpt>
<trkpt lat="60.225756" lon="24.876864">
<time>2021-05-21T10:15:54Z</time>
</trkpt>
<trkpt lat="60.225797" lon="24.876784">
<time>2021-05-21T10:15:55Z</time>
</trkpt>
<trkpt lat="60.225843" lon="24.876707">
<time>2021-05-21T10:15:56Z</time>
</trkpt>
<trkpt lat="60.225879" lon="24.876638">
<time>2021-05-21T10:15:57Z</time>
</trkpt>
<trkpt lat="60.225909" lon="24.876579">
<time>2021-05-21T10:15:58Z</time>
</trkpt>
<trkpt lat="60.22594" lon="24.87651">
<time>2021-05-21T10:16:00Z</time>
</trkpt>
<trkpt lat="60.225991" lon="24.876564">
<time>2021-05-21T10:16:04Z</time>
</trkpt>
<trkpt lat="60.226022" lon="24.876666">
<time>2021-05-21T10:16:07Z</time>
</trkpt>
<trkpt lat="60.226135" lon="24.876736">
<time>2021-05-21T10:16:22Z</time>
</trkpt>
<trkpt lat="60.226186" lon="24.87672">
<time>2021-05-21T10:16:24Z</time>
</trkpt>
<trkpt lat="60.226252" lon="24.876776">
<time>2021-05-21T10:16:27Z</time>
</trkpt>
<trkpt lat="60.226304" lon="24.876866">
<time>2021-05-21T10:16:29Z</time>
</trkpt>
<trkpt lat="60.226355" lon="24.876922">
<time>2021-05-21T10:16:31Z</time>
</trkpt>
<trkpt lat="60.226416" lon="24.876956">
<time>2021-05-21T10:16:33Z</time>
</trkpt>
<trkpt lat="60.226483" lon="24.876974">
<time>2021-05-21T10:16:35Z</time>
</trkpt>
<trkpt lat="60.226534" lon="24.876961">
<time>2021-05-21T10:16:37Z</time>
</trkpt>
<trkpt lat="60.226575" lon="24.876917">
<time>2021-05-21T10:16:39Z</time>
</trkpt>
<trkpt lat="60.226631" lon="24.876861">
<time>2021-05-21T10:16:41Z</time>
</trkpt>
<trkpt lat="60.226708" lon="24.876794">
<time>2021-05-21T10:16:43Z</time>
</trkpt>
<trkpt lat="60.22679" lon="24.876715">
<time>2021-05-21T10:16:45Z</time>
</trkpt>
<trkpt lat="60.226882" lon="24.876641">
<time>2021-05-21T10:16:47Z</time>
</trkpt>
<trkpt lat="60.226964" lon="24.876559">
<time>2021-05-21T10:16:49Z</time>
</trkpt>
<trkpt lat="60.227046" lon="24.876485">
<time>2021-05-21T10:16:51Z</time>
</trkpt>
<trkpt lat="60.227133" lon="24.876416">
<time>2021-05-21T10:16:53Z</time>
</trkpt>
<trkpt lat="60.22722" lon="24.876336">
<time>2021-05-21T10:16:55Z</time>
</trkpt>
<trkpt lat="60.227312" lon="24.876249">
<time>2021-05-21T10:16:57Z</time>
</trkpt>
<trkpt lat="60.227358" lon="24.876206">
<time>2021-05-21T10:16:58Z</time>
</trkpt>
<trkpt lat="60.227425" lon="24.876154">
<time>2021-05-21T10:17:00Z</time>
</trkpt>
<trkpt lat="60.227466" lon="24.876157">
<time>2021-05-21T10:17:02Z</time>
</trkpt>
<trkpt lat="60.227527" lon="24.876229">
<time>2021-05-21T10:17:05Z</time>
</trkpt>
<trkpt lat="60.227563" lon="24.876285">
<time>2021-05-21T10:17:07Z</time>
</trkpt>
<trkpt lat="60.227609" lon="24.876405">
<time>2021-05-21T10:17:12Z</time>
</trkpt>
<trkpt lat="60.227635" lon="24.87648">
<time>2021-05-21T10:17:16Z</time>
</trkpt>
<trkpt lat="60.227578" lon="24.876574">
<time>2021-05-21T10:17:27Z</time>
</trkpt>
<trkpt lat="60.227532" lon="24.876656">
<time>2021-05-21T10:17:30Z</time>
</trkpt>
<trkpt lat="60.227548" lon="24.876776">
<time>2021-05-21T10:17:33Z</time>
</trkpt>
<trkpt lat="60.227578" lon="24.876894">
<time>2021-05-21T10:17:35Z</time>
</trkpt>
<trkpt lat="60.227624" lon="24.877025">
<time>2021-05-21T10:17:37Z</time>
</trkpt>
<trkpt lat="60.227671" lon="24.877117">
<time>2021-05-21T10:17:39Z</time>
</trkpt>
<trkpt lat="60.227712" lon="24.877176">
<time>2021-05-21T10:17:42Z</time>
</trkpt>
<trkpt lat="60.227758" lon="24.877214">
<time>2021-05-21T10:17:43Z</time>
</trkpt>
<trkpt lat="60.227814" lon="24.877248">
<time>2021-05-21T10:17:46Z</time>
</trkpt>
<trkpt lat="60.227809" lon="24.877194">
<time>2021-05-21T10:18:00Z</time>
</trkpt>
<trkpt lat="60.227747" lon="24.877166">
<time>2021-05-21T10:18:03Z</time>
</trkpt>
<trkpt lat="60.227676" lon="24.877153">
<time>2021-05-21T10:18:06Z</time>
</trkpt>
<trkpt lat="60.227624" lon="24.877148">
<time>2021-05-21T10:18:08Z</time>
</trkpt>
<trkpt lat="60.227573" lon="24.877166">
<time>2021-05-21T10:18:10Z</time>
</trkpt>
<trkpt lat="60.227507" lon="24.87724">
<time>2021-05-21T10:18:13Z</time>
</trkpt>
<trkpt lat="60.22745" lon="24.877291">
<time>2021-05-21T10:18:15Z</time>
</trkpt>
<trkpt lat="60.227399" lon="24.877337">
<time>2021-05-21T10:18:17Z</time>
</trkpt>
<trkpt lat="60.227317" lon="24.877381">
<time>2021-05-21T10:18:20Z</time>
</trkpt>
<trkpt lat="60.227251" lon="24.877404">
<time>2021-05-21T10:18:22Z</time>
</trkpt>
<trkpt lat="60.227189" lon="24.877404">
<time>2021-05-21T10:18:24Z</time>
</trkpt>
<trkpt lat="60.227133" lon="24.877383">
<time>2021-05-21T10:18:26Z</time>
</trkpt>
<trkpt lat="60.227061" lon="24.87737">
<time>2021-05-21T10:18:28Z</time>
</trkpt>
<trkpt lat="60.227005" lon="24.877393">
<time>2021-05-21T10:18:30Z</time>
</trkpt>
<trkpt lat="60.226949" lon="24.87744">
<time>2021-05-21T10:18:32Z</time>
</trkpt>
<trkpt lat="60.226892" lon="24.877496">
<time>2021-05-21T10:18:34Z</time>
</trkpt>
<trkpt lat="60.226846" lon="24.877555">
<time>2021-05-21T10:18:36Z</time>
</trkpt>
<trkpt lat="60.2268" lon="24.877639">
<time>2021-05-21T10:18:39Z</time>
</trkpt>
<trkpt lat="60.226739" lon="24.877711">
<time>2021-05-21T10:18:42Z</time>
</trkpt>
<trkpt lat="60.226652" lon="24.877816">
<time>2021-05-21T10:18:46Z</time>
</trkpt>
<trkpt lat="60.2266" lon="24.877893">
<time>2021-05-21T10:18:48Z</time>
</trkpt>
<trkpt lat="60.226524" lon="24.877964">
<time>2021-05-21T10:18:50Z</time>
</trkpt>
<trkpt lat="60.226437" lon="24.878062">
<time>2021-05-21T10:18:52Z</time>
</trkpt>
<trkpt lat="60.226355" lon="24.878208">
<time>2021-05-21T10:18:54Z</time>
</trkpt>
<trkpt lat="60.226319" lon="24.878302">
<time>2021-05-21T10:18:55Z</time>
</trkpt>
<trkpt lat="60.226247" lon="24.878497">
<time>2021-05-21T10:18:57Z</time>
</trkpt>
<trkpt lat="60.226216" lon="24.878609">
<time>2021-05-21T10:18:58Z</time>
</trkpt>
<trkpt lat="60.226191" lon="24.878727">
<time>2021-05-21T10:18:59Z</time>
</trkpt>
<trkpt lat="60.226176" lon="24.878848">
<time>2021-05-21T10:19:00Z</time>
</trkpt>
<trkpt lat="60.22617" lon="24.878976">
<time>2021-05-21T10:19:01Z</time>
</trkpt>
<trkpt lat="60.226165" lon="24.879101">
<time>2021-05-21T10:19:02Z</time>
</trkpt>
<trkpt lat="60.226165" lon="24.879237">
<time>2021-05-21T10:19:03Z</time>
</trkpt>
<trkpt lat="60.22617" lon="24.879375">
<time>2021-05-21T10:19:04Z</time>
</trkpt>
<trkpt lat="60.226181" lon="24.879641">
<time>2021-05-21T10:19:06Z</time>
</trkpt>
<trkpt lat="60.226186" lon="24.879774">
<time>2021-05-21T10:19:07Z</time>
</trkpt>
<trkpt lat="60.226201" lon="24.879905">
<time>2021-05-21T10:19:08Z</time>
</trkpt>
<trkpt lat="60.226227" lon="24.880038">
<time>2021-05-21T10:19:09Z</time>
</trkpt>
<trkpt lat="60.226252" lon="24.880158">
<time>2021-05-21T10:19:10Z</time>
</trkpt>
<trkpt lat="60.226293" lon="24.880271">
<time>2021-05-21T10:19:11Z</time>
</trkpt>
<trkpt lat="60.226324" lon="24.880378">
<time>2021-05-21T10:19:12Z</time>
</trkpt>
<trkpt lat="60.22636" lon="24.880501">
<time>2021-05-21T10:19:13Z</time>
</trkpt>
<trkpt lat="60.226411" lon="24.880768">
<time>2021-05-21T10:19:15Z</time>
</trkpt>
<trkpt lat="60.226426" lon="24.880901">
<time>2021-05-21T10:19:16Z</time>
</trkpt>
<trkpt lat="60.226442" lon="24.881026">
<time>2021-05-21T10:19:17Z</time>
</trkpt>
<trkpt lat="60.226457" lon="24.881152">
<time>2021-05-21T10:19:18Z</time>
</trkpt>
<trkpt lat="60.226472" lon="24.881272">
<time>2021-05-21T10:19:19Z</time>
</trkpt>
<trkpt lat="60.226488" lon="24.881377">
<time>2021-05-21T10:19:20Z</time>
</trkpt>
<trkpt lat="60.226498" lon="24.881474">
<time>2021-05-21T10:19:21Z</time>
</trkpt>
<trkpt lat="60.226519" lon="24.881615">
<time>2021-05-21T10:19:23Z</time>
</trkpt>
<trkpt lat="60.226544" lon="24.881681">
<time>2021-05-21T10:19:25Z</time>
</trkpt>
<trkpt lat="60.226595" lon="24.88172">
<time>2021-05-21T10:19:28Z</time>
</trkpt>
<trkpt lat="60.226652" lon="24.881728">
<time>2021-05-21T10:19:31Z</time>
</trkpt>
<trkpt lat="60.226713" lon="24.881725">
<time>2021-05-21T10:19:34Z</time>
</trkpt>
<trkpt lat="60.226769" lon="24.881722">
<time>2021-05-21T10:19:37Z</time>
</trkpt>
<trkpt lat="60.226816" lon="24.881733">
<time>2021-05-21T10:19:40Z</time>
</trkpt>
<trkpt lat="60.226831" lon="24.881825">
<time>2021-05-21T10:19:49Z</time>
</trkpt>
<trkpt lat="60.226805" lon="24.881958">
<time>2021-05-21T10:19:53Z</time>
</trkpt>
<trkpt lat="60.226775" lon="24.882071">
<time>2021-05-21T10:19:56Z</time>
</trkpt>
<trkpt lat="60.226749" lon="24.882186">
<time>2021-05-21T10:19:59Z</time>
</trkpt>
<trkpt lat="60.226713" lon="24.882275">
<time>2021-05-21T10:20:02Z</time>
</trkpt>
<trkpt lat="60.226662" lon="24.88235">
<time>2021-05-21T10:20:05Z</time>
</trkpt>
<trkpt lat="60.226631" lon="24.882457">
<time>2021-05-21T10:20:08Z</time>
</trkpt>
<trkpt lat="60.226657" lon="24.882662">
<time>2021-05-21T10:20:11Z</time>
</trkpt>
<trkpt lat="60.226688" lon="24.882841">
<time>2021-05-21T10:20:13Z</time>
</trkpt>
<trkpt lat="60.226754" lon="24.883107">
<time>2021-05-21T10:20:15Z</time>
</trkpt>
<trkpt lat="60.226816" lon="24.883269">
<time>2021-05-21T10:20:16Z</time>
</trkpt>
<trkpt lat="60.226846" lon="24.883422">
<time>2021-05-21T10:20:17Z</time>
</trkpt>
<trkpt lat="60.226846" lon="24.883573">
<time>2021-05-21T10:20:18Z</time>
</trkpt>
<trkpt lat="60.226831" lon="24.883696">
<time>2021-05-21T10:20:19Z</time>
</trkpt>
<trkpt lat="60.22681" lon="24.883816">
<time>2021-05-21T10:20:20Z</time>
</trkpt>
<trkpt lat="60.22679" lon="24.883934">
<time>2021-05-21T10:20:21Z</time>
</trkpt>
<trkpt lat="60.226764" lon="24.884039">
<time>2021-05-21T10:20:22Z</time>
</trkpt>
<trkpt lat="60.226734" lon="24.884131">
<time>2021-05-21T10:20:23Z</time>
</trkpt>
<trkpt lat="60.226698" lon="24.884224">
<time>2021-05-21T10:20:24Z</time>
</trkpt>
<trkpt lat="60.226652" lon="24.884316">
<time>2021-05-21T10:20:25Z</time>
</trkpt>
<trkpt lat="60.226611" lon="24.884408">
<time>2021-05-21T10:20:26Z</time>
</trkpt>
<trkpt lat="60.22656" lon="24.88451">
<time>2021-05-21T10:20:27Z</time>
</trkpt>
<trkpt lat="60.226513" lon="24.884615">
<time>2021-05-21T10:20:28Z</time>
</trkpt>
<trkpt lat="60.226467" lon="24.884715">
<time>2021-05-21T10:20:29Z</time>
</trkpt>
<trkpt lat="60.226421" lon="24.884823">
<time>2021-05-21T10:20:30Z</time>
</trkpt>
<trkpt lat="60.226339" lon="24.884922">
<time>2021-05-21T10:20:31Z</time>
</trkpt>
<trkpt lat="60.226278" lon="24.88503">
<time>2021-05-21T10:20:32Z</time>
</trkpt>
<trkpt lat="60.226232" lon="24.885148">
<time>2021-05-21T10:20:33Z</time>
</trkpt>
<trkpt lat="60.226186" lon="24.885268">
<time>2021-05-21T10:20:34Z</time>
</trkpt>
<trkpt lat="60.22614" lon="24.885396">
<time>2021-05-21T10:20:35Z</time>
</trkpt>
<trkpt lat="60.226083" lon="24.885521">
<time>2021-05-21T10:20:36Z</time>
</trkpt>
<trkpt lat="60.226032" lon="24.885642">
<time>2021-05-21T10:20:37Z</time>
</trkpt>
<trkpt lat="60.225976" lon="24.885754">
<time>2021-05-21T10:20:38Z</time>
</trkpt>
<trkpt lat="60.225925" lon="24.885857">
<time>2021-05-21T10:20:40Z</time>
</trkpt>
<trkpt lat="60.225812" lon="24.886074">
<time>2021-05-21T10:20:41Z</time>
</trkpt>
<trkpt lat="60.225756" lon="24.886172">
<time>2021-05-21T10:20:42Z</time>
</trkpt>
<trkpt lat="60.225689" lon="24.886272">
<time>2021-05-21T10:20:43Z</time>
</trkpt>
<trkpt lat="60.225628" lon="24.886364">
<time>2021-05-21T10:20:44Z</time>
</trkpt>
<trkpt lat="60.225571" lon="24.886443">
<time>2021-05-21T10:20:45Z</time>
</trkpt>
<trkpt lat="60.225515" lon="24.886487">
<time>2021-05-21T10:20:46Z</time>
</trkpt>
<trkpt lat="60.225464" lon="24.88651">
<time>2021-05-21T10:20:47Z</time>
</trkpt>
<trkpt lat="60.225423" lon="24.886517">
<time>2021-05-21T10:20:48Z</time>
</trkpt>
<trkpt lat="60.225372" lon="24.886464">
<time>2021-05-21T10:20:50Z</time>
</trkpt>
<trkpt lat="60.225351" lon="24.886348">
<time>2021-05-21T10:20:52Z</time>
</trkpt>
<trkpt lat="60.225331" lon="24.886218">
<time>2021-05-21T10:20:54Z</time>
</trkpt>
<trkpt lat="60.225305" lon="24.88609">
<time>2021-05-21T10:20:56Z</time>
</trkpt>
<trkpt lat="60.225274" lon="24.885977">
<time>2021-05-21T10:20:58Z</time>
</trkpt>
<trkpt lat="60.225249" lon="24.88588">
<time>2021-05-21T10:21:00Z</time>
</trkpt>
<trkpt lat="60.225239" lon="24.885806">
<time>2021-05-21T10:21:02Z</time>
</trkpt>
<trkpt lat="60.225228" lon="24.885693">
<time>2021-05-21T10:21:06Z</time>
</trkpt>
<trkpt lat="60.225157" lon="24.885701">
<time>2021-05-21T10:21:11Z</time>
</trkpt>
<trkpt lat="60.225095" lon="24.885752">
<time>2021-05-21T10:21:14Z</time>
</trkpt>
<trkpt lat="60.225039" lon="24.885783">
<time>2021-05-21T10:21:16Z</time>
</trkpt>
<trkpt lat="60.224983" lon="24.885813">
<time>2021-05-21T10:21:18Z</time>
</trkpt>
<trkpt lat="60.224931" lon="24.885852">
<time>2021-05-21T10:21:20Z</time>
</trkpt>
<trkpt lat="60.22487" lon="24.885893">
<time>2021-05-21T10:21:22Z</time>
</trkpt>
<trkpt lat="60.224803" lon="24.885944">
<time>2021-05-21T10:21:24Z</time>
</trkpt>
<trkpt lat="60.224737" lon="24.885995">
<time>2021-05-21T10:21:26Z</time>
</trkpt>
<trkpt lat="60.22466" lon="24.886041">
<time>2021-05-21T10:21:28Z</time>
</trkpt>
<trkpt lat="60.224599" lon="24.886059">
<time>2021-05-21T10:21:30Z</time>
</trkpt>
<trkpt lat="60.224558" lon="24.886051">
<time>2021-05-21T10:21:32Z</time>
</trkpt>
<trkpt lat="60.224496" lon="24.886054">
<time>2021-05-21T10:21:37Z</time>
</trkpt>
<trkpt lat="60.22445" lon="24.886128">
<time>2021-05-21T10:21:40Z</time>
</trkpt>
<trkpt lat="60.224409" lon="24.886187">
<time>2021-05-21T10:21:42Z</time>
</trkpt>
<trkpt lat="60.224348" lon="24.8863">
<time>2021-05-21T10:21:45Z</time>
</trkpt>
<trkpt lat="60.224286" lon="24.886389">
<time>2021-05-21T10:21:47Z</time>
</trkpt>
<trkpt lat="60.224215" lon="24.886451">
<time>2021-05-21T10:21:49Z</time>
</trkpt>
<trkpt lat="60.224138" lon="24.88651">
<time>2021-05-21T10:21:51Z</time>
</trkpt>
<trkpt lat="60.224076" lon="24.886561">
<time>2021-05-21T10:21:53Z</time>
</trkpt>
<trkpt lat="60.224035" lon="24.886668">
<time>2021-05-21T10:21:56Z</time>
</trkpt>
<trkpt lat="60.224" lon="24.886778">
<time>2021-05-21T10:21:58Z</time>
</trkpt>
<trkpt lat="60.223943" lon="24.886924">
<time>2021-05-21T10:22:00Z</time>
</trkpt>
<trkpt lat="60.223872" lon="24.887147">
<time>2021-05-21T10:22:02Z</time>
</trkpt>
<trkpt lat="60.223831" lon="24.887288">
<time>2021-05-21T10:22:03Z</time>
</trkpt>
<trkpt lat="60.223774" lon="24.887416">
<time>2021-05-21T10:22:04Z</time>
</trkpt>
<trkpt lat="60.223708" lon="24.887521">
<time>2021-05-21T10:22:05Z</time>
</trkpt>
<trkpt lat="60.223641" lon="24.887613">
<time>2021-05-21T10:22:06Z</time>
</trkpt>
<trkpt lat="60.223569" lon="24.887705">
<time>2021-05-21T10:22:07Z</time>
</trkpt>
<trkpt lat="60.223513" lon="24.887802">
<time>2021-05-21T10:22:08Z</time>
</trkpt>
<trkpt lat="60.223467" lon="24.8879">
<time>2021-05-21T10:22:09Z</time>
</trkpt>
<trkpt lat="60.223431" lon="24.888002">
<time>2021-05-21T10:22:10Z</time>
</trkpt>
<trkpt lat="60.223406" lon="24.888099">
<time>2021-05-21T10:22:11Z</time>
</trkpt>
<trkpt lat="60.223385" lon="24.888192">
<time>2021-05-21T10:22:12Z</time>
</trkpt>
<trkpt lat="60.223365" lon="24.888307">
<time>2021-05-21T10:22:13Z</time>
</trkpt>
<trkpt lat="60.223344" lon="24.888424">
<time>2021-05-21T10:22:14Z</time>
</trkpt>
<trkpt lat="60.223329" lon="24.888537">
<time>2021-05-21T10:22:15Z</time>
</trkpt>
<trkpt lat="60.223272" lon="24.888642">
<time>2021-05-21T10:22:16Z</time>
</trkpt>
<trkpt lat="60.223242" lon="24.888788">
<time>2021-05-21T10:22:17Z</time>
</trkpt>
<trkpt lat="60.223211" lon="24.888913">
<time>2021-05-21T10:22:18Z</time>
</trkpt>
<trkpt lat="60.22318" lon="24.889031">
<time>2021-05-21T10:22:19Z</time>
</trkpt>
<trkpt lat="60.22316" lon="24.889141">
<time>2021-05-21T10:22:20Z</time>
</trkpt>
<trkpt lat="60.223165" lon="24.889226">
<time>2021-05-21T10:22:21Z</time>
</trkpt>
<trkpt lat="60.223196" lon="24.889326">
<time>2021-05-21T10:22:23Z</time>
</trkpt>
<trkpt lat="60.223247" lon="24.889372">
<time>2021-05-21T10:22:25Z</time>
</trkpt>
<trkpt lat="60.223298" lon="24.889336">
<time>2021-05-21T10:25:10Z</time>
</trkpt>
<trkpt lat="60.223344" lon="24.889367">
<time>2021-05-21T10:25:14Z</time>
</trkpt>
<trkpt lat="60.223477" lon="24.889441">
<time>2021-05-21T10:25:17Z</time>
</trkpt>
<trkpt lat="60.223549" lon="24.8895">
<time>2021-05-21T10:25:18Z</time>
</trkpt>
<trkpt lat="60.223631" lon="24.889561">
<time>2021-05-21T10:25:19Z</time>
</trkpt>
<trkpt lat="60.223708" lon="24.889607">
<time>2021-05-21T10:25:20Z</time>
</trkpt>
<trkpt lat="60.223795" lon="24.889651">
<time>2021-05-21T10:25:21Z</time>
</trkpt>
<trkpt lat="60.223882" lon="24.889687">
<time>2021-05-21T10:25:22Z</time>
</trkpt>
<trkpt lat="60.223979" lon="24.889725">
<time>2021-05-21T10:25:23Z</time>
</trkpt>
<trkpt lat="60.224071" lon="24.889766">
<time>2021-05-21T10:25:24Z</time>
</trkpt>
<trkpt lat="60.224153" lon="24.889809">
<time>2021-05-21T10:25:25Z</time>
</trkpt>
<trkpt lat="60.224235" lon="24.889848">
<time>2021-05-21T10:25:26Z</time>
</trkpt>
<trkpt lat="60.224322" lon="24.889894">
<time>2021-05-21T10:25:27Z</time>
</trkpt>
<trkpt lat="60.224409" lon="24.889935">
<time>2021-05-21T10:25:28Z</time>
</trkpt>
<trkpt lat="60.224496" lon="24.889963">
<time>2021-05-21T10:25:29Z</time>
</trkpt>
<trkpt lat="60.224578" lon="24.889966">
<time>2021-05-21T10:25:30Z</time>
</trkpt>
<trkpt lat="60.22466" lon="24.889943">
<time>2021-05-21T10:25:31Z</time>
</trkpt>
<trkpt lat="60.224737" lon="24.889899">
<time>2021-05-21T10:25:32Z</time>
</trkpt>
<trkpt lat="60.224814" lon="24.889835">
<time>2021-05-21T10:25:33Z</time>
</trkpt>
<trkpt lat="60.224875" lon="24.889756">
<time>2021-05-21T10:25:34Z</time>
</trkpt>
<trkpt lat="60.224936" lon="24.889676">
<time>2021-05-21T10:25:35Z</time>
</trkpt>
<trkpt lat="60.224998" lon="24.889587">
<time>2021-05-21T10:25:36Z</time>
</trkpt>
<trkpt lat="60.225059" lon="24.889489">
<time>2021-05-21T10:25:37Z</time>
</trkpt>
<trkpt lat="60.225126" lon="24.889379">
<time>2021-05-21T10:25:38Z</time>
</trkpt>
<trkpt lat="60.225182" lon="24.889269">
<time>2021-05-21T10:25:39Z</time>
</trkpt>
<trkpt lat="60.225244" lon="24.889167">
<time>2021-05-21T10:25:40Z</time>
</trkpt>
<trkpt lat="60.225295" lon="24.889075">
<time>2021-05-21T10:25:41Z</time>
</trkpt>
<trkpt lat="60.225361" lon="24.888985">
<time>2021-05-21T10:25:42Z</time>
</trkpt>
<trkpt lat="60.225423" lon="24.888903">
<time>2021-05-21T10:25:43Z</time>
</trkpt>
<trkpt lat="60.2255" lon="24.888834">
<time>2021-05-21T10:25:44Z</time>
</trkpt>
<trkpt lat="60.225561" lon="24.888747">
<time>2021-05-21T10:25:45Z</time>
</trkpt>
<trkpt lat="60.225617" lon="24.888642">
<time>2021-05-21T10:25:46Z</time>
</trkpt>
<trkpt lat="60.225653" lon="24.888522">
<time>2021-05-21T10:25:47Z</time>
</trkpt>
<trkpt lat="60.225658" lon="24.888378">
<time>2021-05-21T10:25:48Z</time>
</trkpt>
<trkpt lat="60.225658" lon="24.888245">
<time>2021-05-21T10:25:49Z</time>
</trkpt>
<trkpt lat="60.225664" lon="24.888094">
<time>2021-05-21T10:25:50Z</time>
</trkpt>
<trkpt lat="60.225674" lon="24.887925">
<time>2021-05-21T10:25:51Z</time>
</trkpt>
<trkpt lat="60.225684" lon="24.887764">
<time>2021-05-21T10:25:52Z</time>
</trkpt>
<trkpt lat="60.225704" lon="24.887608">
<time>2021-05-21T10:25:53Z</time>
</trkpt>
<trkpt lat="60.225725" lon="24.887459">
<time>2021-05-21T10:25:54Z</time>
</trkpt>
<trkpt lat="60.22574" lon="24.887301">
<time>2021-05-21T10:25:55Z</time>
</trkpt>
<trkpt lat="60.225756" lon="24.887162">
<time>2021-05-21T10:25:56Z</time>
</trkpt>
<trkpt lat="60.225771" lon="24.887052">
<time>2021-05-21T10:25:57Z</time>
</trkpt>
<trkpt lat="60.225797" lon="24.886973">
<time>2021-05-21T10:25:58Z</time>
</trkpt>
<trkpt lat="60.225822" lon="24.886973">
<time>2021-05-21T10:25:59Z</time>
</trkpt>
<trkpt lat="60.225904" lon="24.886958">
<time>2021-05-21T10:26:01Z</time>
</trkpt>
<trkpt lat="60.226032" lon="24.886942">
<time>2021-05-21T10:26:03Z</time>
</trkpt>
<trkpt lat="60.226099" lon="24.886947">
<time>2021-05-21T10:26:04Z</time>
</trkpt>
<trkpt lat="60.22615" lon="24.88695">
<time>2021-05-21T10:26:05Z</time>
</trkpt>
<trkpt lat="60.226201" lon="24.886952">
<time>2021-05-21T10:26:06Z</time>
</trkpt>
<trkpt lat="60.226278" lon="24.886965">
<time>2021-05-21T10:26:08Z</time>
</trkpt>
<trkpt lat="60.226344" lon="24.886963">
<time>2021-05-21T10:26:10Z</time>
</trkpt>
<trkpt lat="60.226421" lon="24.886917">
<time>2021-05-21T10:26:12Z</time>
</trkpt>
<trkpt lat="60.226503" lon="24.886817">
<time>2021-05-21T10:26:14Z</time>
</trkpt>
<trkpt lat="60.22659" lon="24.886673">
<time>2021-05-21T10:26:16Z</time>
</trkpt>
<trkpt lat="60.226636" lon="24.886594">
<time>2021-05-21T10:26:17Z</time>
</trkpt>
<trkpt lat="60.226682" lon="24.886512">
<time>2021-05-21T10:26:18Z</time>
</trkpt>
<trkpt lat="60.226728" lon="24.886428">
<time>2021-05-21T10:26:19Z</time>
</trkpt>
<trkpt lat="60.226775" lon="24.886338">
<time>2021-05-21T10:26:20Z</time>
</trkpt>
<trkpt lat="60.226821" lon="24.886243">
<time>2021-05-21T10:26:21Z</time>
</trkpt>
<trkpt lat="60.226867" lon="24.886149">
<time>2021-05-21T10:26:22Z</time>
</trkpt>
<trkpt lat="60.226908" lon="24.886051">
<time>2021-05-21T10:26:23Z</time>
</trkpt>
<trkpt lat="60.226949" lon="24.885949">
<time>2021-05-21T10:26:24Z</time>
</trkpt>
<trkpt lat="60.226974" lon="24.885844">
<time>2021-05-21T10:26:25Z</time>
</trkpt>
<trkpt lat="60.22699" lon="24.885734">
<time>2021-05-21T10:26:26Z</time>
</trkpt>
<trkpt lat="60.226995" lon="24.885619">
<time>2021-05-21T10:26:27Z</time>
</trkpt>
<trkpt lat="60.226984" lon="24.885501">
<time>2021-05-21T10:26:28Z</time>
</trkpt>
<trkpt lat="60.226964" lon="24.885383">
<time>2021-05-21T10:26:29Z</time>
</trkpt>
<trkpt lat="60.226938" lon="24.88525">
<time>2021-05-21T10:26:30Z</time>
</trkpt>
<trkpt lat="60.226928" lon="24.885084">
<time>2021-05-21T10:26:31Z</time>
</trkpt>
<trkpt lat="60.226918" lon="24.88493">
<time>2021-05-21T10:26:32Z</time>
</trkpt>
<trkpt lat="60.226923" lon="24.884769">
<time>2021-05-21T10:26:33Z</time>
</trkpt>
<trkpt lat="60.226938" lon="24.884623">
<time>2021-05-21T10:26:34Z</time>
</trkpt>
<trkpt lat="60.226969" lon="24.884482">
<time>2021-05-21T10:26:35Z</time>
</trkpt>
<trkpt lat="60.227" lon="24.884341">
<time>2021-05-21T10:26:36Z</time>
</trkpt>
<trkpt lat="60.227015" lon="24.884213">
<time>2021-05-21T10:26:37Z</time>
</trkpt>
<trkpt lat="60.227015" lon="24.884108">
<time>2021-05-21T10:26:38Z</time>
</trkpt>
<trkpt lat="60.227" lon="24.884003">
<time>2021-05-21T10:26:39Z</time>
</trkpt>
<trkpt lat="60.226974" lon="24.883901">
<time>2021-05-21T10:26:40Z</time>
</trkpt>
<trkpt lat="60.226938" lon="24.883806">
<time>2021-05-21T10:26:41Z</time>
</trkpt>
<trkpt lat="60.226908" lon="24.883709">
<time>2021-05-21T10:26:42Z</time>
</trkpt>
<trkpt lat="60.226872" lon="24.883607">
<time>2021-05-21T10:26:43Z</time>
</trkpt>
<trkpt lat="60.226841" lon="24.883504">
<time>2021-05-21T10:26:44Z</time>
</trkpt>
<trkpt lat="60.22681" lon="24.883402">
<time>2021-05-21T10:26:45Z</time>
</trkpt>
<trkpt lat="60.22678" lon="24.883304">
<time>2021-05-21T10:26:46Z</time>
</trkpt>
<trkpt lat="60.226754" lon="24.883217">
<time>2021-05-21T10:26:47Z</time>
</trkpt>
<trkpt lat="60.226718" lon="24.883059">
<time>2021-05-21T10:26:49Z</time>
</trkpt>
<trkpt lat="60.226698" lon="24.882941">
<time>2021-05-21T10:26:51Z</time>
</trkpt>
<trkpt lat="60.226677" lon="24.882849">
<time>2021-05-21T10:26:53Z</time>
</trkpt>
<trkpt lat="60.226652" lon="24.882767">
<time>2021-05-21T10:26:55Z</time>
</trkpt>
<trkpt lat="60.226626" lon="24.882639">
<time>2021-05-21T10:26:58Z</time>
</trkpt>
<trkpt lat="60.2266" lon="24.882552">
<time>2021-05-21T10:27:00Z</time>
</trkpt>
<trkpt lat="60.22657" lon="24.882455">
<time>2021-05-21T10:27:02Z</time>
</trkpt>
<trkpt lat="60.226524" lon="24.882368">
<time>2021-05-21T10:27:04Z</time>
</trkpt>
<trkpt lat="60.226457" lon="24.882275">
<time>2021-05-21T10:27:06Z</time>
</trkpt>
<trkpt lat="60.22637" lon="24.882165">
<time>2021-05-21T10:27:08Z</time>
</trkpt>
<trkpt lat="60.226293" lon="24.882119">
<time>2021-05-21T10:27:10Z</time>
</trkpt>
<trkpt lat="60.226201" lon="24.882096">
<time>2021-05-21T10:27:12Z</time>
</trkpt>
<trkpt lat="60.226099" lon="24.882086">
<time>2021-05-21T10:27:14Z</time>
</trkpt>
<trkpt lat="60.226053" lon="24.882083">
<time>2021-05-21T10:27:15Z</time>
</trkpt>
<trkpt lat="60.22596" lon="24.882088">
<time>2021-05-21T10:27:17Z</time>
</trkpt>
<trkpt lat="60.225914" lon="24.882106">
<time>2021-05-21T10:27:18Z</time>
</trkpt>
<trkpt lat="60.225827" lon="24.88214">
<time>2021-05-21T10:27:20Z</time>
</trkpt>
<trkpt lat="60.225745" lon="24.882124">
<time>2021-05-21T10:27:23Z</time>
</trkpt>
<trkpt lat="60.225664" lon="24.882073">
<time>2021-05-21T10:27:24Z</time>
</trkpt>
<trkpt lat="60.225607" lon="24.882035">
<time>2021-05-21T10:27:26Z</time>
</trkpt>
<trkpt lat="60.225576" lon="24.881955">
<time>2021-05-21T10:27:33Z</time>
</trkpt>
<trkpt lat="60.225582" lon="24.881817">
<time>2021-05-21T10:27:37Z</time>
</trkpt>
<trkpt lat="60.225566" lon="24.881684">
<time>2021-05-21T10:27:40Z</time>
</trkpt>
<trkpt lat="60.225561" lon="24.881556">
<time>2021-05-21T10:27:43Z</time>
</trkpt>
<trkpt lat="60.225541" lon="24.881466">
<time>2021-05-21T10:27:46Z</time>
</trkpt>
<trkpt lat="60.225469" lon="24.881451">
<time>2021-05-21T10:27:49Z</time>
</trkpt>
<trkpt lat="60.225413" lon="24.881472">
<time>2021-05-21T10:27:51Z</time>
</trkpt>
<trkpt lat="60.225351" lon="24.881518">
<time>2021-05-21T10:27:53Z</time>
</trkpt>
<trkpt lat="60.22529" lon="24.881579">
<time>2021-05-21T10:27:55Z</time>
</trkpt>
<trkpt lat="60.225218" lon="24.88162">
<time>2021-05-21T10:27:57Z</time>
</trkpt>
<trkpt lat="60.225157" lon="24.881612">
<time>2021-05-21T10:27:59Z</time>
</trkpt>
<trkpt lat="60.225095" lon="24.881589">
<time>2021-05-21T10:28:01Z</time>
</trkpt>
<trkpt lat="60.225029" lon="24.881574">
<time>2021-05-21T10:28:03Z</time>
</trkpt>
<trkpt lat="60.224952" lon="24.881571">
<time>2021-05-21T10:28:05Z</time>
</trkpt>
<trkpt lat="60.22487" lon="24.881597">
<time>2021-05-21T10:28:07Z</time>
</trkpt>
<trkpt lat="60.224798" lon="24.88162">
<time>2021-05-21T10:28:09Z</time>
</trkpt>
<trkpt lat="60.224732" lon="24.881625">
<time>2021-05-21T10:28:11Z</time>
</trkpt>
<trkpt lat="60.224675" lon="24.881607">
<time>2021-05-21T10:28:13Z</time>
</trkpt>
<trkpt lat="60.224609" lon="24.881569">
<time>2021-05-21T10:28:15Z</time>
</trkpt>
<trkpt lat="60.224532" lon="24.881551">
<time>2021-05-21T10:28:17Z</time>
</trkpt>
<trkpt lat="60.22444" lon="24.881571">
<time>2021-05-21T10:28:19Z</time>
</trkpt>
<trkpt lat="60.224337" lon="24.881612">
<time>2021-05-21T10:28:21Z</time>
</trkpt>
<trkpt lat="60.224281" lon="24.881643">
<time>2021-05-21T10:28:22Z</time>
</trkpt>
<trkpt lat="60.224225" lon="24.881679">
<time>2021-05-21T10:28:23Z</time>
</trkpt>
<trkpt lat="60.224163" lon="24.881717">
<time>2021-05-21T10:28:24Z</time>
</trkpt>
<trkpt lat="60.224097" lon="24.881756">
<time>2021-05-21T10:28:25Z</time>
</trkpt>
<trkpt lat="60.224035" lon="24.881797">
<time>2021-05-21T10:28:26Z</time>
</trkpt>
<trkpt lat="60.223974" lon="24.88184">
<time>2021-05-21T10:28:27Z</time>
</trkpt>
<trkpt lat="60.223907" lon="24.881886">
<time>2021-05-21T10:28:28Z</time>
</trkpt>
<trkpt lat="60.223846" lon="24.881937">
<time>2021-05-21T10:28:29Z</time>
</trkpt>
<trkpt lat="60.223779" lon="24.881991">
<time>2021-05-21T10:28:31Z</time>
</trkpt>
<trkpt lat="60.223651" lon="24.882101">
<time>2021-05-21T10:28:32Z</time>
</trkpt>
<trkpt lat="60.22359" lon="24.88216">
<time>2021-05-21T10:28:33Z</time>
</trkpt>
<trkpt lat="60.223523" lon="24.882222">
<time>2021-05-21T10:28:34Z</time>
</trkpt>
<trkpt lat="60.223462" lon="24.882288">
<time>2021-05-21T10:28:35Z</time>
</trkpt>
<trkpt lat="60.223395" lon="24.882355">
<time>2021-05-21T10:28:36Z</time>
</trkpt>
<trkpt lat="60.223329" lon="24.882421">
<time>2021-05-21T10:28:37Z</time>
</trkpt>
<trkpt lat="60.223267" lon="24.882485">
<time>2021-05-21T10:28:38Z</time>
</trkpt>
<trkpt lat="60.223201" lon="24.882552">
<time>2021-05-21T10:28:39Z</time>
</trkpt>
<trkpt lat="60.223134" lon="24.882624">
<time>2021-05-21T10:28:40Z</time>
</trkpt>
<trkpt lat="60.223078" lon="24.882698">
<time>2021-05-21T10:28:41Z</time>
</trkpt>
<trkpt lat="60.223011" lon="24.882775">
<time>2021-05-21T10:28:42Z</time>
</trkpt>
<trkpt lat="60.22295" lon="24.882851">
<time>2021-05-21T10:28:43Z</time>
</trkpt>
<trkpt lat="60.222888" lon="24.882931">
<time>2021-05-21T10:28:44Z</time>
</trkpt>
<trkpt lat="60.222827" lon="24.883008">
<time>2021-05-21T10:28:45Z</time>
</trkpt>
<trkpt lat="60.222766" lon="24.883087">
<time>2021-05-21T10:28:46Z</time>
</trkpt>
<trkpt lat="60.222714" lon="24.883161">
<time>2021-05-21T10:28:47Z</time>
</trkpt>
<trkpt lat="60.222658" lon="24.883243">
<time>2021-05-21T10:28:48Z</time>
</trkpt>
<trkpt lat="60.222597" lon="24.883322">
<time>2021-05-21T10:28:49Z</time>
</trkpt>
<trkpt lat="60.222535" lon="24.883399">
<time>2021-05-21T10:28:50Z</time>
</trkpt>
<trkpt lat="60.222479" lon="24.883471">
<time>2021-05-21T10:28:51Z</time>
</trkpt>
<trkpt lat="60.222423" lon="24.883553">
<time>2021-05-21T10:28:52Z</time>
</trkpt>
<trkpt lat="60.222371" lon="24.883632">
<time>2021-05-21T10:28:53Z</time>
</trkpt>
<trkpt lat="60.222325" lon="24.883722">
<time>2021-05-21T10:28:54Z</time>
</trkpt>
<trkpt lat="60.222284" lon="24.883809">
<time>2021-05-21T10:28:55Z</time>
</trkpt>
<trkpt lat="60.222248" lon="24.883911">
<time>2021-05-21T10:28:56Z</time>
</trkpt>
<trkpt lat="60.222223" lon="24.884006">
<time>2021-05-21T10:28:57Z</time>
</trkpt>
<trkpt lat="60.222197" lon="24.884106">
<time>2021-05-21T10:28:58Z</time>
</trkpt>
<trkpt lat="60.222182" lon="24.884213">
<time>2021-05-21T10:28:59Z</time>
</trkpt>
<trkpt lat="60.222177" lon="24.884318">
<time>2021-05-21T10:29:00Z</time>
</trkpt>
<trkpt lat="60.222197" lon="24.884503">
<time>2021-05-21T10:29:02Z</time>
</trkpt>
<trkpt lat="60.222248" lon="24.884672">
<time>2021-05-21T10:29:04Z</time>
</trkpt>
<trkpt lat="60.222279" lon="24.884748">
<time>2021-05-21T10:29:05Z</time>
</trkpt>
<trkpt lat="60.222336" lon="24.884887">
<time>2021-05-21T10:29:07Z</time>
</trkpt>
<trkpt lat="60.222382" lon="24.885009">
<time>2021-05-21T10:29:09Z</time>
</trkpt>
<trkpt lat="60.222392" lon="24.885122">
<time>2021-05-21T10:29:11Z</time>
</trkpt>
<trkpt lat="60.222366" lon="24.885232">
<time>2021-05-21T10:29:13Z</time>
</trkpt>
<trkpt lat="60.222305" lon="24.88535">
<time>2021-05-21T10:29:15Z</time>
</trkpt>
<trkpt lat="60.222228" lon="24.88548">
<time>2021-05-21T10:29:17Z</time>
</trkpt>
<trkpt lat="60.222187" lon="24.885565">
<time>2021-05-21T10:29:18Z</time>
</trkpt>
<trkpt lat="60.222146" lon="24.885657">
<time>2021-05-21T10:29:19Z</time>
</trkpt>
<trkpt lat="60.222105" lon="24.885757">
<time>2021-05-21T10:29:20Z</time>
</trkpt>
<trkpt lat="60.222069" lon="24.885859">
<time>2021-05-21T10:29:21Z</time>
</trkpt>
<trkpt lat="60.222033" lon="24.885962">
<time>2021-05-21T10:29:22Z</time>
</trkpt>
<trkpt lat="60.221998" lon="24.886067">
<time>2021-05-21T10:29:23Z</time>
</trkpt>
<trkpt lat="60.221967" lon="24.886177">
<time>2021-05-21T10:29:24Z</time>
</trkpt>
<trkpt lat="60.221921" lon="24.886297">
<time>2021-05-21T10:29:25Z</time>
</trkpt>
<trkpt lat="60.221885" lon="24.886415">
<time>2021-05-21T10:29:26Z</time>
</trkpt>
<trkpt lat="60.221849" lon="24.88653">
<time>2021-05-21T10:29:27Z</time>
</trkpt>
<trkpt lat="60.221808" lon="24.886635">
<time>2021-05-21T10:29:28Z</time>
</trkpt>
<trkpt lat="60.221767" lon="24.886712">
<time>2021-05-21T10:29:29Z</time>
</trkpt>
<trkpt lat="60.221726" lon="24.886755">
<time>2021-05-21T10:29:30Z</time>
</trkpt>
<trkpt lat="60.22167" lon="24.886758">
<time>2021-05-21T10:29:32Z</time>
</trkpt>
<trkpt lat="60.221639" lon="24.886643">
<time>2021-05-21T10:29:35Z</time>
</trkpt>
<trkpt lat="60.221655" lon="24.886502">
<time>2021-05-21T10:29:37Z</time>
</trkpt>
<trkpt lat="60.221696" lon="24.886287">
<time>2021-05-21T10:29:39Z</time>
</trkpt>
<trkpt lat="60.221726" lon="24.886149">
<time>2021-05-21T10:29:40Z</time>
</trkpt>
<trkpt lat="60.221808" lon="24.885918">
<time>2021-05-21T10:29:41Z</time>
</trkpt>
<trkpt lat="60.22187" lon="24.885708">
<time>2021-05-21T10:29:42Z</time>
</trkpt>
<trkpt lat="60.221921" lon="24.885521">
<time>2021-05-21T10:29:43Z</time>
</trkpt>
<trkpt lat="60.221967" lon="24.88536">
<time>2021-05-21T10:29:44Z</time>
</trkpt>
<trkpt lat="60.222008" lon="24.885199">
<time>2021-05-21T10:29:45Z</time>
</trkpt>
<trkpt lat="60.222044" lon="24.885048">
<time>2021-05-21T10:29:46Z</time>
</trkpt>
<trkpt lat="60.22209" lon="24.884907">
<time>2021-05-21T10:29:47Z</time>
</trkpt>
<trkpt lat="60.22212" lon="24.884774">
<time>2021-05-21T10:29:48Z</time>
</trkpt>
<trkpt lat="60.222146" lon="24.884656">
<time>2021-05-21T10:29:49Z</time>
</trkpt>
<trkpt lat="60.222161" lon="24.884564">
<time>2021-05-21T10:29:50Z</time>
</trkpt>
<trkpt lat="60.22208" lon="24.884513">
<time>2021-05-21T10:29:52Z</time>
</trkpt>
<trkpt lat="60.221982" lon="24.884428">
<time>2021-05-21T10:29:54Z</time>
</trkpt>
<trkpt lat="60.221931" lon="24.884385">
<time>2021-05-21T10:29:55Z</time>
</trkpt>
<trkpt lat="60.22188" lon="24.884349">
<time>2021-05-21T10:29:56Z</time>
</trkpt>
<trkpt lat="60.221834" lon="24.884316">
<time>2021-05-21T10:29:57Z</time>
</trkpt>
<trkpt lat="60.221798" lon="24.88428">
<time>2021-05-21T10:29:58Z</time>
</trkpt>
<trkpt lat="60.221757" lon="24.88418">
<time>2021-05-21T10:30:00Z</time>
</trkpt>
<trkpt lat="60.221752" lon="24.884019">
<time>2021-05-21T10:30:02Z</time>
</trkpt>
<trkpt lat="60.221767" lon="24.883845">
<time>2021-05-21T10:30:04Z</time>
</trkpt>
<trkpt lat="60.221783" lon="24.88374">
<time>2021-05-21T10:30:05Z</time>
</trkpt>
<trkpt lat="60.221798" lon="24.883632">
<time>2021-05-21T10:30:06Z</time>
</trkpt>
<trkpt lat="60.221813" lon="24.883525">
<time>2021-05-21T10:30:07Z</time>
</trkpt>
<trkpt lat="60.221829" lon="24.88342">
<time>2021-05-21T10:30:08Z</time>
</trkpt>
<trkpt lat="60.221849" lon="24.883312">
<time>2021-05-21T10:30:09Z</time>
</trkpt>
<trkpt lat="60.221864" lon="24.883202">
<time>2021-05-21T10:30:10Z</time>
</trkpt>
<trkpt lat="60.221895" lon="24.883089">
<time>2021-05-21T10:30:11Z</time>
</trkpt>
<trkpt lat="60.221946" lon="24.882864">
<time>2021-05-21T10:30:13Z</time>
</trkpt>
<trkpt lat="60.221972" lon="24.882728">
<time>2021-05-21T10:30:14Z</time>
</trkpt>
<trkpt lat="60.222013" lon="24.882585">
<time>2021-05-21T10:30:15Z</time>
</trkpt>
<trkpt lat="60.222059" lon="24.882439">
<time>2021-05-21T10:30:16Z</time>
</trkpt>
<trkpt lat="60.2221" lon="24.882298">
<time>2021-05-21T10:30:17Z</time>
</trkpt>
<trkpt lat="60.222146" lon="24.882142">
<time>2021-05-21T10:30:18Z</time>
</trkpt>
<trkpt lat="60.222182" lon="24.881981">
<time>2021-05-21T10:30:19Z</time>
</trkpt>
<trkpt lat="60.222218" lon="24.881825">
<time>2021-05-21T10:30:20Z</time>
</trkpt>
<trkpt lat="60.222248" lon="24.881669">
<time>2021-05-21T10:30:22Z</time>
</trkpt>
<trkpt lat="60.222269" lon="24.881297">
<time>2021-05-21T10:30:24Z</time>
</trkpt>
<trkpt lat="60.22212" lon="24.881075">
<time>2021-05-21T10:30:29Z</time>
</trkpt>
<trkpt lat="60.222059" lon="24.881018">
<time>2021-05-21T10:30:30Z</time>
</trkpt>
<trkpt lat="60.221987" lon="24.880985">
<time>2021-05-21T10:30:31Z</time>
</trkpt>
<trkpt lat="60.221911" lon="24.880972">
<time>2021-05-21T10:30:32Z</time>
</trkpt>
<trkpt lat="60.221849" lon="24.880972">
<time>2021-05-21T10:30:33Z</time>
</trkpt>
<trkpt lat="60.221701" lon="24.880995">
<time>2021-05-21T10:30:35Z</time>
</trkpt>
<trkpt lat="60.221629" lon="24.881006">
<time>2021-05-21T10:30:36Z</time>
</trkpt>
<trkpt lat="60.221562" lon="24.881018">
<time>2021-05-21T10:30:37Z</time>
</trkpt>
<trkpt lat="60.221506" lon="24.881036">
<time>2021-05-21T10:30:38Z</time>
</trkpt>
<trkpt lat="60.22145" lon="24.881072">
<time>2021-05-21T10:30:39Z</time>
</trkpt>
<trkpt lat="60.221399" lon="24.881123">
<time>2021-05-21T10:30:40Z</time>
</trkpt>
<trkpt lat="60.221352" lon="24.881198">
<time>2021-05-21T10:30:41Z</time>
</trkpt>
<trkpt lat="60.221306" lon="24.881292">
<time>2021-05-21T10:30:42Z</time>
</trkpt>
<trkpt lat="60.221265" lon="24.881395">
<time>2021-05-21T10:30:43Z</time>
</trkpt>
<trkpt lat="60.221219" lon="24.881505">
<time>2021-05-21T10:30:44Z</time>
</trkpt>
<trkpt lat="60.221184" lon="24.881605">
<time>2021-05-21T10:30:45Z</time>
</trkpt>
<trkpt lat="60.221148" lon="24.881699">
<time>2021-05-21T10:30:46Z</time>
</trkpt>
<trkpt lat="60.221102" lon="24.881802">
<time>2021-05-21T10:30:47Z</time>
</trkpt>
<trkpt lat="60.22105" lon="24.88192">
<time>2021-05-21T10:30:48Z</time>
</trkpt>
<trkpt lat="60.221009" lon="24.88204">
<time>2021-05-21T10:30:49Z</time>
</trkpt>
<trkpt lat="60.220963" lon="24.882158">
<time>2021-05-21T10:30:50Z</time>
</trkpt>
<trkpt lat="60.220928" lon="24.882278">
<time>2021-05-21T10:30:51Z</time>
</trkpt>
<trkpt lat="60.220887" lon="24.882398">
<time>2021-05-21T10:30:52Z</time>
</trkpt>
<trkpt lat="60.22084" lon="24.882524">
<time>2021-05-21T10:30:53Z</time>
</trkpt>
<trkpt lat="60.220789" lon="24.882641">
<time>2021-05-21T10:30:54Z</time>
</trkpt>
<trkpt lat="60.220743" lon="24.882749">
<time>2021-05-21T10:30:55Z</time>
</trkpt>
<trkpt lat="60.220697" lon="24.882841">
<time>2021-05-21T10:30:56Z</time>
</trkpt>
<trkpt lat="60.220636" lon="24.882941">
<time>2021-05-21T10:30:57Z</time>
</trkpt>
<trkpt lat="60.220574" lon="24.883025">
<time>2021-05-21T10:30:58Z</time>
</trkpt>
<trkpt lat="60.220518" lon="24.883097">
<time>2021-05-21T10:30:59Z</time>
</trkpt>
<trkpt lat="60.220462" lon="24.883151">
<time>2021-05-21T10:31:00Z</time>
</trkpt>
<trkpt lat="60.220405" lon="24.883197">
<time>2021-05-21T10:31:01Z</time>
</trkpt>
<trkpt lat="60.220359" lon="24.883225">
<time>2021-05-21T10:31:02Z</time>
</trkpt>
<trkpt lat="60.220282" lon="24.883225">
<time>2021-05-21T10:31:04Z</time>
</trkpt>
<trkpt lat="60.220231" lon="24.883169">
<time>2021-05-21T10:31:06Z</time>
</trkpt>
<trkpt lat="60.220185" lon="24.883082">
<time>2021-05-21T10:31:08Z</time>
</trkpt>
<trkpt lat="60.220154" lon="24.883018">
<time>2021-05-21T10:31:10Z</time>
</trkpt>
<trkpt lat="60.220119" lon="24.882974">
<time>2021-05-21T10:31:14Z</time>
</trkpt>
<trkpt lat="60.220144" lon="24.883151">
<time>2021-05-21T10:31:18Z</time>
</trkpt>
<trkpt lat="60.220108" lon="24.883261">
<time>2021-05-21T10:31:21Z</time>
</trkpt>
<trkpt lat="60.220052" lon="24.883307">
<time>2021-05-21T10:31:23Z</time>
</trkpt>
<trkpt lat="60.21997" lon="24.883338">
<time>2021-05-21T10:31:25Z</time>
</trkpt>
<trkpt lat="60.219878" lon="24.883374">
<time>2021-05-21T10:31:27Z</time>
</trkpt>
<trkpt lat="60.219776" lon="24.883389">
<time>2021-05-21T10:31:29Z</time>
</trkpt>
<trkpt lat="60.219719" lon="24.883381">
<time>2021-05-21T10:31:30Z</time>
</trkpt>
<trkpt lat="60.219663" lon="24.883356">
<time>2021-05-21T10:31:31Z</time>
</trkpt>
<trkpt lat="60.219607" lon="24.88332">
<time>2021-05-21T10:31:32Z</time>
</trkpt>
<trkpt lat="60.21955" lon="24.883269">
<time>2021-05-21T10:31:33Z</time>
</trkpt>
<trkpt lat="60.219494" lon="24.883202">
<time>2021-05-21T10:31:34Z</time>
</trkpt>
<trkpt lat="60.219432" lon="24.883128">
<time>2021-05-21T10:31:35Z</time>
</trkpt>
<trkpt lat="60.219376" lon="24.883066">
<time>2021-05-21T10:31:36Z</time>
</trkpt>
<trkpt lat="60.219315" lon="24.883013">
<time>2021-05-21T10:31:37Z</time>
</trkpt>
<trkpt lat="60.219253" lon="24.882979">
<time>2021-05-21T10:31:38Z</time>
</trkpt>
<trkpt lat="60.219187" lon="24.882964">
<time>2021-05-21T10:31:39Z</time>
</trkpt>
<trkpt lat="60.219125" lon="24.882969">
<time>2021-05-21T10:31:40Z</time>
</trkpt>
<trkpt lat="60.219064" lon="24.882984">
<time>2021-05-21T10:31:41Z</time>
</trkpt>
<trkpt lat="60.218997" lon="24.883005">
<time>2021-05-21T10:31:42Z</time>
</trkpt>
<trkpt lat="60.218936" lon="24.883028">
<time>2021-05-21T10:31:43Z</time>
</trkpt>
<trkpt lat="60.218864" lon="24.883056">
<time>2021-05-21T10:31:44Z</time>
</trkpt>
<trkpt lat="60.218798" lon="24.883089">
<time>2021-05-21T10:31:45Z</time>
</trkpt>
<trkpt lat="60.218726" lon="24.883136">
<time>2021-05-21T10:31:46Z</time>
</trkpt>
<trkpt lat="60.218664" lon="24.883194">
<time>2021-05-21T10:31:47Z</time>
</trkpt>
<trkpt lat="60.218608" lon="24.883264">
<time>2021-05-21T10:31:48Z</time>
</trkpt>
<trkpt lat="60.218557" lon="24.883343">
<time>2021-05-21T10:31:49Z</time>
</trkpt>
<trkpt lat="60.218511" lon="24.883435">
<time>2021-05-21T10:31:50Z</time>
</trkpt>
<trkpt lat="60.21846" lon="24.883525">
<time>2021-05-21T10:31:51Z</time>
</trkpt>
<trkpt lat="60.218419" lon="24.883596">
<time>2021-05-21T10:31:52Z</time>
</trkpt>
<trkpt lat="60.218362" lon="24.883665">
<time>2021-05-21T10:31:53Z</time>
</trkpt>
<trkpt lat="60.218311" lon="24.883724">
<time>2021-05-21T10:31:54Z</time>
</trkpt>
<trkpt lat="60.218265" lon="24.88377">
<time>2021-05-21T10:31:55Z</time>
</trkpt>
<trkpt lat="60.218214" lon="24.883809">
<time>2021-05-21T10:31:56Z</time>
</trkpt>
<trkpt lat="60.218168" lon="24.88384">
<time>2021-05-21T10:31:57Z</time>
</trkpt>
<trkpt lat="60.218112" lon="24.883875">
<time>2021-05-21T10:31:58Z</time>
</trkpt>
<trkpt lat="60.21806" lon="24.883911">
<time>2021-05-21T10:31:59Z</time>
</trkpt>
<trkpt lat="60.218004" lon="24.88395">
<time>2021-05-21T10:32:00Z</time>
</trkpt>
<trkpt lat="60.217953" lon="24.883996">
<time>2021-05-21T10:32:01Z</time>
</trkpt>
<trkpt lat="60.217896" lon="24.884047">
<time>2021-05-21T10:32:02Z</time>
</trkpt>
<trkpt lat="60.21784" lon="24.884101">
<time>2021-05-21T10:32:03Z</time>
</trkpt>
<trkpt lat="60.217779" lon="24.884154">
<time>2021-05-21T10:32:04Z</time>
</trkpt>
<trkpt lat="60.217717" lon="24.884203">
<time>2021-05-21T10:32:05Z</time>
</trkpt>
<trkpt lat="60.217661" lon="24.884244">
<time>2021-05-21T10:32:06Z</time>
</trkpt>
<trkpt lat="60.217615" lon="24.884277">
<time>2021-05-21T10:32:07Z</time>
</trkpt>
<trkpt lat="60.217538" lon="24.884331">
<time>2021-05-21T10:32:09Z</time>
</trkpt>
<trkpt lat="60.217466" lon="24.8844">
<time>2021-05-21T10:32:11Z</time>
</trkpt>
<trkpt lat="60.217405" lon="24.884487">
<time>2021-05-21T10:32:13Z</time>
</trkpt>
<trkpt lat="60.217344" lon="24.88459">
<time>2021-05-21T10:32:15Z</time>
</trkpt>
<trkpt lat="60.217287" lon="24.884684">
<time>2021-05-21T10:32:17Z</time>
</trkpt>
<trkpt lat="60.217246" lon="24.884743">
<time>2021-05-21T10:32:19Z</time>
</trkpt>
<trkpt lat="60.217139" lon="24.88481">
<time>2021-05-21T10:32:27Z</time>
</trkpt>
<trkpt lat="60.217062" lon="24.884843">
<time>2021-05-21T10:32:30Z</time>
</trkpt>
<trkpt lat="60.217016" lon="24.884904">
<time>2021-05-21T10:32:32Z</time>
</trkpt>
<trkpt lat="60.21697" lon="24.884989">
<time>2021-05-21T10:32:34Z</time>
</trkpt>
<trkpt lat="60.216929" lon="24.885099">
<time>2021-05-21T10:32:36Z</time>
</trkpt>
<trkpt lat="60.216898" lon="24.885214">
<time>2021-05-21T10:32:38Z</time>
</trkpt>
<trkpt lat="60.216852" lon="24.885322">
<time>2021-05-21T10:32:40Z</time>
</trkpt>
<trkpt lat="60.216791" lon="24.885409">
<time>2021-05-21T10:32:42Z</time>
</trkpt>
<trkpt lat="60.216724" lon="24.885491">
<time>2021-05-21T10:32:45Z</time>
</trkpt>
<trkpt lat="60.216683" lon="24.88558">
<time>2021-05-21T10:32:46Z</time>
</trkpt>
<trkpt lat="60.216652" lon="24.885657">
<time>2021-05-21T10:32:48Z</time>
</trkpt>
<trkpt lat="60.216611" lon="24.885775">
<time>2021-05-21T10:32:58Z</time>
</trkpt>
<trkpt lat="60.216565" lon="24.885826">
<time>2021-05-21T10:33:03Z</time>
</trkpt>
<trkpt lat="60.216535" lon="24.885747">
<time>2021-05-21T10:33:09Z</time>
</trkpt>
<trkpt lat="60.216458" lon="24.885693">
<time>2021-05-21T10:33:19Z</time>
</trkpt>
<trkpt lat="60.216391" lon="24.885734">
<time>2021-05-21T10:33:23Z</time>
</trkpt>
<trkpt lat="60.21634" lon="24.885783">
<time>2021-05-21T10:33:26Z</time>
</trkpt>
<trkpt lat="60.216304" lon="24.88589">
<time>2021-05-21T10:33:30Z</time>
</trkpt>
<trkpt lat="60.216253" lon="24.885944">
<time>2021-05-21T10:33:33Z</time>
</trkpt>
<trkpt lat="60.216176" lon="24.885977">
<time>2021-05-21T10:33:36Z</time>
</trkpt>
<trkpt lat="60.216125" lon="24.885985">
<time>2021-05-21T10:33:38Z</time>
</trkpt>
<trkpt lat="60.216074" lon="24.885977">
<time>2021-05-21T10:33:40Z</time>
</trkpt>
<trkpt lat="60.216028" lon="24.885911">
<time>2021-05-21T10:33:43Z</time>
</trkpt>
<trkpt lat="60.216028" lon="24.885747">
<time>2021-05-21T10:33:46Z</time>
</trkpt>
<trkpt lat="60.216048" lon="24.885596">
<time>2021-05-21T10:33:48Z</time>
</trkpt>
<trkpt lat="60.216089" lon="24.885437">
<time>2021-05-21T10:33:50Z</time>
</trkpt>
<trkpt lat="60.216145" lon="24.88526">
<time>2021-05-21T10:33:52Z</time>
</trkpt>
<trkpt lat="60.216181" lon="24.885184">
<time>2021-05-21T10:33:53Z</time>
</trkpt>
<trkpt lat="60.216212" lon="24.885107">
<time>2021-05-21T10:33:54Z</time>
</trkpt>
<trkpt lat="60.216284" lon="24.884971">
<time>2021-05-21T10:33:56Z</time>
</trkpt>
<trkpt lat="60.216345" lon="24.884866">
<time>2021-05-21T10:33:58Z</time>
</trkpt>
<trkpt lat="60.216412" lon="24.884774">
<time>2021-05-21T10:34:00Z</time>
</trkpt>
<trkpt lat="60.216463" lon="24.884684">
<time>2021-05-21T10:34:02Z</time>
</trkpt>
<trkpt lat="60.216488" lon="24.884625">
<time>2021-05-21T10:34:04Z</time>
</trkpt>
<trkpt lat="60.216422" lon="24.884687">
<time>2021-05-21T10:34:09Z</time>
</trkpt>
<trkpt lat="60.21636" lon="24.884794">
<time>2021-05-21T10:34:11Z</time>
</trkpt>
<trkpt lat="60.216284" lon="24.884928">
<time>2021-05-21T10:34:13Z</time>
</trkpt>
<trkpt lat="60.216238" lon="24.885004">
<time>2021-05-21T10:34:14Z</time>
</trkpt>
<trkpt lat="60.216192" lon="24.885102">
<time>2021-05-21T10:34:15Z</time>
</trkpt>
<trkpt lat="60.216145" lon="24.885204">
<time>2021-05-21T10:34:16Z</time>
</trkpt>
<trkpt lat="60.216104" lon="24.885314">
<time>2021-05-21T10:34:17Z</time>
</trkpt>
<trkpt lat="60.216064" lon="24.885434">
<time>2021-05-21T10:34:18Z</time>
</trkpt>
<trkpt lat="60.216028" lon="24.885565">
<time>2021-05-21T10:34:19Z</time>
</trkpt>
<trkpt lat="60.216007" lon="24.885703">
<time>2021-05-21T10:34:20Z</time>
</trkpt>
<trkpt lat="60.215987" lon="24.885844">
<time>2021-05-21T10:34:21Z</time>
</trkpt>
<trkpt lat="60.215976" lon="24.885985">
<time>2021-05-21T10:34:22Z</time>
</trkpt>
<trkpt lat="60.215961" lon="24.886128">
<time>2021-05-21T10:34:23Z</time>
</trkpt>
<trkpt lat="60.215946" lon="24.886269">
<time>2021-05-21T10:34:24Z</time>
</trkpt>
<trkpt lat="60.215925" lon="24.886407">
<time>2021-05-21T10:34:25Z</time>
</trkpt>
<trkpt lat="60.215895" lon="24.886548">
<time>2021-05-21T10:34:26Z</time>
</trkpt>
<trkpt lat="60.215864" lon="24.886666">
<time>2021-05-21T10:34:27Z</time>
</trkpt>
<trkpt lat="60.215833" lon="24.886758">
<time>2021-05-21T10:34:28Z</time>
</trkpt>
<trkpt lat="60.215802" lon="24.886824">
<time>2021-05-21T10:34:29Z</time>
</trkpt>
<trkpt lat="60.215741" lon="24.886865">
<time>2021-05-21T10:34:31Z</time>
</trkpt>
<trkpt lat="60.215695" lon="24.886796">
<time>2021-05-21T10:34:33Z</time>
</trkpt>
<trkpt lat="60.215644" lon="24.88665">
<time>2021-05-21T10:34:35Z</time>
</trkpt>
<trkpt lat="60.215603" lon="24.88653">
<time>2021-05-21T10:34:37Z</time>
</trkpt>
<trkpt lat="60.215557" lon="24.886435">
<time>2021-05-21T10:34:39Z</time>
</trkpt>
<trkpt lat="60.215516" lon="24.886333">
<time>2021-05-21T10:34:41Z</time>
</trkpt>
<trkpt lat="60.21547" lon="24.88621">
<time>2021-05-21T10:34:43Z</time>
</trkpt>
<trkpt lat="60.215413" lon="24.886082">
<time>2021-05-21T10:34:45Z</time>
</trkpt>
<trkpt lat="60.215357" lon="24.885985">
<time>2021-05-21T10:34:47Z</time>
</trkpt>
<trkpt lat="60.215306" lon="24.885921">
<time>2021-05-21T10:34:49Z</time>
</trkpt>
<trkpt lat="60.215255" lon="24.885875">
<time>2021-05-21T10:34:51Z</time>
</trkpt>
<trkpt lat="60.215203" lon="24.885836">
<time>2021-05-21T10:34:54Z</time>
</trkpt>
<trkpt lat="60.215168" lon="24.885719">
<time>2021-05-21T10:35:01Z</time>
</trkpt>
<trkpt lat="60.215178" lon="24.88556">
<time>2021-05-21T10:35:13Z</time>
</trkpt>
<trkpt lat="60.215229" lon="24.885463">
<time>2021-05-21T10:35:17Z</time>
</trkpt>
<trkpt lat="60.215275" lon="24.885391">
<time>2021-05-21T10:35:20Z</time>
</trkpt>
<trkpt lat="60.215326" lon="24.885304">
<time>2021-05-21T10:35:23Z</time>
</trkpt>
<trkpt lat="60.215398" lon="24.885196">
<time>2021-05-21T10:35:31Z</time>
</trkpt>
<trkpt lat="60.215454" lon="24.885102">
<time>2021-05-21T10:35:34Z</time>
</trkpt>
<trkpt lat="60.2155" lon="24.885025">
<time>2021-05-21T10:35:36Z</time>
</trkpt>
<trkpt lat="60.215546" lon="24.884958">
<time>2021-05-21T10:35:38Z</time>
</trkpt>
<trkpt lat="60.215587" lon="24.884892">
<time>2021-05-21T10:35:40Z</time>
</trkpt>
<trkpt lat="60.215628" lon="24.884807">
<time>2021-05-21T10:35:42Z</time>
</trkpt>
<trkpt lat="60.215669" lon="24.884715">
<time>2021-05-21T10:35:44Z</time>
</trkpt>
<trkpt lat="60.215705" lon="24.884638">
<time>2021-05-21T10:35:46Z</time>
</trkpt>
<trkpt lat="60.215746" lon="24.884574">
<time>2021-05-21T10:35:48Z</time>
</trkpt>
<trkpt lat="60.215792" lon="24.884508">
<time>2021-05-21T10:35:50Z</time>
</trkpt>
<trkpt lat="60.215833" lon="24.884436">
<time>2021-05-21T10:35:52Z</time>
</trkpt>
<trkpt lat="60.215864" lon="24.884354">
<time>2021-05-21T10:35:54Z</time>
</trkpt>
<trkpt lat="60.215889" lon="24.884277">
<time>2021-05-21T10:35:56Z</time>
</trkpt>
<trkpt lat="60.215946" lon="24.884124">
<time>2021-05-21T10:35:59Z</time>
</trkpt>
<trkpt lat="60.216007" lon="24.884003">
<time>2021-05-21T10:36:01Z</time>
</trkpt>
<trkpt lat="60.216089" lon="24.883927">
<time>2021-05-21T10:36:03Z</time>
</trkpt>
<trkpt lat="60.216176" lon="24.883927">
<time>2021-05-21T10:36:05Z</time>
</trkpt>
<trkpt lat="60.216263" lon="24.883996">
<time>2021-05-21T10:36:07Z</time>
</trkpt>
<trkpt lat="60.216304" lon="24.884042">
<time>2021-05-21T10:36:08Z</time>
</trkpt>
<trkpt lat="60.216407" lon="24.884142">
<time>2021-05-21T10:36:10Z</time>
</trkpt>
<trkpt lat="60.216458" lon="24.884185">
<time>2021-05-21T10:36:11Z</time>
</trkpt>
<trkpt lat="60.216504" lon="24.884224">
<time>2021-05-21T10:36:12Z</time>
</trkpt>
<trkpt lat="60.21655" lon="24.884254">
<time>2021-05-21T10:36:13Z</time>
</trkpt>
<trkpt lat="60.216637" lon="24.884311">
<time>2021-05-21T10:36:15Z</time>
</trkpt>
<trkpt lat="60.216719" lon="24.884369">
<time>2021-05-21T10:36:17Z</time>
</trkpt>
<trkpt lat="60.216801" lon="24.884428">
<time>2021-05-21T10:36:19Z</time>
</trkpt>
<trkpt lat="60.216883" lon="24.884477">
<time>2021-05-21T10:36:21Z</time>
</trkpt>
<trkpt lat="60.216975" lon="24.884472">
<time>2021-05-21T10:36:23Z</time>
</trkpt>
<trkpt lat="60.217062" lon="24.8844">
<time>2021-05-21T10:36:25Z</time>
</trkpt>
<trkpt lat="60.217149" lon="24.884323">
<time>2021-05-21T10:36:27Z</time>
</trkpt>
<trkpt lat="60.2172" lon="24.884305">
<time>2021-05-21T10:36:28Z</time>
</trkpt>
<trkpt lat="60.217297" lon="24.884308">
<time>2021-05-21T10:36:30Z</time>
</trkpt>
<trkpt lat="60.217354" lon="24.884313">
<time>2021-05-21T10:36:31Z</time>
</trkpt>
<trkpt lat="60.217466" lon="24.884313">
<time>2021-05-21T10:36:33Z</time>
</trkpt>
<trkpt lat="60.217518" lon="24.884305">
<time>2021-05-21T10:36:34Z</time>
</trkpt>
<trkpt lat="60.217574" lon="24.88429">
<time>2021-05-21T10:36:35Z</time>
</trkpt>
<trkpt lat="60.217625" lon="24.884267">
<time>2021-05-21T10:36:36Z</time>
</trkpt>
<trkpt lat="60.217681" lon="24.884236">
<time>2021-05-21T10:36:37Z</time>
</trkpt>
<trkpt lat="60.217738" lon="24.884198">
<time>2021-05-21T10:36:38Z</time>
</trkpt>
<trkpt lat="60.217794" lon="24.884157">
<time>2021-05-21T10:36:39Z</time>
</trkpt>
<trkpt lat="60.21785" lon="24.884113">
<time>2021-05-21T10:36:40Z</time>
</trkpt>
<trkpt lat="60.217902" lon="24.88407">
<time>2021-05-21T10:36:41Z</time>
</trkpt>
<trkpt lat="60.217958" lon="24.884029">
<time>2021-05-21T10:36:42Z</time>
</trkpt>
<trkpt lat="60.218014" lon="24.883993">
<time>2021-05-21T10:36:43Z</time>
</trkpt>
<trkpt lat="60.218071" lon="24.88396">
<time>2021-05-21T10:36:44Z</time>
</trkpt>
<trkpt lat="60.218127" lon="24.883929">
<time>2021-05-21T10:36:45Z</time>
</trkpt>
<trkpt lat="60.218188" lon="24.883893">
<time>2021-05-21T10:36:46Z</time>
</trkpt>
<trkpt lat="60.21825" lon="24.88385">
<time>2021-05-21T10:36:47Z</time>
</trkpt>
<trkpt lat="60.218321" lon="24.88377">
<time>2021-05-21T10:36:48Z</time>
</trkpt>
<trkpt lat="60.218388" lon="24.883673">
<time>2021-05-21T10:36:49Z</time>
</trkpt>
<trkpt lat="60.218439" lon="24.883584">
<time>2021-05-21T10:36:50Z</time>
</trkpt>
<trkpt lat="60.21848" lon="24.883479">
<time>2021-05-21T10:36:51Z</time>
</trkpt>
<trkpt lat="60.218521" lon="24.883376">
<time>2021-05-21T10:36:52Z</time>
</trkpt>
<trkpt lat="60.218557" lon="24.883292">
<time>2021-05-21T10:36:53Z</time>
</trkpt>
<trkpt lat="60.218603" lon="24.883228">
<time>2021-05-21T10:36:54Z</time>
</trkpt>
<trkpt lat="60.21867" lon="24.883179">
<time>2021-05-21T10:36:55Z</time>
</trkpt>
<trkpt lat="60.218741" lon="24.883138">
<time>2021-05-21T10:36:56Z</time>
</trkpt>
<trkpt lat="60.218818" lon="24.883097">
<time>2021-05-21T10:36:57Z</time>
</trkpt>
<trkpt lat="60.218895" lon="24.883056">
<time>2021-05-21T10:36:58Z</time>
</trkpt>
<trkpt lat="60.218961" lon="24.883015">
<time>2021-05-21T10:36:59Z</time>
</trkpt>
<trkpt lat="60.219023" lon="24.882982">
<time>2021-05-21T10:37:00Z</time>
</trkpt>
<trkpt lat="60.219069" lon="24.882969">
<time>2021-05-21T10:37:01Z</time>
</trkpt>
<trkpt lat="60.219141" lon="24.883015">
<time>2021-05-21T10:37:03Z</time>
</trkpt>
<trkpt lat="60.219166" lon="24.883128">
<time>2021-05-21T10:37:05Z</time>
</trkpt>
<trkpt lat="60.219156" lon="24.883292">
<time>2021-05-21T10:37:07Z</time>
</trkpt>
<trkpt lat="60.219141" lon="24.883517">
<time>2021-05-21T10:37:09Z</time>
</trkpt>
<trkpt lat="60.219141" lon="24.88365">
<time>2021-05-21T10:37:10Z</time>
</trkpt>
<trkpt lat="60.21913" lon="24.883783">
<time>2021-05-21T10:37:11Z</time>
</trkpt>
<trkpt lat="60.21912" lon="24.883927">
<time>2021-05-21T10:37:12Z</time>
</trkpt>
<trkpt lat="60.219105" lon="24.884065">
<time>2021-05-21T10:37:13Z</time>
</trkpt>
<trkpt lat="60.219089" lon="24.884185">
<time>2021-05-21T10:37:14Z</time>
</trkpt>
<trkpt lat="60.219069" lon="24.884295">
<time>2021-05-21T10:37:15Z</time>
</trkpt>
<trkpt lat="60.219054" lon="24.884375">
<time>2021-05-21T10:37:16Z</time>
</trkpt>
<trkpt lat="60.219018" lon="24.884444">
<time>2021-05-21T10:37:18Z</time>
</trkpt>
<trkpt lat="60.218951" lon="24.884398">
<time>2021-05-21T10:37:21Z</time>
</trkpt>
<trkpt lat="60.218905" lon="24.884339">
<time>2021-05-21T10:37:23Z</time>
</trkpt>
<trkpt lat="60.218869" lon="24.884331">
<time>2021-05-21T10:37:26Z</time>
</trkpt>
<trkpt lat="60.218931" lon="24.884446">
<time>2021-05-21T10:37:31Z</time>
</trkpt>
<trkpt lat="60.218977" lon="24.884497">
<time>2021-05-21T10:37:33Z</time>
</trkpt>
<trkpt lat="60.219028" lon="24.884482">
<time>2021-05-21T10:37:35Z</time>
</trkpt>
<trkpt lat="60.219059" lon="24.88439">
<time>2021-05-21T10:37:37Z</time>
</trkpt>
<trkpt lat="60.219079" lon="24.884241">
<time>2021-05-21T10:37:39Z</time>
</trkpt>
<trkpt lat="60.2191" lon="24.884052">
<time>2021-05-21T10:37:41Z</time>
</trkpt>
<trkpt lat="60.21912" lon="24.883837">
<time>2021-05-21T10:37:43Z</time>
</trkpt>
<trkpt lat="60.219125" lon="24.883724">
<time>2021-05-21T10:37:44Z</time>
</trkpt>
<trkpt lat="60.219141" lon="24.883607">
<time>2021-05-21T10:37:45Z</time>
</trkpt>
<trkpt lat="60.219156" lon="24.883486">
<time>2021-05-21T10:37:46Z</time>
</trkpt>
<trkpt lat="60.219171" lon="24.883374">
<time>2021-05-21T10:37:47Z</time>
</trkpt>
<trkpt lat="60.219187" lon="24.883264">
<time>2021-05-21T10:37:48Z</time>
</trkpt>
<trkpt lat="60.219202" lon="24.883169">
<time>2021-05-21T10:37:49Z</time>
</trkpt>
<trkpt lat="60.219228" lon="24.883092">
<time>2021-05-21T10:37:50Z</time>
</trkpt>
<trkpt lat="60.219289" lon="24.88302">
<time>2021-05-21T10:37:52Z</time>
</trkpt>
<trkpt lat="60.219351" lon="24.883043">
<time>2021-05-21T10:37:54Z</time>
</trkpt>
<trkpt lat="60.219448" lon="24.883136">
<time>2021-05-21T10:37:56Z</time>
</trkpt>
<trkpt lat="60.219499" lon="24.883192">
<time>2021-05-21T10:37:57Z</time>
</trkpt>
<trkpt lat="60.21956" lon="24.883243">
<time>2021-05-21T10:37:58Z</time>
</trkpt>
<trkpt lat="60.219617" lon="24.883284">
<time>2021-05-21T10:37:59Z</time>
</trkpt>
<trkpt lat="60.219678" lon="24.883312">
<time>2021-05-21T10:38:00Z</time>
</trkpt>
<trkpt lat="60.21974" lon="24.88333">
<time>2021-05-21T10:38:01Z</time>
</trkpt>
<trkpt lat="60.219801" lon="24.883338">
<time>2021-05-21T10:38:02Z</time>
</trkpt>
<trkpt lat="60.219873" lon="24.883338">
<time>2021-05-21T10:38:03Z</time>
</trkpt>
<trkpt lat="60.219939" lon="24.88333">
<time>2021-05-21T10:38:04Z</time>
</trkpt>
<trkpt lat="60.220006" lon="24.883322">
<time>2021-05-21T10:38:05Z</time>
</trkpt>
<trkpt lat="60.220072" lon="24.883312">
<time>2021-05-21T10:38:06Z</time>
</trkpt>
<trkpt lat="60.220144" lon="24.883299">
<time>2021-05-21T10:38:07Z</time>
</trkpt>
<trkpt lat="60.220211" lon="24.883276">
<time>2021-05-21T10:38:08Z</time>
</trkpt>
<trkpt lat="60.220282" lon="24.883251">
<time>2021-05-21T10:38:09Z</time>
</trkpt>
<trkpt lat="60.220354" lon="24.883225">
<time>2021-05-21T10:38:10Z</time>
</trkpt>
<trkpt lat="60.220416" lon="24.88321">
<time>2021-05-21T10:38:11Z</time>
</trkpt>
<trkpt lat="60.220472" lon="24.883212">
<time>2021-05-21T10:38:12Z</time>
</trkpt>
<trkpt lat="60.220518" lon="24.883235">
<time>2021-05-21T10:38:13Z</time>
</trkpt>
<trkpt lat="60.220564" lon="24.883287">
<time>2021-05-21T10:38:14Z</time>
</trkpt>
<trkpt lat="60.220595" lon="24.883361">
<time>2021-05-21T10:38:15Z</time>
</trkpt>
<trkpt lat="60.220661" lon="24.88355">
<time>2021-05-21T10:38:17Z</time>
</trkpt>
<trkpt lat="60.220697" lon="24.88366">
<time>2021-05-21T10:38:18Z</time>
</trkpt>
<trkpt lat="60.220728" lon="24.883773">
<time>2021-05-21T10:38:19Z</time>
</trkpt>
<trkpt lat="60.220759" lon="24.883878">
<time>2021-05-21T10:38:20Z</time>
</trkpt>
<trkpt lat="60.220779" lon="24.883985">
<time>2021-05-21T10:38:21Z</time>
</trkpt>
<trkpt lat="60.2208" lon="24.884098">
<time>2021-05-21T10:38:22Z</time>
</trkpt>
<trkpt lat="60.22081" lon="24.884216">
<time>2021-05-21T10:38:23Z</time>
</trkpt>
<trkpt lat="60.220815" lon="24.884328">
<time>2021-05-21T10:38:24Z</time>
</trkpt>
<trkpt lat="60.220805" lon="24.884428">
<time>2021-05-21T10:38:25Z</time>
</trkpt>
<trkpt lat="60.220794" lon="24.884528">
<time>2021-05-21T10:38:26Z</time>
</trkpt>
<trkpt lat="60.220759" lon="24.884712">
<time>2021-05-21T10:38:28Z</time>
</trkpt>
<trkpt lat="60.220707" lon="24.884889">
<time>2021-05-21T10:38:30Z</time>
</trkpt>
<trkpt lat="60.220682" lon="24.884979">
<time>2021-05-21T10:38:31Z</time>
</trkpt>
<trkpt lat="60.220523" lon="24.885496">
<time>2021-05-21T10:38:35Z</time>
</trkpt>
<trkpt lat="60.220518" lon="24.885524">
<time>2021-05-21T10:38:36Z</time>
</trkpt>
<trkpt lat="60.220472" lon="24.885713">
<time>2021-05-21T10:38:39Z</time>
</trkpt>
<trkpt lat="60.220431" lon="24.885834">
<time>2021-05-21T10:38:41Z</time>
</trkpt>
<trkpt lat="60.22039" lon="24.885903">
<time>2021-05-21T10:38:43Z</time>
</trkpt>
<trkpt lat="60.220339" lon="24.885895">
<time>2021-05-21T10:38:46Z</time>
</trkpt>
<trkpt lat="60.220303" lon="24.885795">
<time>2021-05-21T10:38:49Z</time>
</trkpt>
<trkpt lat="60.220267" lon="24.885626">
<time>2021-05-21T10:38:52Z</time>
</trkpt>
<trkpt lat="60.220252" lon="24.885501">
<time>2021-05-21T10:38:54Z</time>
</trkpt>
<trkpt lat="60.220236" lon="24.885381">
<time>2021-05-21T10:38:56Z</time>
</trkpt>
<trkpt lat="60.2202" lon="24.885212">
<time>2021-05-21T10:38:59Z</time>
</trkpt>
<trkpt lat="60.22018" lon="24.885089">
<time>2021-05-21T10:39:01Z</time>
</trkpt>
<trkpt lat="60.220175" lon="24.884961">
<time>2021-05-21T10:39:03Z</time>
</trkpt>
<trkpt lat="60.220195" lon="24.884869">
<time>2021-05-21T10:39:05Z</time>
</trkpt>
<trkpt lat="60.220252" lon="24.884833">
<time>2021-05-21T10:39:08Z</time>
</trkpt>
<trkpt lat="60.220308" lon="24.884925">
<time>2021-05-21T10:39:11Z</time>
</trkpt>
<trkpt lat="60.220354" lon="24.885007">
<time>2021-05-21T10:39:13Z</time>
</trkpt>
<trkpt lat="60.220405" lon="24.885094">
<time>2021-05-21T10:39:15Z</time>
</trkpt>
<trkpt lat="60.220472" lon="24.885153">
<time>2021-05-21T10:39:17Z</time>
</trkpt>
<trkpt lat="60.220554" lon="24.885132">
<time>2021-05-21T10:39:19Z</time>
</trkpt>
<trkpt lat="60.220636" lon="24.885025">
<time>2021-05-21T10:39:21Z</time>
</trkpt>
<trkpt lat="60.220682" lon="24.884892">
<time>2021-05-21T10:39:22Z</time>
</trkpt>
<trkpt lat="60.220728" lon="24.884751">
<time>2021-05-21T10:39:23Z</time>
</trkpt>
<trkpt lat="60.220769" lon="24.884613">
<time>2021-05-21T10:39:24Z</time>
</trkpt>
<trkpt lat="60.220794" lon="24.884444">
<time>2021-05-21T10:39:25Z</time>
</trkpt>
<trkpt lat="60.2208" lon="24.884295">
<time>2021-05-21T10:39:26Z</time>
</trkpt>
<trkpt lat="60.220784" lon="24.884144">
<time>2021-05-21T10:39:27Z</time>
</trkpt>
<trkpt lat="60.220759" lon="24.883991">
<time>2021-05-21T10:39:28Z</time>
</trkpt>
<trkpt lat="60.220733" lon="24.883832">
<time>2021-05-21T10:39:29Z</time>
</trkpt>
<trkpt lat="60.220702" lon="24.883681">
<time>2021-05-21T10:39:30Z</time>
</trkpt>
<trkpt lat="60.220666" lon="24.883527">
<time>2021-05-21T10:39:31Z</time>
</trkpt>
<trkpt lat="60.220641" lon="24.883397">
<time>2021-05-21T10:39:32Z</time>
</trkpt>
<trkpt lat="60.220615" lon="24.883276">
<time>2021-05-21T10:39:33Z</time>
</trkpt>
<trkpt lat="60.22061" lon="24.883179">
<time>2021-05-21T10:39:34Z</time>
</trkpt>
<trkpt lat="60.22061" lon="24.883089">
<time>2021-05-21T10:39:35Z</time>
</trkpt>
<trkpt lat="60.220651" lon="24.882913">
<time>2021-05-21T10:39:37Z</time>
</trkpt>
<trkpt lat="60.220677" lon="24.882821">
<time>2021-05-21T10:39:38Z</time>
</trkpt>
<trkpt lat="60.220707" lon="24.882731">
<time>2021-05-21T10:39:39Z</time>
</trkpt>
<trkpt lat="60.220743" lon="24.882624">
<time>2021-05-21T10:39:40Z</time>
</trkpt>
<trkpt lat="60.220774" lon="24.882508">
<time>2021-05-21T10:39:41Z</time>
</trkpt>
<trkpt lat="60.220815" lon="24.882393">
<time>2021-05-21T10:39:42Z</time>
</trkpt>
<trkpt lat="60.220856" lon="24.882278">
<time>2021-05-21T10:39:43Z</time>
</trkpt>
<trkpt lat="60.220897" lon="24.882173">
<time>2021-05-21T10:39:44Z</time>
</trkpt>
<trkpt lat="60.220943" lon="24.882058">
<time>2021-05-21T10:39:45Z</time>
</trkpt>
<trkpt lat="60.220989" lon="24.881937">
<time>2021-05-21T10:39:46Z</time>
</trkpt>
<trkpt lat="60.221035" lon="24.881815">
<time>2021-05-21T10:39:47Z</time>
</trkpt>
<trkpt lat="60.221076" lon="24.881687">
<time>2021-05-21T10:39:48Z</time>
</trkpt>
<trkpt lat="60.221117" lon="24.881559">
<time>2021-05-21T10:39:49Z</time>
</trkpt>
<trkpt lat="60.221158" lon="24.881443">
<time>2021-05-21T10:39:50Z</time>
</trkpt>
<trkpt lat="60.221209" lon="24.881338">
<time>2021-05-21T10:39:51Z</time>
</trkpt>
<trkpt lat="60.221265" lon="24.881256">
<time>2021-05-21T10:39:52Z</time>
</trkpt>
<trkpt lat="60.221332" lon="24.881241">
<time>2021-05-21T10:39:53Z</time>
</trkpt>
<trkpt lat="60.221414" lon="24.881221">
<time>2021-05-21T10:39:54Z</time>
</trkpt>
<trkpt lat="60.221491" lon="24.881203">
<time>2021-05-21T10:39:55Z</time>
</trkpt>
<trkpt lat="60.221573" lon="24.881175">
<time>2021-05-21T10:39:56Z</time>
</trkpt>
<trkpt lat="60.221655" lon="24.881144">
<time>2021-05-21T10:39:57Z</time>
</trkpt>
<trkpt lat="60.221742" lon="24.881113">
<time>2021-05-21T10:39:58Z</time>
</trkpt>
<trkpt lat="60.221829" lon="24.881093">
<time>2021-05-21T10:39:59Z</time>
</trkpt>
<trkpt lat="60.221911" lon="24.881072">
<time>2021-05-21T10:40:00Z</time>
</trkpt>
<trkpt lat="60.221992" lon="24.881054">
<time>2021-05-21T10:40:01Z</time>
</trkpt>
<trkpt lat="60.222059" lon="24.881044">
<time>2021-05-21T10:40:02Z</time>
</trkpt>
<trkpt lat="60.222131" lon="24.88109">
<time>2021-05-21T10:40:04Z</time>
</trkpt>
<trkpt lat="60.222172" lon="24.881154">
<time>2021-05-21T10:40:05Z</time>
</trkpt>
<trkpt lat="60.222192" lon="24.881226">
<time>2021-05-21T10:40:06Z</time>
</trkpt>
<trkpt lat="60.222197" lon="24.881423">
<time>2021-05-21T10:40:08Z</time>
</trkpt>
<trkpt lat="60.222187" lon="24.881533">
<time>2021-05-21T10:40:09Z</time>
</trkpt>
<trkpt lat="60.222161" lon="24.881702">
<time>2021-05-21T10:40:10Z</time>
</trkpt>
<trkpt lat="60.222146" lon="24.881863">
<time>2021-05-21T10:40:11Z</time>
</trkpt>
<trkpt lat="60.222115" lon="24.882012">
<time>2021-05-21T10:40:12Z</time>
</trkpt>
<trkpt lat="60.22208" lon="24.882163">
<time>2021-05-21T10:40:13Z</time>
</trkpt>
<trkpt lat="60.222054" lon="24.882288">
<time>2021-05-21T10:40:14Z</time>
</trkpt>
<trkpt lat="60.222059" lon="24.882442">
<time>2021-05-21T10:40:15Z</time>
</trkpt>
<trkpt lat="60.222044" lon="24.882575">
<time>2021-05-21T10:40:17Z</time>
</trkpt>
<trkpt lat="60.221998" lon="24.882782">
<time>2021-05-21T10:40:18Z</time>
</trkpt>
<trkpt lat="60.221972" lon="24.88288">
<time>2021-05-21T10:40:19Z</time>
</trkpt>
<trkpt lat="60.221946" lon="24.882982">
<time>2021-05-21T10:40:20Z</time>
</trkpt>
<trkpt lat="60.221921" lon="24.883082">
<time>2021-05-21T10:40:21Z</time>
</trkpt>
<trkpt lat="60.221905" lon="24.883184">
<time>2021-05-21T10:40:22Z</time>
</trkpt>
<trkpt lat="60.221885" lon="24.883284">
<time>2021-05-21T10:40:23Z</time>
</trkpt>
<trkpt lat="60.221864" lon="24.883389">
<time>2021-05-21T10:40:24Z</time>
</trkpt>
<trkpt lat="60.221849" lon="24.883502">
<time>2021-05-21T10:40:25Z</time>
</trkpt>
<trkpt lat="60.221818" lon="24.883617">
<time>2021-05-21T10:40:26Z</time>
</trkpt>
<trkpt lat="60.221793" lon="24.883755">
<time>2021-05-21T10:40:27Z</time>
</trkpt>
<trkpt lat="60.221767" lon="24.883883">
<time>2021-05-21T10:40:28Z</time>
</trkpt>
<trkpt lat="60.221747" lon="24.884003">
<time>2021-05-21T10:40:29Z</time>
</trkpt>
<trkpt lat="60.221742" lon="24.884116">
<time>2021-05-21T10:40:30Z</time>
</trkpt>
<trkpt lat="60.221742" lon="24.884206">
<time>2021-05-21T10:40:31Z</time>
</trkpt>
<trkpt lat="60.221864" lon="24.884308">
<time>2021-05-21T10:40:33Z</time>
</trkpt>
<trkpt lat="60.221921" lon="24.884354">
<time>2021-05-21T10:40:34Z</time>
</trkpt>
<trkpt lat="60.221972" lon="24.884392">
<time>2021-05-21T10:40:35Z</time>
</trkpt>
<trkpt lat="60.222013" lon="24.884421">
<time>2021-05-21T10:40:36Z</time>
</trkpt>
<trkpt lat="60.222069" lon="24.884444">
<time>2021-05-21T10:40:38Z</time>
</trkpt>
<trkpt lat="60.222069" lon="24.884362">
<time>2021-05-21T10:40:43Z</time>
</trkpt>
<trkpt lat="60.2221" lon="24.88419">
<time>2021-05-21T10:40:46Z</time>
</trkpt>
<trkpt lat="60.222161" lon="24.884032">
<time>2021-05-21T10:40:48Z</time>
</trkpt>
<trkpt lat="60.222208" lon="24.883942">
<time>2021-05-21T10:40:49Z</time>
</trkpt>
<trkpt lat="60.222274" lon="24.883852">
<time>2021-05-21T10:40:50Z</time>
</trkpt>
<trkpt lat="60.222336" lon="24.883755">
<time>2021-05-21T10:40:51Z</time>
</trkpt>
<trkpt lat="60.222387" lon="24.883658">
<time>2021-05-21T10:40:52Z</time>
</trkpt>
<trkpt lat="60.222453" lon="24.883548">
<time>2021-05-21T10:40:53Z</time>
</trkpt>
<trkpt lat="60.22252" lon="24.883438">
<time>2021-05-21T10:40:54Z</time>
</trkpt>
<trkpt lat="60.222581" lon="24.883328">
<time>2021-05-21T10:40:55Z</time>
</trkpt>
<trkpt lat="60.222653" lon="24.883223">
<time>2021-05-21T10:40:56Z</time>
</trkpt>
<trkpt lat="60.222725" lon="24.883125">
<time>2021-05-21T10:40:57Z</time>
</trkpt>
<trkpt lat="60.222791" lon="24.883031">
<time>2021-05-21T10:40:58Z</time>
</trkpt>
<trkpt lat="60.222858" lon="24.882936">
<time>2021-05-21T10:40:59Z</time>
</trkpt>
<trkpt lat="60.222919" lon="24.882846">
<time>2021-05-21T10:41:00Z</time>
</trkpt>
<trkpt lat="60.222981" lon="24.882767">
<time>2021-05-21T10:41:01Z</time>
</trkpt>
<trkpt lat="60.223047" lon="24.882688">
<time>2021-05-21T10:41:02Z</time>
</trkpt>
<trkpt lat="60.223119" lon="24.882613">
<time>2021-05-21T10:41:03Z</time>
</trkpt>
<trkpt lat="60.22318" lon="24.882539">
<time>2021-05-21T10:41:04Z</time>
</trkpt>
<trkpt lat="60.223252" lon="24.88247">
<time>2021-05-21T10:41:05Z</time>
</trkpt>
<trkpt lat="60.223313" lon="24.882406">
<time>2021-05-21T10:41:06Z</time>
</trkpt>
<trkpt lat="60.223385" lon="24.882342">
<time>2021-05-21T10:41:07Z</time>
</trkpt>
<trkpt lat="60.223452" lon="24.88228">
<time>2021-05-21T10:41:08Z</time>
</trkpt>
<trkpt lat="60.223513" lon="24.882214">
<time>2021-05-21T10:41:09Z</time>
</trkpt>
<trkpt lat="60.223585" lon="24.882152">
<time>2021-05-21T10:41:10Z</time>
</trkpt>
<trkpt lat="60.223646" lon="24.882091">
<time>2021-05-21T10:41:11Z</time>
</trkpt>
<trkpt lat="60.223718" lon="24.88203">
<time>2021-05-21T10:41:12Z</time>
</trkpt>
<trkpt lat="60.223784" lon="24.881971">
<time>2021-05-21T10:41:13Z</time>
</trkpt>
<trkpt lat="60.223851" lon="24.88192">
<time>2021-05-21T10:41:14Z</time>
</trkpt>
<trkpt lat="60.223897" lon="24.881871">
<time>2021-05-21T10:41:15Z</time>
</trkpt>
<trkpt lat="60.223979" lon="24.881845">
<time>2021-05-21T10:41:17Z</time>
</trkpt>
<trkpt lat="60.224056" lon="24.881886">
<time>2021-05-21T10:41:19Z</time>
</trkpt>
<trkpt lat="60.224107" lon="24.881976">
<time>2021-05-21T10:41:21Z</time>
</trkpt>
<trkpt lat="60.224143" lon="24.882106">
<time>2021-05-21T10:41:23Z</time>
</trkpt>
<trkpt lat="60.224184" lon="24.882255">
<time>2021-05-21T10:41:25Z</time>
</trkpt>
<trkpt lat="60.224215" lon="24.882393">
<time>2021-05-21T10:41:27Z</time>
</trkpt>
<trkpt lat="60.22423" lon="24.882521">
<time>2021-05-21T10:41:29Z</time>
</trkpt>
<trkpt lat="60.22423" lon="24.882657">
<time>2021-05-21T10:41:31Z</time>
</trkpt>
<trkpt lat="60.224215" lon="24.882795">
<time>2021-05-21T10:41:33Z</time>
</trkpt>
<trkpt lat="60.224199" lon="24.882926">
<time>2021-05-21T10:41:35Z</time>
</trkpt>
<trkpt lat="60.224194" lon="24.883018">
<time>2021-05-21T10:41:37Z</time>
</trkpt>
<trkpt lat="60.224225" lon="24.883092">
<time>2021-05-21T10:41:40Z</time>
</trkpt>
<trkpt lat="60.224281" lon="24.883084">
<time>2021-05-21T10:41:43Z</time>
</trkpt>
<trkpt lat="60.224332" lon="24.883061">
<time>2021-05-21T10:41:46Z</time>
</trkpt>
<trkpt lat="60.224394" lon="24.883061">
<time>2021-05-21T10:41:49Z</time>
</trkpt>
<trkpt lat="60.224445" lon="24.883054">
<time>2021-05-21T10:41:52Z</time>
</trkpt>
<trkpt lat="60.224496" lon="24.883008">
<time>2021-05-21T10:41:55Z</time>
</trkpt>
<trkpt lat="60.224568" lon="24.882956">
<time>2021-05-21T10:41:58Z</time>
</trkpt>
<trkpt lat="60.224609" lon="24.88291">
<time>2021-05-21T10:42:00Z</time>
</trkpt>
<trkpt lat="60.22468" lon="24.882872">
<time>2021-05-21T10:42:03Z</time>
</trkpt>
<trkpt lat="60.224732" lon="24.882869">
<time>2021-05-21T10:42:05Z</time>
</trkpt>
<trkpt lat="60.224814" lon="24.882905">
<time>2021-05-21T10:42:11Z</time>
</trkpt>
<trkpt lat="60.22487" lon="24.882949">
<time>2021-05-21T10:42:14Z</time>
</trkpt>
<trkpt lat="60.224931" lon="24.882992">
<time>2021-05-21T10:42:17Z</time>
</trkpt>
<trkpt lat="60.224977" lon="24.883043">
<time>2021-05-21T10:42:20Z</time>
</trkpt>
<trkpt lat="60.224962" lon="24.883031">
<time>2021-05-21T10:42:26Z</time>
</trkpt>
<trkpt lat="60.22489" lon="24.882982">
<time>2021-05-21T10:42:30Z</time>
</trkpt>
<trkpt lat="60.224844" lon="24.882936">
<time>2021-05-21T10:42:33Z</time>
</trkpt>
<trkpt lat="60.224798" lon="24.882913">
<time>2021-05-21T10:42:37Z</time>
</trkpt>
<trkpt lat="60.224727" lon="24.882969">
<time>2021-05-21T10:42:42Z</time>
</trkpt>
<trkpt lat="60.224675" lon="24.883008">
<time>2021-05-21T10:42:45Z</time>
</trkpt>
<trkpt lat="60.224619" lon="24.883038">
<time>2021-05-21T10:42:48Z</time>
</trkpt>
<trkpt lat="60.224573" lon="24.883051">
<time>2021-05-21T10:42:51Z</time>
</trkpt>
<trkpt lat="60.224501" lon="24.883064">
<time>2021-05-21T10:42:54Z</time>
</trkpt>
<trkpt lat="60.224424" lon="24.883079">
<time>2021-05-21T10:42:57Z</time>
</trkpt>
<trkpt lat="60.224363" lon="24.883059">
<time>2021-05-21T10:43:00Z</time>
</trkpt>
<trkpt lat="60.224332" lon="24.883008">
<time>2021-05-21T10:43:04Z</time>
</trkpt>
<trkpt lat="60.224327" lon="24.882867">
<time>2021-05-21T10:43:09Z</time>
</trkpt>
<trkpt lat="60.224307" lon="24.882698">
<time>2021-05-21T10:43:12Z</time>
</trkpt>
<trkpt lat="60.224271" lon="24.882562">
<time>2021-05-21T10:43:14Z</time>
</trkpt>
<trkpt lat="60.22423" lon="24.882408">
<time>2021-05-21T10:43:16Z</time>
</trkpt>
<trkpt lat="60.224194" lon="24.88227">
<time>2021-05-21T10:43:18Z</time>
</trkpt>
<trkpt lat="60.224168" lon="24.88216">
<time>2021-05-21T10:43:20Z</time>
</trkpt>
<trkpt lat="60.224133" lon="24.882058">
<time>2021-05-21T10:43:22Z</time>
</trkpt>
<trkpt lat="60.224087" lon="24.881984">
<time>2021-05-21T10:43:24Z</time>
</trkpt>
<trkpt lat="60.224025" lon="24.881966">
<time>2021-05-21T10:43:26Z</time>
</trkpt>
<trkpt lat="60.223943" lon="24.881994">
<time>2021-05-21T10:43:28Z</time>
</trkpt>
<trkpt lat="60.223897" lon="24.882027">
<time>2021-05-21T10:43:30Z</time>
</trkpt>
<trkpt lat="60.223928" lon="24.881976">
<time>2021-05-21T10:43:35Z</time>
</trkpt>
<trkpt lat="60.223989" lon="24.881912">
<time>2021-05-21T10:43:37Z</time>
</trkpt>
<trkpt lat="60.224076" lon="24.88184">
<time>2021-05-21T10:43:39Z</time>
</trkpt>
<trkpt lat="60.224128" lon="24.881799">
<time>2021-05-21T10:43:40Z</time>
</trkpt>
<trkpt lat="60.224184" lon="24.881758">
<time>2021-05-21T10:43:41Z</time>
</trkpt>
<trkpt lat="60.22424" lon="24.881717">
<time>2021-05-21T10:43:43Z</time>
</trkpt>
<trkpt lat="60.224291" lon="24.881676">
<time>2021-05-21T10:43:44Z</time>
</trkpt>
<trkpt lat="60.224404" lon="24.881594">
<time>2021-05-21T10:43:45Z</time>
</trkpt>
<trkpt lat="60.22446" lon="24.881551">
<time>2021-05-21T10:43:46Z</time>
</trkpt>
<trkpt lat="60.224522" lon="24.88151">
<time>2021-05-21T10:43:47Z</time>
</trkpt>
<trkpt lat="60.224578" lon="24.881466">
<time>2021-05-21T10:43:48Z</time>
</trkpt>
<trkpt lat="60.224645" lon="24.881423">
<time>2021-05-21T10:43:49Z</time>
</trkpt>
<trkpt lat="60.224706" lon="24.881382">
<time>2021-05-21T10:43:50Z</time>
</trkpt>
<trkpt lat="60.224768" lon="24.881346">
<time>2021-05-21T10:43:51Z</time>
</trkpt>
<trkpt lat="60.224824" lon="24.88132">
<time>2021-05-21T10:43:52Z</time>
</trkpt>
<trkpt lat="60.224896" lon="24.881295">
<time>2021-05-21T10:43:53Z</time>
</trkpt>
<trkpt lat="60.224962" lon="24.881274">
<time>2021-05-21T10:43:54Z</time>
</trkpt>
<trkpt lat="60.225024" lon="24.881256">
<time>2021-05-21T10:43:55Z</time>
</trkpt>
<trkpt lat="60.225095" lon="24.881233">
<time>2021-05-21T10:43:56Z</time>
</trkpt>
<trkpt lat="60.225162" lon="24.88121">
<time>2021-05-21T10:43:57Z</time>
</trkpt>
<trkpt lat="60.225228" lon="24.88119">
<time>2021-05-21T10:43:58Z</time>
</trkpt>
<trkpt lat="60.2253" lon="24.881175">
<time>2021-05-21T10:43:59Z</time>
</trkpt>
<trkpt lat="60.225377" lon="24.881159">
<time>2021-05-21T10:44:00Z</time>
</trkpt>
<trkpt lat="60.225443" lon="24.881146">
<time>2021-05-21T10:44:01Z</time>
</trkpt>
<trkpt lat="60.22551" lon="24.881134">
<time>2021-05-21T10:44:02Z</time>
</trkpt>
<trkpt lat="60.225582" lon="24.881118">
<time>2021-05-21T10:44:03Z</time>
</trkpt>
<trkpt lat="60.225653" lon="24.8811">
<time>2021-05-21T10:44:04Z</time>
</trkpt>
<trkpt lat="60.225725" lon="24.881085">
<time>2021-05-21T10:44:05Z</time>
</trkpt>
<trkpt lat="60.225797" lon="24.881075">
<time>2021-05-21T10:44:06Z</time>
</trkpt>
<trkpt lat="60.225863" lon="24.881064">
<time>2021-05-21T10:44:07Z</time>
</trkpt>
<trkpt lat="60.225935" lon="24.881062">
<time>2021-05-21T10:44:08Z</time>
</trkpt>
<trkpt lat="60.226007" lon="24.881067">
<time>2021-05-21T10:44:09Z</time>
</trkpt>
<trkpt lat="60.226078" lon="24.88108">
<time>2021-05-21T10:44:10Z</time>
</trkpt>
<trkpt lat="60.22614" lon="24.881113">
<time>2021-05-21T10:44:11Z</time>
</trkpt>
<trkpt lat="60.226222" lon="24.881182">
<time>2021-05-21T10:44:12Z</time>
</trkpt>
<trkpt lat="60.226293" lon="24.881208">
<time>2021-05-21T10:44:13Z</time>
</trkpt>
<trkpt lat="60.226365" lon="24.881195">
<time>2021-05-21T10:44:14Z</time>
</trkpt>
<trkpt lat="60.226416" lon="24.881162">
<time>2021-05-21T10:44:15Z</time>
</trkpt>
<trkpt lat="60.226457" lon="24.881116">
<time>2021-05-21T10:44:16Z</time>
</trkpt>
<trkpt lat="60.226493" lon="24.881041">
<time>2021-05-21T10:44:17Z</time>
</trkpt>
<trkpt lat="60.226488" lon="24.880824">
<time>2021-05-21T10:44:19Z</time>
</trkpt>
<trkpt lat="60.226457" lon="24.880716">
<time>2021-05-21T10:44:20Z</time>
</trkpt>
<trkpt lat="60.226426" lon="24.880619">
<time>2021-05-21T10:44:21Z</time>
</trkpt>
<trkpt lat="60.226385" lon="24.880509">
<time>2021-05-21T10:44:22Z</time>
</trkpt>
<trkpt lat="60.226355" lon="24.880391">
<time>2021-05-21T10:44:23Z</time>
</trkpt>
<trkpt lat="60.226329" lon="24.880271">
<time>2021-05-21T10:44:24Z</time>
</trkpt>
<trkpt lat="60.226309" lon="24.880143">
<time>2021-05-21T10:44:25Z</time>
</trkpt>
<trkpt lat="60.226293" lon="24.880007">
<time>2021-05-21T10:44:26Z</time>
</trkpt>
<trkpt lat="60.226283" lon="24.879869">
<time>2021-05-21T10:44:27Z</time>
</trkpt>
<trkpt lat="60.226273" lon="24.879723">
<time>2021-05-21T10:44:28Z</time>
</trkpt>
<trkpt lat="60.226257" lon="24.87958">
<time>2021-05-21T10:44:29Z</time>
</trkpt>
<trkpt lat="60.226242" lon="24.879436">
<time>2021-05-21T10:44:30Z</time>
</trkpt>
<trkpt lat="60.226216" lon="24.879288">
<time>2021-05-21T10:44:31Z</time>
</trkpt>
<trkpt lat="60.226186" lon="24.879152">
<time>2021-05-21T10:44:32Z</time>
</trkpt>
<trkpt lat="60.22615" lon="24.879034">
<time>2021-05-21T10:44:33Z</time>
</trkpt>
<trkpt lat="60.226114" lon="24.878945">
<time>2021-05-21T10:44:34Z</time>
</trkpt>
<trkpt lat="60.226063" lon="24.878871">
<time>2021-05-21T10:44:35Z</time>
</trkpt>
<trkpt lat="60.226007" lon="24.878817">
<time>2021-05-21T10:44:36Z</time>
</trkpt>
<trkpt lat="60.22595" lon="24.878773">
<time>2021-05-21T10:44:37Z</time>
</trkpt>
<trkpt lat="60.225889" lon="24.87874">
<time>2021-05-21T10:44:38Z</time>
</trkpt>
<trkpt lat="60.225817" lon="24.878709">
<time>2021-05-21T10:44:39Z</time>
</trkpt>
<trkpt lat="60.225751" lon="24.878676">
<time>2021-05-21T10:44:40Z</time>
</trkpt>
<trkpt lat="60.225679" lon="24.878632">
<time>2021-05-21T10:44:41Z</time>
</trkpt>
<trkpt lat="60.225607" lon="24.878586">
<time>2021-05-21T10:44:42Z</time>
</trkpt>
<trkpt lat="60.225536" lon="24.878525">
<time>2021-05-21T10:44:43Z</time>
</trkpt>
<trkpt lat="60.225469" lon="24.878456">
<time>2021-05-21T10:44:44Z</time>
</trkpt>
<trkpt lat="60.225397" lon="24.878376">
<time>2021-05-21T10:44:45Z</time>
</trkpt>
<trkpt lat="60.225331" lon="24.878287">
<time>2021-05-21T10:44:46Z</time>
</trkpt>
<trkpt lat="60.22528" lon="24.87819">
<time>2021-05-21T10:44:47Z</time>
</trkpt>
<trkpt lat="60.225249" lon="24.878085">
<time>2021-05-21T10:44:48Z</time>
</trkpt>
<trkpt lat="60.225244" lon="24.877987">
<time>2021-05-21T10:44:49Z</time>
</trkpt>
<trkpt lat="60.225244" lon="24.877903">
<time>2021-05-21T10:44:50Z</time>
</trkpt>
<trkpt lat="60.2253" lon="24.877734">
<time>2021-05-21T10:44:52Z</time>
</trkpt>
<trkpt lat="60.225367" lon="24.877583">
<time>2021-05-21T10:44:54Z</time>
</trkpt>
<trkpt lat="60.225408" lon="24.877506">
<time>2021-05-21T10:44:55Z</time>
</trkpt>
<trkpt lat="60.225443" lon="24.877429">
<time>2021-05-21T10:44:56Z</time>
</trkpt>
<trkpt lat="60.225484" lon="24.877352">
<time>2021-05-21T10:44:58Z</time>
</trkpt>
<trkpt lat="60.225561" lon="24.877207">
<time>2021-05-21T10:44:59Z</time>
</trkpt>
<trkpt lat="60.225612" lon="24.87715">
<time>2021-05-21T10:45:00Z</time>
</trkpt>
<trkpt lat="60.225664" lon="24.877099">
<time>2021-05-21T10:45:01Z</time>
</trkpt>
<trkpt lat="60.22572" lon="24.877053">
<time>2021-05-21T10:45:02Z</time>
</trkpt>
<trkpt lat="60.225771" lon="24.877007">
<time>2021-05-21T10:45:03Z</time>
</trkpt>
<trkpt lat="60.225827" lon="24.876958">
<time>2021-05-21T10:45:04Z</time>
</trkpt>
<trkpt lat="60.225889" lon="24.876904">
<time>2021-05-21T10:45:05Z</time>
</trkpt>
<trkpt lat="60.22594" lon="24.876858">
<time>2021-05-21T10:45:06Z</time>
</trkpt>
<trkpt lat="60.225991" lon="24.876815">
<time>2021-05-21T10:45:07Z</time>
</trkpt>
<trkpt lat="60.226048" lon="24.876776">
<time>2021-05-21T10:45:08Z</time>
</trkpt>
<trkpt lat="60.226099" lon="24.876746">
<time>2021-05-21T10:45:09Z</time>
</trkpt>
<trkpt lat="60.22615" lon="24.876733">
<time>2021-05-21T10:45:10Z</time>
</trkpt>
<trkpt lat="60.226227" lon="24.876756">
<time>2021-05-21T10:45:12Z</time>
</trkpt>
<trkpt lat="60.226293" lon="24.876833">
<time>2021-05-21T10:45:14Z</time>
</trkpt>
<trkpt lat="60.22636" lon="24.876899">
<time>2021-05-21T10:45:16Z</time>
</trkpt>
<trkpt lat="60.226426" lon="24.876933">
<time>2021-05-21T10:45:18Z</time>
</trkpt>
<trkpt lat="60.226478" lon="24.876953">
<time>2021-05-21T10:45:20Z</time>
</trkpt>
<trkpt lat="60.226524" lon="24.876951">
<time>2021-05-21T10:45:22Z</time>
</trkpt>
<trkpt lat="60.226606" lon="24.876874">
<time>2021-05-21T10:45:25Z</time>
</trkpt>
<trkpt lat="60.226667" lon="24.87681">
<time>2021-05-21T10:45:27Z</time>
</trkpt>
<trkpt lat="60.226749" lon="24.87672">
<time>2021-05-21T10:45:29Z</time>
</trkpt>
<trkpt lat="60.226841" lon="24.876625">
<time>2021-05-21T10:45:31Z</time>
</trkpt>
<trkpt lat="60.226887" lon="24.876582">
<time>2021-05-21T10:45:32Z</time>
</trkpt>
<trkpt lat="60.226969" lon="24.876495">
<time>2021-05-21T10:45:34Z</time>
</trkpt>
<trkpt lat="60.227036" lon="24.876428">
<time>2021-05-21T10:45:36Z</time>
</trkpt>
<trkpt lat="60.227112" lon="24.876362">
<time>2021-05-21T10:45:38Z</time>
</trkpt>
<trkpt lat="60.227189" lon="24.87629">
<time>2021-05-21T10:45:40Z</time>
</trkpt>
<trkpt lat="60.227287" lon="24.876206">
<time>2021-05-21T10:45:42Z</time>
</trkpt>
<trkpt lat="60.227338" lon="24.876162">
<time>2021-05-21T10:45:43Z</time>
</trkpt>
<trkpt lat="60.227384" lon="24.876108">
<time>2021-05-21T10:45:44Z</time>
</trkpt>
<trkpt lat="60.22743" lon="24.876052">
<time>2021-05-21T10:45:45Z</time>
</trkpt>
<trkpt lat="60.227481" lon="24.875991">
<time>2021-05-21T10:45:46Z</time>
</trkpt>
<trkpt lat="60.227522" lon="24.875929">
<time>2021-05-21T10:45:47Z</time>
</trkpt>
<trkpt lat="60.227563" lon="24.875878">
<time>2021-05-21T10:45:48Z</time>
</trkpt>
<trkpt lat="60.227604" lon="24.875837">
<time>2021-05-21T10:45:49Z</time>
</trkpt>
<trkpt lat="60.227671" lon="24.875801">
<time>2021-05-21T10:45:51Z</time>
</trkpt>
<trkpt lat="60.227701" lon="24.875832">
<time>2021-05-21T10:45:53Z</time>
</trkpt>
<trkpt lat="60.227701" lon="24.87597">
<time>2021-05-21T10:45:56Z</time>
</trkpt>
<trkpt lat="60.227701" lon="24.876119">
<time>2021-05-21T10:45:58Z</time>
</trkpt>
<trkpt lat="60.227686" lon="24.876254">
<time>2021-05-21T10:46:00Z</time>
</trkpt>
<trkpt lat="60.227665" lon="24.876364">
<time>2021-05-21T10:46:02Z</time>
</trkpt>
<trkpt lat="60.22764" lon="24.876451">
<time>2021-05-21T10:46:04Z</time>
</trkpt>
<trkpt lat="60.227584" lon="24.876559">
<time>2021-05-21T10:46:07Z</time>
</trkpt>
<trkpt lat="60.227543" lon="24.876646">
<time>2021-05-21T10:46:10Z</time>
</trkpt>
<trkpt lat="60.227548" lon="24.876743">
<time>2021-05-21T10:46:13Z</time>
</trkpt>
<trkpt lat="60.227594" lon="24.876889">
<time>2021-05-21T10:46:16Z</time>
</trkpt>
<trkpt lat="60.227594" lon="24.87703">
<time>2021-05-21T10:46:19Z</time>
</trkpt>
<trkpt lat="60.227558" lon="24.877158">
<time>2021-05-21T10:46:22Z</time>
</trkpt>
<trkpt lat="60.227512" lon="24.877271">
<time>2021-05-21T10:46:25Z</time>
</trkpt>
<trkpt lat="60.227456" lon="24.877352">
<time>2021-05-21T10:46:28Z</time>
</trkpt>
<trkpt lat="60.227415" lon="24.877447">
<time>2021-05-21T10:46:31Z</time>
</trkpt>
<trkpt lat="60.227379" lon="24.877555">
<time>2021-05-21T10:46:34Z</time>
</trkpt>
<trkpt lat="60.227333" lon="24.877665">
<time>2021-05-21T10:46:37Z</time>
</trkpt>
<trkpt lat="60.227297" lon="24.877742">
<time>2021-05-21T10:46:39Z</time>
</trkpt>
<trkpt lat="60.227251" lon="24.877852">
<time>2021-05-21T10:46:42Z</time>
</trkpt>
<trkpt lat="60.22721" lon="24.877931">
<time>2021-05-21T10:46:44Z</time>
</trkpt>
<trkpt lat="60.227159" lon="24.877995">
<time>2021-05-21T10:46:46Z</time>
</trkpt>
<trkpt lat="60.227107" lon="24.878036">
<time>2021-05-21T10:46:48Z</time>
</trkpt>
<trkpt lat="60.227051" lon="24.878054">
<time>2021-05-21T10:46:50Z</time>
</trkpt>
<trkpt lat="60.226984" lon="24.878062">
<time>2021-05-21T10:46:52Z</time>
</trkpt>
<trkpt lat="60.226913" lon="24.878069">
<time>2021-05-21T10:46:54Z</time>
</trkpt>
<trkpt lat="60.226841" lon="24.878062">
<time>2021-05-21T10:46:56Z</time>
</trkpt>
<trkpt lat="60.226759" lon="24.878062">
<time>2021-05-21T10:46:58Z</time>
</trkpt>
<trkpt lat="60.226677" lon="24.87808">
<time>2021-05-21T10:47:00Z</time>
</trkpt>
<trkpt lat="60.22658" lon="24.878138">
<time>2021-05-21T10:47:02Z</time>
</trkpt>
<trkpt lat="60.226534" lon="24.87819">
<time>2021-05-21T10:47:03Z</time>
</trkpt>
<trkpt lat="60.226488" lon="24.878248">
<time>2021-05-21T10:47:04Z</time>
</trkpt>
<trkpt lat="60.226447" lon="24.878323">
<time>2021-05-21T10:47:05Z</time>
</trkpt>
<trkpt lat="60.226411" lon="24.878397">
<time>2021-05-21T10:47:06Z</time>
</trkpt>
<trkpt lat="60.22637" lon="24.878481">
<time>2021-05-21T10:47:07Z</time>
</trkpt>
<trkpt lat="60.226339" lon="24.878563">
<time>2021-05-21T10:47:08Z</time>
</trkpt>
<trkpt lat="60.226309" lon="24.878638">
<time>2021-05-21T10:47:09Z</time>
</trkpt>
<trkpt lat="60.226283" lon="24.878702">
<time>2021-05-21T10:47:10Z</time>
</trkpt>
<trkpt lat="60.226242" lon="24.87884">
<time>2021-05-21T10:47:12Z</time>
</trkpt>
<trkpt lat="60.226227" lon="24.879009">
<time>2021-05-21T10:47:14Z</time>
</trkpt>
<trkpt lat="60.226227" lon="24.879203">
<time>2021-05-21T10:47:16Z</time>
</trkpt>
<trkpt lat="60.226232" lon="24.879313">
<time>2021-05-21T10:47:17Z</time>
</trkpt>
<trkpt lat="60.226232" lon="24.879431">
<time>2021-05-21T10:47:18Z</time>
</trkpt>
<trkpt lat="60.226232" lon="24.879552">
<time>2021-05-21T10:47:19Z</time>
</trkpt>
<trkpt lat="60.226232" lon="24.879674">
<time>2021-05-21T10:47:20Z</time>
</trkpt>
<trkpt lat="60.226237" lon="24.879802">
<time>2021-05-21T10:47:21Z</time>
</trkpt>
<trkpt lat="60.226247" lon="24.87993">
<time>2021-05-21T10:47:22Z</time>
</trkpt>
<trkpt lat="60.226268" lon="24.880053">
<time>2021-05-21T10:47:23Z</time>
</trkpt>
<trkpt lat="60.226293" lon="24.880166">
<time>2021-05-21T10:47:24Z</time>
</trkpt>
<trkpt lat="60.226319" lon="24.880276">
<time>2021-05-21T10:47:25Z</time>
</trkpt>
<trkpt lat="60.226355" lon="24.880381">
<time>2021-05-21T10:47:26Z</time>
</trkpt>
<trkpt lat="60.226385" lon="24.880486">
<time>2021-05-21T10:47:27Z</time>
</trkpt>
<trkpt lat="60.226426" lon="24.880588">
<time>2021-05-21T10:47:28Z</time>
</trkpt>
<trkpt lat="60.226457" lon="24.880693">
<time>2021-05-21T10:47:29Z</time>
</trkpt>
<trkpt lat="60.226478" lon="24.880808">
<time>2021-05-21T10:47:30Z</time>
</trkpt>
<trkpt lat="60.226498" lon="24.880931">
<time>2021-05-21T10:47:31Z</time>
</trkpt>
<trkpt lat="60.226513" lon="24.881047">
<time>2021-05-21T10:47:32Z</time>
</trkpt>
<trkpt lat="60.226529" lon="24.881175">
<time>2021-05-21T10:47:33Z</time>
</trkpt>
<trkpt lat="60.226544" lon="24.881292">
<time>2021-05-21T10:47:34Z</time>
</trkpt>
<trkpt lat="60.226549" lon="24.881392">
<time>2021-05-21T10:47:35Z</time>
</trkpt>
<trkpt lat="60.22656" lon="24.881584">
<time>2021-05-21T10:47:37Z</time>
</trkpt>
<trkpt lat="60.22656" lon="24.881774">
<time>2021-05-21T10:47:39Z</time>
</trkpt>
<trkpt lat="60.22657" lon="24.881945">
<time>2021-05-21T10:47:41Z</time>
</trkpt>
<trkpt lat="60.226575" lon="24.882081">
<time>2021-05-21T10:47:43Z</time>
</trkpt>
<trkpt lat="60.226585" lon="24.882191">
<time>2021-05-21T10:47:45Z</time>
</trkpt>
<trkpt lat="60.226606" lon="24.882275">
<time>2021-05-21T10:47:47Z</time>
</trkpt>
<trkpt lat="60.226667" lon="24.882314">
<time>2021-05-21T10:47:50Z</time>
</trkpt>
<trkpt lat="60.226744" lon="24.88226">
<time>2021-05-21T10:47:53Z</time>
</trkpt>
<trkpt lat="60.22678" lon="24.882181">
<time>2021-05-21T10:47:55Z</time>
</trkpt>
<trkpt lat="60.226816" lon="24.882086">
<time>2021-05-21T10:47:57Z</time>
</trkpt>
<trkpt lat="60.226841" lon="24.881991">
<time>2021-05-21T10:47:59Z</time>
</trkpt>
<trkpt lat="60.226867" lon="24.881886">
<time>2021-05-21T10:48:01Z</time>
</trkpt>
<trkpt lat="60.226892" lon="24.881809">
<time>2021-05-21T10:48:03Z</time>
</trkpt>
<trkpt lat="60.226872" lon="24.881789">
<time>2021-05-21T10:48:15Z</time>
</trkpt>
<trkpt lat="60.226846" lon="24.881907">
<time>2021-05-21T10:48:18Z</time>
</trkpt>
<trkpt lat="60.22681" lon="24.882027">
<time>2021-05-21T10:48:21Z</time>
</trkpt>
<trkpt lat="60.22678" lon="24.882114">
<time>2021-05-21T10:48:23Z</time>
</trkpt>
<trkpt lat="60.226749" lon="24.882206">
<time>2021-05-21T10:48:25Z</time>
</trkpt>
<trkpt lat="60.226708" lon="24.882293">
<time>2021-05-21T10:48:27Z</time>
</trkpt>
<trkpt lat="60.226652" lon="24.882334">
<time>2021-05-21T10:48:29Z</time>
</trkpt>
<trkpt lat="60.22658" lon="24.882337">
<time>2021-05-21T10:48:31Z</time>
</trkpt>
<trkpt lat="60.226503" lon="24.882311">
<time>2021-05-21T10:48:33Z</time>
</trkpt>
<trkpt lat="60.226432" lon="24.882234">
<time>2021-05-21T10:48:35Z</time>
</trkpt>
<trkpt lat="60.226344" lon="24.88217">
<time>2021-05-21T10:48:37Z</time>
</trkpt>
<trkpt lat="60.226257" lon="24.882145">
<time>2021-05-21T10:48:39Z</time>
</trkpt>
<trkpt lat="60.22616" lon="24.882135">
<time>2021-05-21T10:48:41Z</time>
</trkpt>
<trkpt lat="60.226109" lon="24.882127">
<time>2021-05-21T10:48:42Z</time>
</trkpt>
<trkpt lat="60.226048" lon="24.882127">
<time>2021-05-21T10:48:43Z</time>
</trkpt>
<trkpt lat="60.225986" lon="24.88214">
<time>2021-05-21T10:48:44Z</time>
</trkpt>
<trkpt lat="60.22593" lon="24.882165">
<time>2021-05-21T10:48:45Z</time>
</trkpt>
<trkpt lat="60.225873" lon="24.882214">
<time>2021-05-21T10:48:46Z</time>
</trkpt>
<trkpt lat="60.225827" lon="24.882286">
<time>2021-05-21T10:48:47Z</time>
</trkpt>
<trkpt lat="60.225776" lon="24.882373">
<time>2021-05-21T10:48:48Z</time>
</trkpt>
<trkpt lat="60.225735" lon="24.882465">
<time>2021-05-21T10:48:50Z</time>
</trkpt>
<trkpt lat="60.225664" lon="24.882654">
<time>2021-05-21T10:48:51Z</time>
</trkpt>
<trkpt lat="60.225628" lon="24.882744">
<time>2021-05-21T10:48:52Z</time>
</trkpt>
<trkpt lat="60.225587" lon="24.882836">
<time>2021-05-21T10:48:53Z</time>
</trkpt>
<trkpt lat="60.225546" lon="24.882933">
<time>2021-05-21T10:48:54Z</time>
</trkpt>
<trkpt lat="60.2255" lon="24.883038">
<time>2021-05-21T10:48:55Z</time>
</trkpt>
<trkpt lat="60.225448" lon="24.883148">
<time>2021-05-21T10:48:56Z</time>
</trkpt>
<trkpt lat="60.225397" lon="24.883258">
<time>2021-05-21T10:48:57Z</time>
</trkpt>
<trkpt lat="60.225341" lon="24.883376">
<time>2021-05-21T10:48:58Z</time>
</trkpt>
<trkpt lat="60.22529" lon="24.883502">
<time>2021-05-21T10:48:59Z</time>
</trkpt>
<trkpt lat="60.225228" lon="24.88363">
<time>2021-05-21T10:49:00Z</time>
</trkpt>
<trkpt lat="60.225182" lon="24.883758">
<time>2021-05-21T10:49:01Z</time>
</trkpt>
<trkpt lat="60.225136" lon="24.883878">
<time>2021-05-21T10:49:02Z</time>
</trkpt>
<trkpt lat="60.225095" lon="24.883993">
<time>2021-05-21T10:49:03Z</time>
</trkpt>
<trkpt lat="60.225049" lon="24.884101">
<time>2021-05-21T10:49:04Z</time>
</trkpt>
<trkpt lat="60.225013" lon="24.884211">
<time>2021-05-21T10:49:05Z</time>
</trkpt>
<trkpt lat="60.224977" lon="24.884316">
<time>2021-05-21T10:49:06Z</time>
</trkpt>
<trkpt lat="60.224942" lon="24.884416">
<time>2021-05-21T10:49:07Z</time>
</trkpt>
<trkpt lat="60.224911" lon="24.884526">
<time>2021-05-21T10:49:08Z</time>
</trkpt>
<trkpt lat="60.224885" lon="24.884633">
<time>2021-05-21T10:49:09Z</time>
</trkpt>
<trkpt lat="60.224855" lon="24.884751">
<time>2021-05-21T10:49:10Z</time>
</trkpt>
<trkpt lat="60.224834" lon="24.884858">
<time>2021-05-21T10:49:11Z</time>
</trkpt>
<trkpt lat="60.224814" lon="24.884966">
<time>2021-05-21T10:49:12Z</time>
</trkpt>
<trkpt lat="60.224788" lon="24.885076">
<time>2021-05-21T10:49:13Z</time>
</trkpt>
<trkpt lat="60.224768" lon="24.885181">
<time>2021-05-21T10:49:14Z</time>
</trkpt>
<trkpt lat="60.224737" lon="24.885283">
<time>2021-05-21T10:49:15Z</time>
</trkpt>
<trkpt lat="60.224716" lon="24.885373">
<time>2021-05-21T10:49:16Z</time>
</trkpt>
<trkpt lat="60.224686" lon="24.885483">
<time>2021-05-21T10:49:17Z</time>
</trkpt>
<trkpt lat="60.224655" lon="24.885596">
<time>2021-05-21T10:49:18Z</time>
</trkpt>
<trkpt lat="60.224619" lon="24.885708">
<time>2021-05-21T10:49:19Z</time>
</trkpt>
<trkpt lat="60.224583" lon="24.885813">
<time>2021-05-21T10:49:20Z</time>
</trkpt>
<trkpt lat="60.224542" lon="24.885911">
<time>2021-05-21T10:49:21Z</time>
</trkpt>
<trkpt lat="60.224501" lon="24.88601">
<time>2021-05-21T10:49:22Z</time>
</trkpt>
<trkpt lat="60.22446" lon="24.886097">
<time>2021-05-21T10:49:23Z</time>
</trkpt>
<trkpt lat="60.224419" lon="24.886187">
<time>2021-05-21T10:49:24Z</time>
</trkpt>
<trkpt lat="60.224373" lon="24.886277">
<time>2021-05-21T10:49:25Z</time>
</trkpt>
<trkpt lat="60.224327" lon="24.886366">
<time>2021-05-21T10:49:26Z</time>
</trkpt>
<trkpt lat="60.224276" lon="24.886446">
<time>2021-05-21T10:49:27Z</time>
</trkpt>
<trkpt lat="60.22422" lon="24.886512">
<time>2021-05-21T10:49:28Z</time>
</trkpt>
<trkpt lat="60.224168" lon="24.886563">
<time>2021-05-21T10:49:29Z</time>
</trkpt>
<trkpt lat="60.224117" lon="24.886609">
<time>2021-05-21T10:49:30Z</time>
</trkpt>
<trkpt lat="60.224076" lon="24.886658">
<time>2021-05-21T10:49:31Z</time>
</trkpt>
<trkpt lat="60.224046" lon="24.886704">
<time>2021-05-21T10:49:32Z</time>
</trkpt>
<trkpt lat="60.224025" lon="24.886796">
<time>2021-05-21T10:49:34Z</time>
</trkpt>
<trkpt lat="60.224" lon="24.886976">
<time>2021-05-21T10:49:37Z</time>
</trkpt>
<trkpt lat="60.223953" lon="24.887132">
<time>2021-05-21T10:49:39Z</time>
</trkpt>
<trkpt lat="60.223882" lon="24.887354">
<time>2021-05-21T10:49:41Z</time>
</trkpt>
<trkpt lat="60.223831" lon="24.887452">
<time>2021-05-21T10:49:42Z</time>
</trkpt>
<trkpt lat="60.223769" lon="24.887541">
<time>2021-05-21T10:49:43Z</time>
</trkpt>
<trkpt lat="60.223703" lon="24.887618">
<time>2021-05-21T10:49:44Z</time>
</trkpt>
<trkpt lat="60.223651" lon="24.887703">
<time>2021-05-21T10:49:45Z</time>
</trkpt>
<trkpt lat="60.223621" lon="24.887795">
<time>2021-05-21T10:49:46Z</time>
</trkpt>
<trkpt lat="60.223616" lon="24.8879">
<time>2021-05-21T10:49:47Z</time>
</trkpt>
<trkpt lat="60.223631" lon="24.88801">
<time>2021-05-21T10:49:48Z</time>
</trkpt>
<trkpt lat="60.223646" lon="24.88813">
<time>2021-05-21T10:49:49Z</time>
</trkpt>
<trkpt lat="60.223656" lon="24.888253">
<time>2021-05-21T10:49:50Z</time>
</trkpt>
<trkpt lat="60.223651" lon="24.888371">
<time>2021-05-21T10:49:51Z</time>
</trkpt>
<trkpt lat="60.223636" lon="24.888483">
<time>2021-05-21T10:49:52Z</time>
</trkpt>
<trkpt lat="60.22361" lon="24.888596">
<time>2021-05-21T10:49:53Z</time>
</trkpt>
<trkpt lat="60.223575" lon="24.888711">
<time>2021-05-21T10:49:54Z</time>
</trkpt>
<trkpt lat="60.223534" lon="24.888839">
<time>2021-05-21T10:49:55Z</time>
</trkpt>
<trkpt lat="60.223493" lon="24.888972">
<time>2021-05-21T10:49:56Z</time>
</trkpt>
<trkpt lat="60.223447" lon="24.889093">
<time>2021-05-21T10:49:57Z</time>
</trkpt>
<trkpt lat="60.2234" lon="24.889198">
<time>2021-05-21T10:49:58Z</time>
</trkpt>
<trkpt lat="60.22336" lon="24.889282">
<time>2021-05-21T10:49:59Z</time>
</trkpt>
<trkpt lat="60.223298" lon="24.889303">
<time>2021-05-21T10:50:00Z</time>
</trkpt>
<trkpt lat="60.223257" lon="24.889351">
<time>2021-05-21T10:50:01Z</time>
</trkpt>
</trkseg>
<name>antonio 1 2 </name>
</trk>
</gpx>